<?xml version='1.0' encoding='UTF-8'?>
<gpx version="1.1" creator="https://www.komoot.de" xmlns="http://www.topografix.com/GPX/1/1" xmlns:xsi="http://www.w3.org/2001/XMLSchema-instance" xsi:schemaLocation="http://www.topografix.com/GPX/1/1 http://www.topografix.com/GPX/1/1/gpx.xsd">
  <metadata>
    <name>Süd-West</name>
    <author>
      <link href="https://www.komoot.de">
        <text>komoot</text>
        <type>text/html</type>
      </link>
    </author>
  </metadata>
  <trk>
    <name>Süd-West</name>
    <trkseg>
      <trkpt lat="51.569744" lon="7.149336">
        <ele>53.039093</ele>
        <time>2025-08-12T10:03:11.807Z</time>
      </trkpt>
      <trkpt lat="51.570251" lon="7.149110">
        <ele>53.039093</ele>
        <time>2025-08-12T10:03:18.427Z</time>
      </trkpt>
      <trkpt lat="51.570323" lon="7.149078">
        <ele>53.039093</ele>
        <time>2025-08-12T10:03:19.354Z</time>
      </trkpt>
      <trkpt lat="51.571573" lon="7.148519">
        <ele>53.576068</ele>
        <time>2025-08-12T10:03:36.408Z</time>
      </trkpt>
      <trkpt lat="51.572137" lon="7.148267">
        <ele>53.890741</ele>
        <time>2025-08-12T10:03:44.082Z</time>
      </trkpt>
      <trkpt lat="51.572327" lon="7.148182">
        <ele>53.996757</ele>
        <time>2025-08-12T10:03:46.880Z</time>
      </trkpt>
      <trkpt lat="51.573118" lon="7.147828">
        <ele>55.127715</ele>
        <time>2025-08-12T10:04:00.122Z</time>
      </trkpt>
      <trkpt lat="51.573171" lon="7.148126">
        <ele>55.396549</ele>
        <time>2025-08-12T10:04:03.859Z</time>
      </trkpt>
      <trkpt lat="51.573259" lon="7.148659">
        <ele>55.874862</ele>
        <time>2025-08-12T10:04:09.470Z</time>
      </trkpt>
      <trkpt lat="51.573296" lon="7.148868">
        <ele>56.063341</ele>
        <time>2025-08-12T10:04:11.577Z</time>
      </trkpt>
      <trkpt lat="51.573468" lon="7.149816">
        <ele>56.603205</ele>
        <time>2025-08-12T10:04:21.649Z</time>
      </trkpt>
      <trkpt lat="51.573506" lon="7.149874">
        <ele>56.618987</ele>
        <time>2025-08-12T10:04:22.705Z</time>
      </trkpt>
      <trkpt lat="51.573617" lon="7.149820">
        <ele>56.653927</ele>
        <time>2025-08-12T10:04:24.671Z</time>
      </trkpt>
      <trkpt lat="51.573651" lon="7.150061">
        <ele>56.700206</ele>
        <time>2025-08-12T10:04:27.437Z</time>
      </trkpt>
      <trkpt lat="51.573698" lon="7.150196">
        <ele>56.729183</ele>
        <time>2025-08-12T10:04:29.129Z</time>
      </trkpt>
      <trkpt lat="51.573790" lon="7.150515">
        <ele>56.795038</ele>
        <time>2025-08-12T10:04:32.290Z</time>
      </trkpt>
      <trkpt lat="51.573961" lon="7.151446">
        <ele>56.976834</ele>
        <time>2025-08-12T10:04:38.349Z</time>
      </trkpt>
      <trkpt lat="51.574089" lon="7.151710">
        <ele>57.039536</ele>
        <time>2025-08-12T10:04:40.479Z</time>
      </trkpt>
      <trkpt lat="51.574216" lon="7.151933">
        <ele>56.905683</ele>
        <time>2025-08-12T10:04:42.350Z</time>
      </trkpt>
      <trkpt lat="51.574392" lon="7.152724">
        <ele>56.279055</ele>
        <time>2025-08-12T10:04:47.473Z</time>
      </trkpt>
      <trkpt lat="51.574410" lon="7.153432">
        <ele>55.750560</ele>
        <time>2025-08-12T10:04:51.328Z</time>
      </trkpt>
      <trkpt lat="51.574560" lon="7.154342">
        <ele>55.048383</ele>
        <time>2025-08-12T10:04:56.895Z</time>
      </trkpt>
      <trkpt lat="51.574569" lon="7.154654">
        <ele>54.796434</ele>
        <time>2025-08-12T10:04:58.869Z</time>
      </trkpt>
      <trkpt lat="51.574571" lon="7.154751">
        <ele>54.707682</ele>
        <time>2025-08-12T10:04:59.484Z</time>
      </trkpt>
      <trkpt lat="51.574571" lon="7.155129">
        <ele>54.362014</ele>
        <time>2025-08-12T10:05:01.900Z</time>
      </trkpt>
      <trkpt lat="51.574544" lon="7.155270">
        <ele>54.227092</ele>
        <time>2025-08-12T10:05:02.827Z</time>
      </trkpt>
      <trkpt lat="51.574396" lon="7.155604">
        <ele>53.851977</ele>
        <time>2025-08-12T10:05:05.358Z</time>
      </trkpt>
      <trkpt lat="51.574345" lon="7.155805">
        <ele>53.653441</ele>
        <time>2025-08-12T10:05:06.661Z</time>
      </trkpt>
      <trkpt lat="51.574192" lon="7.156647">
        <ele>52.851219</ele>
        <time>2025-08-12T10:05:11.594Z</time>
      </trkpt>
      <trkpt lat="51.574180" lon="7.156841">
        <ele>52.672935</ele>
        <time>2025-08-12T10:05:12.631Z</time>
      </trkpt>
      <trkpt lat="51.574231" lon="7.157071">
        <ele>52.449620</ele>
        <time>2025-08-12T10:05:13.913Z</time>
      </trkpt>
      <trkpt lat="51.574450" lon="7.157468">
        <ele>52.103382</ele>
        <time>2025-08-12T10:05:16.720Z</time>
      </trkpt>
      <trkpt lat="51.574463" lon="7.157555">
        <ele>52.060999</ele>
        <time>2025-08-12T10:05:17.200Z</time>
      </trkpt>
      <trkpt lat="51.574448" lon="7.158048">
        <ele>51.827206</ele>
        <time>2025-08-12T10:05:19.885Z</time>
      </trkpt>
      <trkpt lat="51.574601" lon="7.158652">
        <ele>51.518267</ele>
        <time>2025-08-12T10:05:23.786Z</time>
      </trkpt>
      <trkpt lat="51.574680" lon="7.159282">
        <ele>51.213851</ele>
        <time>2025-08-12T10:05:28.340Z</time>
      </trkpt>
      <trkpt lat="51.574851" lon="7.159631">
        <ele>51.003351</ele>
        <time>2025-08-12T10:05:32.118Z</time>
      </trkpt>
      <trkpt lat="51.574621" lon="7.160142">
        <ele>50.675302</ele>
        <time>2025-08-12T10:05:38.284Z</time>
      </trkpt>
      <trkpt lat="51.574526" lon="7.160424">
        <ele>50.498392</ele>
        <time>2025-08-12T10:05:41.308Z</time>
      </trkpt>
      <trkpt lat="51.574541" lon="7.160578">
        <ele>50.412421</ele>
        <time>2025-08-12T10:05:42.656Z</time>
      </trkpt>
      <trkpt lat="51.574779" lon="7.160944">
        <ele>50.120266</ele>
        <time>2025-08-12T10:05:46.435Z</time>
      </trkpt>
      <trkpt lat="51.574842" lon="7.161357">
        <ele>49.885727</ele>
        <time>2025-08-12T10:05:49.082Z</time>
      </trkpt>
      <trkpt lat="51.574873" lon="7.161586">
        <ele>49.756467</ele>
        <time>2025-08-12T10:05:50.411Z</time>
      </trkpt>
      <trkpt lat="51.574947" lon="7.162096">
        <ele>49.467627</ele>
        <time>2025-08-12T10:05:53.197Z</time>
      </trkpt>
      <trkpt lat="51.574965" lon="7.162214">
        <ele>49.400616</ele>
        <time>2025-08-12T10:05:53.820Z</time>
      </trkpt>
      <trkpt lat="51.574970" lon="7.162558">
        <ele>48.997286</ele>
        <time>2025-08-12T10:05:55.586Z</time>
      </trkpt>
      <trkpt lat="51.574961" lon="7.162701">
        <ele>48.692794</ele>
        <time>2025-08-12T10:05:56.301Z</time>
      </trkpt>
      <trkpt lat="51.575139" lon="7.162647">
        <ele>48.075354</ele>
        <time>2025-08-12T10:05:57.753Z</time>
      </trkpt>
      <trkpt lat="51.575608" lon="7.162513">
        <ele>46.451662</ele>
        <time>2025-08-12T10:06:01.489Z</time>
      </trkpt>
      <trkpt lat="51.576234" lon="7.162420">
        <ele>44.308736</ele>
        <time>2025-08-12T10:06:06.460Z</time>
      </trkpt>
      <trkpt lat="51.576803" lon="7.162373">
        <ele>42.729774</ele>
        <time>2025-08-12T10:06:11.047Z</time>
      </trkpt>
      <trkpt lat="51.577214" lon="7.162375">
        <ele>41.974157</ele>
        <time>2025-08-12T10:06:14.429Z</time>
      </trkpt>
      <trkpt lat="51.577470" lon="7.162434">
        <ele>41.498705</ele>
        <time>2025-08-12T10:06:16.591Z</time>
      </trkpt>
      <trkpt lat="51.577758" lon="7.162540">
        <ele>40.955550</ele>
        <time>2025-08-12T10:06:19.189Z</time>
      </trkpt>
      <trkpt lat="51.578510" lon="7.162936">
        <ele>40.135738</ele>
        <time>2025-08-12T10:06:27.870Z</time>
      </trkpt>
      <trkpt lat="51.578629" lon="7.163001">
        <ele>40.327008</ele>
        <time>2025-08-12T10:06:29.692Z</time>
      </trkpt>
      <trkpt lat="51.578946" lon="7.163170">
        <ele>40.835278</ele>
        <time>2025-08-12T10:06:34.990Z</time>
      </trkpt>
      <trkpt lat="51.579378" lon="7.163400">
        <ele>41.527843</ele>
        <time>2025-08-12T10:06:43.114Z</time>
      </trkpt>
      <trkpt lat="51.579618" lon="7.163523">
        <ele>41.911205</ele>
        <time>2025-08-12T10:06:48.071Z</time>
      </trkpt>
      <trkpt lat="51.579929" lon="7.163685">
        <ele>42.408734</ele>
        <time>2025-08-12T10:06:54.681Z</time>
      </trkpt>
      <trkpt lat="51.583369" lon="7.165483">
        <ele>50.021579</ele>
        <time>2025-08-12T10:08:03.052Z</time>
      </trkpt>
      <trkpt lat="51.583559" lon="7.165579">
        <ele>50.279713</ele>
        <time>2025-08-12T10:08:06.300Z</time>
      </trkpt>
      <trkpt lat="51.583718" lon="7.165664">
        <ele>50.382306</ele>
        <time>2025-08-12T10:08:08.928Z</time>
      </trkpt>
      <trkpt lat="51.584052" lon="7.165842">
        <ele>50.597750</ele>
        <time>2025-08-12T10:08:14.094Z</time>
      </trkpt>
      <trkpt lat="51.585718" lon="7.166676">
        <ele>51.593088</ele>
        <time>2025-08-12T10:08:35.622Z</time>
      </trkpt>
      <trkpt lat="51.586705" lon="7.166980">
        <ele>52.079203</ele>
        <time>2025-08-12T10:08:49.734Z</time>
      </trkpt>
      <trkpt lat="51.587076" lon="7.167048">
        <ele>52.212278</ele>
        <time>2025-08-12T10:08:55.122Z</time>
      </trkpt>
      <trkpt lat="51.593424" lon="7.167735">
        <ele>53.555752</ele>
        <time>2025-08-12T10:10:13.328Z</time>
      </trkpt>
      <trkpt lat="51.593613" lon="7.167754">
        <ele>53.640039</ele>
        <time>2025-08-12T10:10:15.942Z</time>
      </trkpt>
      <trkpt lat="51.593804" lon="7.167775">
        <ele>53.725250</ele>
        <time>2025-08-12T10:10:18.648Z</time>
      </trkpt>
      <trkpt lat="51.594914" lon="7.167921">
        <ele>55.030227</ele>
        <time>2025-08-12T10:10:35.774Z</time>
      </trkpt>
      <trkpt lat="51.595092" lon="7.167984">
        <ele>55.293470</ele>
        <time>2025-08-12T10:10:38.788Z</time>
      </trkpt>
      <trkpt lat="51.595480" lon="7.168204">
        <ele>55.887643</ele>
        <time>2025-08-12T10:10:45.755Z</time>
      </trkpt>
      <trkpt lat="51.595819" lon="7.168492">
        <ele>56.441297</ele>
        <time>2025-08-12T10:10:52.599Z</time>
      </trkpt>
      <trkpt lat="51.596210" lon="7.168953">
        <ele>57.487183</ele>
        <time>2025-08-12T10:11:01.747Z</time>
      </trkpt>
      <trkpt lat="51.596575" lon="7.169481">
        <ele>58.554940</ele>
        <time>2025-08-12T10:11:11.427Z</time>
      </trkpt>
      <trkpt lat="51.596967" lon="7.170048">
        <ele>59.701626</ele>
        <time>2025-08-12T10:11:21.731Z</time>
      </trkpt>
      <trkpt lat="51.597217" lon="7.170521">
        <ele>60.460833</ele>
        <time>2025-08-12T10:11:28.822Z</time>
      </trkpt>
      <trkpt lat="51.597407" lon="7.170968">
        <ele>60.845257</ele>
        <time>2025-08-12T10:11:34.607Z</time>
      </trkpt>
      <trkpt lat="51.597543" lon="7.171294">
        <ele>61.123973</ele>
        <time>2025-08-12T10:11:38.538Z</time>
      </trkpt>
      <trkpt lat="51.597637" lon="7.171526">
        <ele>61.320566</ele>
        <time>2025-08-12T10:11:41.197Z</time>
      </trkpt>
      <trkpt lat="51.598524" lon="7.173690">
        <ele>63.133366</ele>
        <time>2025-08-12T10:12:04.012Z</time>
      </trkpt>
      <trkpt lat="51.598709" lon="7.174043">
        <ele>63.448950</ele>
        <time>2025-08-12T10:12:08.398Z</time>
      </trkpt>
      <trkpt lat="51.598924" lon="7.174348">
        <ele>63.764175</ele>
        <time>2025-08-12T10:12:12.954Z</time>
      </trkpt>
      <trkpt lat="51.599329" lon="7.174704">
        <ele>64.271766</ele>
        <time>2025-08-12T10:12:20.518Z</time>
      </trkpt>
      <trkpt lat="51.599509" lon="7.174794">
        <ele>64.481795</ele>
        <time>2025-08-12T10:12:23.622Z</time>
      </trkpt>
      <trkpt lat="51.599786" lon="7.174874">
        <ele>64.802741</ele>
        <time>2025-08-12T10:12:28.262Z</time>
      </trkpt>
      <trkpt lat="51.600139" lon="7.174862">
        <ele>65.205407</ele>
        <time>2025-08-12T10:12:34.023Z</time>
      </trkpt>
      <trkpt lat="51.600440" lon="7.174762">
        <ele>65.555914</ele>
        <time>2025-08-12T10:12:38.874Z</time>
      </trkpt>
      <trkpt lat="51.600670" lon="7.174614">
        <ele>65.838392</ele>
        <time>2025-08-12T10:12:42.722Z</time>
      </trkpt>
      <trkpt lat="51.600947" lon="7.174351">
        <ele>66.205138</ele>
        <time>2025-08-12T10:12:47.593Z</time>
      </trkpt>
      <trkpt lat="51.601267" lon="7.174030">
        <ele>66.472603</ele>
        <time>2025-08-12T10:12:52.970Z</time>
      </trkpt>
      <trkpt lat="51.601531" lon="7.173122">
        <ele>66.534765</ele>
        <time>2025-08-12T10:13:01.292Z</time>
      </trkpt>
      <trkpt lat="51.602374" lon="7.168976">
        <ele>65.981712</ele>
        <time>2025-08-12T10:13:31.446Z</time>
      </trkpt>
      <trkpt lat="51.603074" lon="7.166218">
        <ele>64.322982</ele>
        <time>2025-08-12T10:13:49.268Z</time>
      </trkpt>
      <trkpt lat="51.603422" lon="7.164900">
        <ele>63.779246</ele>
        <time>2025-08-12T10:13:58.644Z</time>
      </trkpt>
      <trkpt lat="51.603647" lon="7.164047">
        <ele>63.439857</ele>
        <time>2025-08-12T10:14:04.607Z</time>
      </trkpt>
      <trkpt lat="51.603687" lon="7.164003">
        <ele>63.411293</ele>
        <time>2025-08-12T10:14:05.124Z</time>
      </trkpt>
      <trkpt lat="51.603691" lon="7.163904">
        <ele>63.374961</ele>
        <time>2025-08-12T10:14:05.749Z</time>
      </trkpt>
      <trkpt lat="51.603725" lon="7.163848">
        <ele>63.346282</ele>
        <time>2025-08-12T10:14:06.269Z</time>
      </trkpt>
      <trkpt lat="51.603752" lon="7.163781">
        <ele>63.317033</ele>
        <time>2025-08-12T10:14:06.790Z</time>
      </trkpt>
      <trkpt lat="51.603734" lon="7.163709">
        <ele>63.288609</ele>
        <time>2025-08-12T10:14:07.281Z</time>
      </trkpt>
      <trkpt lat="51.603767" lon="7.163593">
        <ele>63.241884</ele>
        <time>2025-08-12T10:14:08.137Z</time>
      </trkpt>
      <trkpt lat="51.603749" lon="7.163517">
        <ele>63.212096</ele>
        <time>2025-08-12T10:14:08.668Z</time>
      </trkpt>
      <trkpt lat="51.603783" lon="7.163457">
        <ele>63.214027</ele>
        <time>2025-08-12T10:14:09.197Z</time>
      </trkpt>
      <trkpt lat="51.603811" lon="7.163418">
        <ele>63.217518</ele>
        <time>2025-08-12T10:14:09.612Z</time>
      </trkpt>
      <trkpt lat="51.603812" lon="7.163304">
        <ele>63.224194</ele>
        <time>2025-08-12T10:14:10.379Z</time>
      </trkpt>
      <trkpt lat="51.603854" lon="7.163255">
        <ele>63.229084</ele>
        <time>2025-08-12T10:14:10.948Z</time>
      </trkpt>
      <trkpt lat="51.604069" lon="7.162519">
        <ele>63.276710</ele>
        <time>2025-08-12T10:14:16.717Z</time>
      </trkpt>
      <trkpt lat="51.604293" lon="7.162087">
        <ele>63.309664</ele>
        <time>2025-08-12T10:14:20.797Z</time>
      </trkpt>
      <trkpt lat="51.604468" lon="7.161856">
        <ele>63.330999</ele>
        <time>2025-08-12T10:14:23.663Z</time>
      </trkpt>
      <trkpt lat="51.604643" lon="7.161693">
        <ele>63.350059</ele>
        <time>2025-08-12T10:14:26.428Z</time>
      </trkpt>
      <trkpt lat="51.605843" lon="7.160786">
        <ele>64.454726</ele>
        <time>2025-08-12T10:14:45.127Z</time>
      </trkpt>
      <trkpt lat="51.606113" lon="7.160653">
        <ele>64.753562</ele>
        <time>2025-08-12T10:14:49.397Z</time>
      </trkpt>
      <trkpt lat="51.606316" lon="7.160599">
        <ele>64.971326</ele>
        <time>2025-08-12T10:14:52.666Z</time>
      </trkpt>
      <trkpt lat="51.606632" lon="7.160594">
        <ele>65.332185</ele>
        <time>2025-08-12T10:14:57.896Z</time>
      </trkpt>
      <trkpt lat="51.607711" lon="7.160855">
        <ele>67.817665</ele>
        <time>2025-08-12T10:15:19.311Z</time>
      </trkpt>
      <trkpt lat="51.608631" lon="7.161077">
        <ele>69.788858</ele>
        <time>2025-08-12T10:15:37.861Z</time>
      </trkpt>
      <trkpt lat="51.608891" lon="7.161086">
        <ele>70.223856</ele>
        <time>2025-08-12T10:15:42.640Z</time>
      </trkpt>
      <trkpt lat="51.609261" lon="7.161016">
        <ele>70.847004</ele>
        <time>2025-08-12T10:15:49.075Z</time>
      </trkpt>
      <trkpt lat="51.609540" lon="7.160900">
        <ele>71.328987</ele>
        <time>2025-08-12T10:15:53.626Z</time>
      </trkpt>
      <trkpt lat="51.609845" lon="7.160690">
        <ele>71.883835</ele>
        <time>2025-08-12T10:15:58.519Z</time>
      </trkpt>
      <trkpt lat="51.610080" lon="7.160464">
        <ele>72.341681</ele>
        <time>2025-08-12T10:16:02.774Z</time>
      </trkpt>
      <trkpt lat="51.610403" lon="7.160043">
        <ele>73.291978</ele>
        <time>2025-08-12T10:16:09.848Z</time>
      </trkpt>
      <trkpt lat="51.610589" lon="7.159706">
        <ele>73.944726</ele>
        <time>2025-08-12T10:16:14.836Z</time>
      </trkpt>
      <trkpt lat="51.610714" lon="7.159411">
        <ele>74.461767</ele>
        <time>2025-08-12T10:16:18.926Z</time>
      </trkpt>
      <trkpt lat="51.610786" lon="7.159222">
        <ele>74.782777</ele>
        <time>2025-08-12T10:16:21.552Z</time>
      </trkpt>
      <trkpt lat="51.611200" lon="7.157912">
        <ele>76.946479</ele>
        <time>2025-08-12T10:16:41.485Z</time>
      </trkpt>
      <trkpt lat="51.611309" lon="7.157476">
        <ele>77.700730</ele>
        <time>2025-08-12T10:16:48.176Z</time>
      </trkpt>
      <trkpt lat="51.611365" lon="7.157153">
        <ele>78.238892</ele>
        <time>2025-08-12T10:16:52.784Z</time>
      </trkpt>
      <trkpt lat="51.611419" lon="7.156412">
        <ele>79.436183</ele>
        <time>2025-08-12T10:17:02.573Z</time>
      </trkpt>
      <trkpt lat="51.611394" lon="7.155888">
        <ele>80.279557</ele>
        <time>2025-08-12T10:17:09.129Z</time>
      </trkpt>
      <trkpt lat="51.611344" lon="7.155499">
        <ele>80.917043</ele>
        <time>2025-08-12T10:17:13.851Z</time>
      </trkpt>
      <trkpt lat="51.611029" lon="7.154075">
        <ele>81.692269</ele>
        <time>2025-08-12T10:17:27.606Z</time>
      </trkpt>
      <trkpt lat="51.610591" lon="7.152271">
        <ele>82.414822</ele>
        <time>2025-08-12T10:17:41.775Z</time>
      </trkpt>
      <trkpt lat="51.610476" lon="7.151655">
        <ele>82.717028</ele>
        <time>2025-08-12T10:17:47.000Z</time>
      </trkpt>
      <trkpt lat="51.610415" lon="7.151156">
        <ele>82.955970</ele>
        <time>2025-08-12T10:17:51.460Z</time>
      </trkpt>
      <trkpt lat="51.610315" lon="7.149748">
        <ele>83.631005</ele>
        <time>2025-08-12T10:18:05.071Z</time>
      </trkpt>
      <trkpt lat="51.610034" lon="7.145715">
        <ele>86.844011</ele>
        <time>2025-08-12T10:18:45.263Z</time>
      </trkpt>
      <trkpt lat="51.609955" lon="7.144426">
        <ele>87.913370</ele>
        <time>2025-08-12T10:18:58.157Z</time>
      </trkpt>
      <trkpt lat="51.609964" lon="7.144322">
        <ele>88.000061</ele>
        <time>2025-08-12T10:18:59.223Z</time>
      </trkpt>
      <trkpt lat="51.609976" lon="7.144210">
        <ele>88.093894</ele>
        <time>2025-08-12T10:19:00.378Z</time>
      </trkpt>
      <trkpt lat="51.609932" lon="7.144122">
        <ele>88.187168</ele>
        <time>2025-08-12T10:19:01.554Z</time>
      </trkpt>
      <trkpt lat="51.609854" lon="7.143038">
        <ele>89.540906</ele>
        <time>2025-08-12T10:19:13.121Z</time>
      </trkpt>
      <trkpt lat="51.609504" lon="7.137770">
        <ele>96.517791</ele>
        <time>2025-08-12T10:20:16.630Z</time>
      </trkpt>
      <trkpt lat="51.609508" lon="7.137398">
        <ele>96.828159</ele>
        <time>2025-08-12T10:20:20.690Z</time>
      </trkpt>
      <trkpt lat="51.609549" lon="7.136901">
        <ele>97.246397</ele>
        <time>2025-08-12T10:20:25.920Z</time>
      </trkpt>
      <trkpt lat="51.609683" lon="7.136069">
        <ele>97.963409</ele>
        <time>2025-08-12T10:20:34.080Z</time>
      </trkpt>
      <trkpt lat="51.609869" lon="7.135112">
        <ele>98.604469</ele>
        <time>2025-08-12T10:20:42.648Z</time>
      </trkpt>
      <trkpt lat="51.609838" lon="7.135007">
        <ele>98.638092</ele>
        <time>2025-08-12T10:20:43.560Z</time>
      </trkpt>
      <trkpt lat="51.609901" lon="7.134955">
        <ele>98.671060</ele>
        <time>2025-08-12T10:20:44.482Z</time>
      </trkpt>
      <trkpt lat="51.609959" lon="7.134900">
        <ele>98.702406</ele>
        <time>2025-08-12T10:20:45.325Z</time>
      </trkpt>
      <trkpt lat="51.609938" lon="7.134693">
        <ele>98.763065</ele>
        <time>2025-08-12T10:20:46.997Z</time>
      </trkpt>
      <trkpt lat="51.610047" lon="7.134009">
        <ele>98.967288</ele>
        <time>2025-08-12T10:20:52.724Z</time>
      </trkpt>
      <trkpt lat="51.610059" lon="7.133936">
        <ele>98.989127</ele>
        <time>2025-08-12T10:20:53.344Z</time>
      </trkpt>
      <trkpt lat="51.610101" lon="7.133318">
        <ele>99.168920</ele>
        <time>2025-08-12T10:20:58.660Z</time>
      </trkpt>
      <trkpt lat="51.610103" lon="7.133236">
        <ele>99.192653</ele>
        <time>2025-08-12T10:20:59.381Z</time>
      </trkpt>
      <trkpt lat="51.611146" lon="7.132794">
        <ele>98.646304</ele>
        <time>2025-08-12T10:21:13.128Z</time>
      </trkpt>
      <trkpt lat="51.611293" lon="7.132735">
        <ele>98.509358</ele>
        <time>2025-08-12T10:21:14.751Z</time>
      </trkpt>
      <trkpt lat="51.611987" lon="7.132449">
        <ele>97.861800</ele>
        <time>2025-08-12T10:21:21.360Z</time>
      </trkpt>
      <trkpt lat="51.612232" lon="7.132357">
        <ele>97.468399</ele>
        <time>2025-08-12T10:21:23.470Z</time>
      </trkpt>
      <trkpt lat="51.612828" lon="7.131993">
        <ele>95.667524</ele>
        <time>2025-08-12T10:21:28.640Z</time>
      </trkpt>
      <trkpt lat="51.613439" lon="7.131601">
        <ele>93.809353</ele>
        <time>2025-08-12T10:21:33.952Z</time>
      </trkpt>
      <trkpt lat="51.614420" lon="7.130988">
        <ele>91.362204</ele>
        <time>2025-08-12T10:21:42.884Z</time>
      </trkpt>
      <trkpt lat="51.614463" lon="7.130962">
        <ele>91.270457</ele>
        <time>2025-08-12T10:21:43.297Z</time>
      </trkpt>
      <trkpt lat="51.614534" lon="7.130918">
        <ele>91.118498</ele>
        <time>2025-08-12T10:21:43.972Z</time>
      </trkpt>
      <trkpt lat="51.614593" lon="7.130904">
        <ele>90.999374</ele>
        <time>2025-08-12T10:21:44.501Z</time>
      </trkpt>
      <trkpt lat="51.615256" lon="7.130755">
        <ele>89.662209</ele>
        <time>2025-08-12T10:21:50.501Z</time>
      </trkpt>
      <trkpt lat="51.615575" lon="7.130658">
        <ele>89.017989</ele>
        <time>2025-08-12T10:21:53.467Z</time>
      </trkpt>
      <trkpt lat="51.615708" lon="7.130621">
        <ele>88.795242</ele>
        <time>2025-08-12T10:21:54.699Z</time>
      </trkpt>
      <trkpt lat="51.616010" lon="7.130624">
        <ele>88.296829</ele>
        <time>2025-08-12T10:21:57.464Z</time>
      </trkpt>
      <trkpt lat="51.616078" lon="7.130625">
        <ele>88.184601</ele>
        <time>2025-08-12T10:21:58.087Z</time>
      </trkpt>
      <trkpt lat="51.616141" lon="7.130626">
        <ele>88.080624</ele>
        <time>2025-08-12T10:21:58.672Z</time>
      </trkpt>
      <trkpt lat="51.616419" lon="7.130641">
        <ele>87.621571</ele>
        <time>2025-08-12T10:22:01.225Z</time>
      </trkpt>
      <trkpt lat="51.616528" lon="7.130649">
        <ele>87.441497</ele>
        <time>2025-08-12T10:22:02.215Z</time>
      </trkpt>
      <trkpt lat="51.617295" lon="7.130704">
        <ele>86.174430</ele>
        <time>2025-08-12T10:22:09.172Z</time>
      </trkpt>
      <trkpt lat="51.617331" lon="7.130707">
        <ele>86.114938</ele>
        <time>2025-08-12T10:22:09.495Z</time>
      </trkpt>
      <trkpt lat="51.617383" lon="7.130702">
        <ele>86.025670</ele>
        <time>2025-08-12T10:22:09.964Z</time>
      </trkpt>
      <trkpt lat="51.618576" lon="7.130588">
        <ele>83.893906</ele>
        <time>2025-08-12T10:22:20.565Z</time>
      </trkpt>
      <trkpt lat="51.618851" lon="7.130512">
        <ele>83.396203</ele>
        <time>2025-08-12T10:22:23.036Z</time>
      </trkpt>
      <trkpt lat="51.619720" lon="7.130059">
        <ele>81.803933</ele>
        <time>2025-08-12T10:22:31.390Z</time>
      </trkpt>
      <trkpt lat="51.620511" lon="7.129631">
        <ele>80.365786</ele>
        <time>2025-08-12T10:22:38.833Z</time>
      </trkpt>
      <trkpt lat="51.620675" lon="7.129536">
        <ele>80.065411</ele>
        <time>2025-08-12T10:22:40.399Z</time>
      </trkpt>
      <trkpt lat="51.621177" lon="7.129277">
        <ele>79.335612</ele>
        <time>2025-08-12T10:22:45.149Z</time>
      </trkpt>
      <trkpt lat="51.621277" lon="7.129269">
        <ele>79.214056</ele>
        <time>2025-08-12T10:22:46.058Z</time>
      </trkpt>
      <trkpt lat="51.622445" lon="7.129555">
        <ele>77.779738</ele>
        <time>2025-08-12T10:22:57.305Z</time>
      </trkpt>
      <trkpt lat="51.622529" lon="7.129568">
        <ele>77.677287</ele>
        <time>2025-08-12T10:22:58.195Z</time>
      </trkpt>
      <trkpt lat="51.622658" lon="7.129581">
        <ele>77.558864</ele>
        <time>2025-08-12T10:22:59.585Z</time>
      </trkpt>
      <trkpt lat="51.622812" lon="7.129546">
        <ele>77.496589</ele>
        <time>2025-08-12T10:23:01.263Z</time>
      </trkpt>
      <trkpt lat="51.623035" lon="7.129473">
        <ele>77.405470</ele>
        <time>2025-08-12T10:23:03.747Z</time>
      </trkpt>
      <trkpt lat="51.623167" lon="7.129391">
        <ele>77.348821</ele>
        <time>2025-08-12T10:23:05.301Z</time>
      </trkpt>
      <trkpt lat="51.623990" lon="7.128652">
        <ele>76.971531</ele>
        <time>2025-08-12T10:23:15.763Z</time>
      </trkpt>
      <trkpt lat="51.624355" lon="7.128320">
        <ele>76.791491</ele>
        <time>2025-08-12T10:23:20.379Z</time>
      </trkpt>
      <trkpt lat="51.624654" lon="7.128040">
        <ele>76.621677</ele>
        <time>2025-08-12T10:23:24.136Z</time>
      </trkpt>
      <trkpt lat="51.625009" lon="7.127692">
        <ele>76.417634</ele>
        <time>2025-08-12T10:23:28.572Z</time>
      </trkpt>
      <trkpt lat="51.626228" lon="7.126138">
        <ele>75.778769</ele>
        <time>2025-08-12T10:23:44.771Z</time>
      </trkpt>
      <trkpt lat="51.626305" lon="7.125988">
        <ele>75.742499</ele>
        <time>2025-08-12T10:23:46.031Z</time>
      </trkpt>
      <trkpt lat="51.626384" lon="7.125723">
        <ele>75.687719</ele>
        <time>2025-08-12T10:23:47.960Z</time>
      </trkpt>
      <trkpt lat="51.626410" lon="7.125501">
        <ele>75.645620</ele>
        <time>2025-08-12T10:23:49.463Z</time>
      </trkpt>
      <trkpt lat="51.626424" lon="7.125144">
        <ele>75.578963</ele>
        <time>2025-08-12T10:23:51.894Z</time>
      </trkpt>
      <trkpt lat="51.626431" lon="7.124954">
        <ele>75.543495</ele>
        <time>2025-08-12T10:23:53.216Z</time>
      </trkpt>
      <trkpt lat="51.626350" lon="7.124114">
        <ele>75.580650</ele>
        <time>2025-08-12T10:23:59.688Z</time>
      </trkpt>
      <trkpt lat="51.626182" lon="7.123300">
        <ele>76.052532</ele>
        <time>2025-08-12T10:24:07.245Z</time>
      </trkpt>
      <trkpt lat="51.625830" lon="7.122001">
        <ele>76.832230</ele>
        <time>2025-08-12T10:24:20.926Z</time>
      </trkpt>
      <trkpt lat="51.625772" lon="7.121694">
        <ele>77.008761</ele>
        <time>2025-08-12T10:24:24.189Z</time>
      </trkpt>
      <trkpt lat="51.625742" lon="7.121339">
        <ele>77.254674</ele>
        <time>2025-08-12T10:24:27.872Z</time>
      </trkpt>
      <trkpt lat="51.625629" lon="7.119919">
        <ele>78.258919</ele>
        <time>2025-08-12T10:24:41.797Z</time>
      </trkpt>
      <trkpt lat="51.625613" lon="7.119113">
        <ele>78.824598</ele>
        <time>2025-08-12T10:24:49.395Z</time>
      </trkpt>
      <trkpt lat="51.625623" lon="7.118651">
        <ele>79.118845</ele>
        <time>2025-08-12T10:24:53.628Z</time>
      </trkpt>
      <trkpt lat="51.625628" lon="7.118455">
        <ele>79.209526</ele>
        <time>2025-08-12T10:24:55.378Z</time>
      </trkpt>
      <trkpt lat="51.625637" lon="7.117030">
        <ele>79.868289</ele>
        <time>2025-08-12T10:25:07.735Z</time>
      </trkpt>
      <trkpt lat="51.625408" lon="7.112673">
        <ele>81.846927</ele>
        <time>2025-08-12T10:25:46.199Z</time>
      </trkpt>
      <trkpt lat="51.625375" lon="7.111977">
        <ele>82.206285</ele>
        <time>2025-08-12T10:25:52.440Z</time>
      </trkpt>
      <trkpt lat="51.625370" lon="7.111914">
        <ele>82.238982</ele>
        <time>2025-08-12T10:25:53.013Z</time>
      </trkpt>
      <trkpt lat="51.625353" lon="7.111641">
        <ele>82.380233</ele>
        <time>2025-08-12T10:25:55.486Z</time>
      </trkpt>
      <trkpt lat="51.625248" lon="7.110024">
        <ele>83.208754</ele>
        <time>2025-08-12T10:26:10.418Z</time>
      </trkpt>
      <trkpt lat="51.624923" lon="7.108276">
        <ele>83.974587</ele>
        <time>2025-08-12T10:26:26.335Z</time>
      </trkpt>
      <trkpt lat="51.624720" lon="7.107332">
        <ele>84.393305</ele>
        <time>2025-08-12T10:26:34.765Z</time>
      </trkpt>
      <trkpt lat="51.627668" lon="7.105788">
        <ele>85.701383</ele>
        <time>2025-08-12T10:27:17.558Z</time>
      </trkpt>
      <trkpt lat="51.628565" lon="7.105323">
        <ele>85.134854</ele>
        <time>2025-08-12T10:27:27.059Z</time>
      </trkpt>
      <trkpt lat="51.629082" lon="7.104921">
        <ele>84.323259</ele>
        <time>2025-08-12T10:27:32.262Z</time>
      </trkpt>
      <trkpt lat="51.629582" lon="7.104435">
        <ele>83.497684</ele>
        <time>2025-08-12T10:27:37.479Z</time>
      </trkpt>
      <trkpt lat="51.630428" lon="7.103434">
        <ele>81.863044</ele>
        <time>2025-08-12T10:27:47.051Z</time>
      </trkpt>
      <trkpt lat="51.630983" lon="7.102962">
        <ele>80.866312</ele>
        <time>2025-08-12T10:27:52.896Z</time>
      </trkpt>
      <trkpt lat="51.631576" lon="7.102607">
        <ele>79.808980</ele>
        <time>2025-08-12T10:27:58.586Z</time>
      </trkpt>
      <trkpt lat="51.633574" lon="7.101615">
        <ele>76.282991</ele>
        <time>2025-08-12T10:28:17.256Z</time>
      </trkpt>
      <trkpt lat="51.634177" lon="7.101321">
        <ele>75.315893</ele>
        <time>2025-08-12T10:28:23.114Z</time>
      </trkpt>
      <trkpt lat="51.635170" lon="7.100836">
        <ele>73.937465</ele>
        <time>2025-08-12T10:28:32.865Z</time>
      </trkpt>
      <trkpt lat="51.636108" lon="7.100376">
        <ele>72.864580</ele>
        <time>2025-08-12T10:28:42.312Z</time>
      </trkpt>
      <trkpt lat="51.636573" lon="7.100211">
        <ele>72.447634</ele>
        <time>2025-08-12T10:28:47.073Z</time>
      </trkpt>
      <trkpt lat="51.637163" lon="7.100098">
        <ele>72.225907</ele>
        <time>2025-08-12T10:28:53.323Z</time>
      </trkpt>
      <trkpt lat="51.637998" lon="7.100066">
        <ele>71.914212</ele>
        <time>2025-08-12T10:29:02.628Z</time>
      </trkpt>
      <trkpt lat="51.638964" lon="7.100186">
        <ele>71.700958</ele>
        <time>2025-08-12T10:29:14.209Z</time>
      </trkpt>
      <trkpt lat="51.639295" lon="7.100307">
        <ele>71.641960</ele>
        <time>2025-08-12T10:29:18.122Z</time>
      </trkpt>
      <trkpt lat="51.639619" lon="7.100377">
        <ele>71.585137</ele>
        <time>2025-08-12T10:29:21.651Z</time>
      </trkpt>
      <trkpt lat="51.639896" lon="7.100418">
        <ele>71.536785</ele>
        <time>2025-08-12T10:29:24.693Z</time>
      </trkpt>
      <trkpt lat="51.640136" lon="7.100453">
        <ele>71.543357</ele>
        <time>2025-08-12T10:29:27.367Z</time>
      </trkpt>
      <trkpt lat="51.640239" lon="7.100301">
        <ele>71.570844</ele>
        <time>2025-08-12T10:29:28.916Z</time>
      </trkpt>
      <trkpt lat="51.640365" lon="7.100115">
        <ele>71.604473</ele>
        <time>2025-08-12T10:29:30.791Z</time>
      </trkpt>
      <trkpt lat="51.640554" lon="7.099835">
        <ele>71.655000</ele>
        <time>2025-08-12T10:29:33.669Z</time>
      </trkpt>
      <trkpt lat="51.640693" lon="7.099639">
        <ele>71.691350</ele>
        <time>2025-08-12T10:29:35.797Z</time>
      </trkpt>
      <trkpt lat="51.641194" lon="7.099003">
        <ele>71.816868</ele>
        <time>2025-08-12T10:29:43.999Z</time>
      </trkpt>
      <trkpt lat="51.641479" lon="7.098649">
        <ele>71.926774</ele>
        <time>2025-08-12T10:29:49.523Z</time>
      </trkpt>
      <trkpt lat="51.642522" lon="7.097353">
        <ele>72.815761</ele>
        <time>2025-08-12T10:30:09.258Z</time>
      </trkpt>
      <trkpt lat="51.642635" lon="7.097219">
        <ele>72.910459</ele>
        <time>2025-08-12T10:30:11.151Z</time>
      </trkpt>
      <trkpt lat="51.642966" lon="7.096759">
        <ele>72.950978</ele>
        <time>2025-08-12T10:30:16.535Z</time>
      </trkpt>
      <trkpt lat="51.643326" lon="7.096247">
        <ele>72.586870</ele>
        <time>2025-08-12T10:30:21.487Z</time>
      </trkpt>
      <trkpt lat="51.643527" lon="7.095950">
        <ele>72.380073</ele>
        <time>2025-08-12T10:30:24.125Z</time>
      </trkpt>
      <trkpt lat="51.644022" lon="7.095053">
        <ele>71.815212</ele>
        <time>2025-08-12T10:30:31.372Z</time>
      </trkpt>
      <trkpt lat="51.644472" lon="7.094101">
        <ele>70.808666</ele>
        <time>2025-08-12T10:30:38.440Z</time>
      </trkpt>
      <trkpt lat="51.644774" lon="7.093376">
        <ele>70.009822</ele>
        <time>2025-08-12T10:30:43.448Z</time>
      </trkpt>
      <trkpt lat="51.645058" lon="7.092563">
        <ele>69.156303</ele>
        <time>2025-08-12T10:30:48.668Z</time>
      </trkpt>
      <trkpt lat="51.645298" lon="7.091796">
        <ele>68.312272</ele>
        <time>2025-08-12T10:30:53.401Z</time>
      </trkpt>
      <trkpt lat="51.645319" lon="7.091734">
        <ele>68.242277</ele>
        <time>2025-08-12T10:30:53.793Z</time>
      </trkpt>
      <trkpt lat="51.645401" lon="7.091446">
        <ele>67.928281</ele>
        <time>2025-08-12T10:30:55.528Z</time>
      </trkpt>
      <trkpt lat="51.645448" lon="7.091282">
        <ele>67.749274</ele>
        <time>2025-08-12T10:30:56.513Z</time>
      </trkpt>
      <trkpt lat="51.645565" lon="7.090878">
        <ele>67.307486</ele>
        <time>2025-08-12T10:30:58.967Z</time>
      </trkpt>
      <trkpt lat="51.645578" lon="7.090834">
        <ele>67.259195</ele>
        <time>2025-08-12T10:30:59.242Z</time>
      </trkpt>
      <trkpt lat="51.646232" lon="7.088404">
        <ele>64.933257</ele>
        <time>2025-08-12T10:31:14.886Z</time>
      </trkpt>
      <trkpt lat="51.646447" lon="7.087605">
        <ele>64.235200</ele>
        <time>2025-08-12T10:31:22.162Z</time>
      </trkpt>
      <trkpt lat="51.646613" lon="7.086995">
        <ele>63.665145</ele>
        <time>2025-08-12T10:31:27.632Z</time>
      </trkpt>
      <trkpt lat="51.646682" lon="7.086739">
        <ele>63.394670</ele>
        <time>2025-08-12T10:31:29.936Z</time>
      </trkpt>
      <trkpt lat="51.646900" lon="7.085849">
        <ele>62.467435</ele>
        <time>2025-08-12T10:31:37.695Z</time>
      </trkpt>
      <trkpt lat="51.646920" lon="7.085775">
        <ele>62.389217</ele>
        <time>2025-08-12T10:31:38.337Z</time>
      </trkpt>
      <trkpt lat="51.646929" lon="7.085722">
        <ele>62.335968</ele>
        <time>2025-08-12T10:31:38.782Z</time>
      </trkpt>
      <trkpt lat="51.646983" lon="7.085392">
        <ele>62.005245</ele>
        <time>2025-08-12T10:31:41.511Z</time>
      </trkpt>
      <trkpt lat="51.647081" lon="7.084748">
        <ele>61.362676</ele>
        <time>2025-08-12T10:31:46.837Z</time>
      </trkpt>
      <trkpt lat="51.647095" lon="7.084612">
        <ele>61.229083</ele>
        <time>2025-08-12T10:31:47.950Z</time>
      </trkpt>
      <trkpt lat="51.647187" lon="7.083527">
        <ele>60.253764</ele>
        <time>2025-08-12T10:31:56.900Z</time>
      </trkpt>
      <trkpt lat="51.647223" lon="7.082725">
        <ele>59.549117</ele>
        <time>2025-08-12T10:32:03.458Z</time>
      </trkpt>
      <trkpt lat="51.647223" lon="7.082291">
        <ele>59.168793</ele>
        <time>2025-08-12T10:32:05.911Z</time>
      </trkpt>
      <trkpt lat="51.647127" lon="7.081652">
        <ele>58.592643</ele>
        <time>2025-08-12T10:32:09.722Z</time>
      </trkpt>
      <trkpt lat="51.646907" lon="7.080875">
        <ele>58.373296</ele>
        <time>2025-08-12T10:32:15.038Z</time>
      </trkpt>
      <trkpt lat="51.646678" lon="7.080247">
        <ele>58.230955</ele>
        <time>2025-08-12T10:32:19.844Z</time>
      </trkpt>
      <trkpt lat="51.646534" lon="7.079887">
        <ele>58.147256</ele>
        <time>2025-08-12T10:32:22.778Z</time>
      </trkpt>
      <trkpt lat="51.646397" lon="7.079533">
        <ele>58.065728</ele>
        <time>2025-08-12T10:32:25.935Z</time>
      </trkpt>
      <trkpt lat="51.646147" lon="7.078930">
        <ele>58.013063</ele>
        <time>2025-08-12T10:32:31.975Z</time>
      </trkpt>
      <trkpt lat="51.646058" lon="7.078702">
        <ele>58.095544</ele>
        <time>2025-08-12T10:32:34.355Z</time>
      </trkpt>
      <trkpt lat="51.645860" lon="7.078198">
        <ele>58.278205</ele>
        <time>2025-08-12T10:32:39.545Z</time>
      </trkpt>
      <trkpt lat="51.645773" lon="7.077972">
        <ele>58.359644</ele>
        <time>2025-08-12T10:32:41.773Z</time>
      </trkpt>
      <trkpt lat="51.645716" lon="7.077826">
        <ele>58.412464</ele>
        <time>2025-08-12T10:32:43.195Z</time>
      </trkpt>
      <trkpt lat="51.645633" lon="7.077615">
        <ele>58.488963</ele>
        <time>2025-08-12T10:32:46.018Z</time>
      </trkpt>
      <trkpt lat="51.645544" lon="7.077395">
        <ele>58.569382</ele>
        <time>2025-08-12T10:32:49.054Z</time>
      </trkpt>
      <trkpt lat="51.645401" lon="7.077111">
        <ele>58.681376</ele>
        <time>2025-08-12T10:32:53.245Z</time>
      </trkpt>
      <trkpt lat="51.645203" lon="7.076788">
        <ele>58.820407</ele>
        <time>2025-08-12T10:32:58.255Z</time>
      </trkpt>
      <trkpt lat="51.645066" lon="7.076592">
        <ele>58.798871</ele>
        <time>2025-08-12T10:33:01.361Z</time>
      </trkpt>
      <trkpt lat="51.644987" lon="7.076287">
        <ele>58.724490</ele>
        <time>2025-08-12T10:33:04.700Z</time>
      </trkpt>
      <trkpt lat="51.645032" lon="7.075994">
        <ele>58.656560</ele>
        <time>2025-08-12T10:33:07.684Z</time>
      </trkpt>
      <trkpt lat="51.645582" lon="7.075215">
        <ele>58.390994</ele>
        <time>2025-08-12T10:33:15.585Z</time>
      </trkpt>
      <trkpt lat="51.645797" lon="7.074929">
        <ele>58.289885</ele>
        <time>2025-08-12T10:33:18.440Z</time>
      </trkpt>
      <trkpt lat="51.646083" lon="7.074518">
        <ele>58.064183</ele>
        <time>2025-08-12T10:33:22.215Z</time>
      </trkpt>
      <trkpt lat="51.646118" lon="7.074466">
        <ele>58.012139</ele>
        <time>2025-08-12T10:33:22.689Z</time>
      </trkpt>
      <trkpt lat="51.648384" lon="7.071173">
        <ele>54.776978</ele>
        <time>2025-08-12T10:33:51.936Z</time>
      </trkpt>
      <trkpt lat="51.648907" lon="7.070303">
        <ele>54.092220</ele>
        <time>2025-08-12T10:33:59.631Z</time>
      </trkpt>
      <trkpt lat="51.649226" lon="7.069678">
        <ele>53.691832</ele>
        <time>2025-08-12T10:34:04.853Z</time>
      </trkpt>
      <trkpt lat="51.649566" lon="7.068919">
        <ele>53.228689</ele>
        <time>2025-08-12T10:34:10.732Z</time>
      </trkpt>
      <trkpt lat="51.650650" lon="7.066313">
        <ele>51.480032</ele>
        <time>2025-08-12T10:34:29.838Z</time>
      </trkpt>
      <trkpt lat="51.651743" lon="7.063630">
        <ele>49.978532</ele>
        <time>2025-08-12T10:34:50.250Z</time>
      </trkpt>
      <trkpt lat="51.651999" lon="7.062913">
        <ele>49.613415</ele>
        <time>2025-08-12T10:34:55.396Z</time>
      </trkpt>
      <trkpt lat="51.652290" lon="7.061921">
        <ele>49.129210</ele>
        <time>2025-08-12T10:35:02.145Z</time>
      </trkpt>
      <trkpt lat="51.652648" lon="7.060292">
        <ele>48.698235</ele>
        <time>2025-08-12T10:35:13.379Z</time>
      </trkpt>
      <trkpt lat="51.652701" lon="7.059915">
        <ele>48.698836</ele>
        <time>2025-08-12T10:35:16.203Z</time>
      </trkpt>
      <trkpt lat="51.652730" lon="7.059661">
        <ele>48.699238</ele>
        <time>2025-08-12T10:35:18.158Z</time>
      </trkpt>
      <trkpt lat="51.652818" lon="7.058874">
        <ele>48.700483</ele>
        <time>2025-08-12T10:35:24.526Z</time>
      </trkpt>
      <trkpt lat="51.652890" lon="7.058067">
        <ele>48.704146</ele>
        <time>2025-08-12T10:35:31.199Z</time>
      </trkpt>
      <trkpt lat="51.652932" lon="7.057605">
        <ele>48.715072</ele>
        <time>2025-08-12T10:35:35.016Z</time>
      </trkpt>
      <trkpt lat="51.653141" lon="7.055235">
        <ele>48.759635</ele>
        <time>2025-08-12T10:35:52.292Z</time>
      </trkpt>
      <trkpt lat="51.653311" lon="7.053173">
        <ele>48.474332</ele>
        <time>2025-08-12T10:36:06.862Z</time>
      </trkpt>
      <trkpt lat="51.653350" lon="7.052700">
        <ele>48.408886</ele>
        <time>2025-08-12T10:36:10.171Z</time>
      </trkpt>
      <trkpt lat="51.653523" lon="7.050619">
        <ele>48.500620</ele>
        <time>2025-08-12T10:36:24.723Z</time>
      </trkpt>
      <trkpt lat="51.653618" lon="7.049474">
        <ele>48.597015</ele>
        <time>2025-08-12T10:36:34.500Z</time>
      </trkpt>
      <trkpt lat="51.653696" lon="7.048541">
        <ele>48.829362</ele>
        <time>2025-08-12T10:36:43.137Z</time>
      </trkpt>
      <trkpt lat="51.653735" lon="7.048072">
        <ele>48.946148</ele>
        <time>2025-08-12T10:36:47.618Z</time>
      </trkpt>
      <trkpt lat="51.653743" lon="7.047980">
        <ele>48.969075</ele>
        <time>2025-08-12T10:36:48.467Z</time>
      </trkpt>
      <trkpt lat="51.653748" lon="7.047915">
        <ele>48.985240</ele>
        <time>2025-08-12T10:36:49.081Z</time>
      </trkpt>
      <trkpt lat="51.653874" lon="7.046404">
        <ele>49.104740</ele>
        <time>2025-08-12T10:37:00.212Z</time>
      </trkpt>
      <trkpt lat="51.653908" lon="7.046000">
        <ele>48.836396</ele>
        <time>2025-08-12T10:37:02.718Z</time>
      </trkpt>
      <trkpt lat="51.653937" lon="7.045645">
        <ele>48.600721</ele>
        <time>2025-08-12T10:37:04.867Z</time>
      </trkpt>
      <trkpt lat="51.653953" lon="7.045476">
        <ele>48.488199</ele>
        <time>2025-08-12T10:37:05.850Z</time>
      </trkpt>
      <trkpt lat="51.653990" lon="7.045006">
        <ele>48.176370</ele>
        <time>2025-08-12T10:37:08.571Z</time>
      </trkpt>
      <trkpt lat="51.654053" lon="7.044268">
        <ele>47.686049</ele>
        <time>2025-08-12T10:37:12.817Z</time>
      </trkpt>
      <trkpt lat="51.654092" lon="7.043792">
        <ele>47.369802</ele>
        <time>2025-08-12T10:37:15.623Z</time>
      </trkpt>
      <trkpt lat="51.654223" lon="7.042218">
        <ele>46.306504</ele>
        <time>2025-08-12T10:37:25.184Z</time>
      </trkpt>
      <trkpt lat="51.654338" lon="7.040907">
        <ele>45.427791</ele>
        <time>2025-08-12T10:37:33.140Z</time>
      </trkpt>
      <trkpt lat="51.654566" lon="7.038160">
        <ele>44.222399</ele>
        <time>2025-08-12T10:37:50.328Z</time>
      </trkpt>
      <trkpt lat="51.654613" lon="7.037542">
        <ele>44.206744</ele>
        <time>2025-08-12T10:37:55.267Z</time>
      </trkpt>
      <trkpt lat="51.654668" lon="7.036912">
        <ele>44.237398</ele>
        <time>2025-08-12T10:38:00.718Z</time>
      </trkpt>
      <trkpt lat="51.654974" lon="7.036631">
        <ele>44.264750</ele>
        <time>2025-08-12T10:38:05.642Z</time>
      </trkpt>
      <trkpt lat="51.655565" lon="7.036071">
        <ele>44.317993</ele>
        <time>2025-08-12T10:38:14.512Z</time>
      </trkpt>
      <trkpt lat="51.657701" lon="7.034066">
        <ele>41.295872</ele>
        <time>2025-08-12T10:38:37.724Z</time>
      </trkpt>
      <trkpt lat="51.659982" lon="7.031907">
        <ele>37.745130</ele>
        <time>2025-08-12T10:39:01.424Z</time>
      </trkpt>
      <trkpt lat="51.660851" lon="7.031091">
        <ele>37.793456</ele>
        <time>2025-08-12T10:39:16.666Z</time>
      </trkpt>
      <trkpt lat="51.661066" lon="7.030865">
        <ele>37.946380</ele>
        <time>2025-08-12T10:39:21.064Z</time>
      </trkpt>
      <trkpt lat="51.661037" lon="7.030787">
        <ele>37.979989</ele>
        <time>2025-08-12T10:39:21.990Z</time>
      </trkpt>
      <trkpt lat="51.662787" lon="7.029228">
        <ele>38.461174</ele>
        <time>2025-08-12T10:39:47.107Z</time>
      </trkpt>
      <trkpt lat="51.662846" lon="7.029204">
        <ele>38.461480</ele>
        <time>2025-08-12T10:39:47.775Z</time>
      </trkpt>
      <trkpt lat="51.662909" lon="7.029227">
        <ele>38.461804</ele>
        <time>2025-08-12T10:39:48.453Z</time>
      </trkpt>
      <trkpt lat="51.664697" lon="7.027654">
        <ele>37.724674</ele>
        <time>2025-08-12T10:40:10.354Z</time>
      </trkpt>
      <trkpt lat="51.665146" lon="7.027316">
        <ele>37.448541</ele>
        <time>2025-08-12T10:40:15.516Z</time>
      </trkpt>
      <trkpt lat="51.665254" lon="7.027319">
        <ele>37.380210</ele>
        <time>2025-08-12T10:40:17.057Z</time>
      </trkpt>
      <trkpt lat="51.665255" lon="7.027209">
        <ele>37.337043</ele>
        <time>2025-08-12T10:40:17.758Z</time>
      </trkpt>
      <trkpt lat="51.665257" lon="7.027102">
        <ele>37.295040</ele>
        <time>2025-08-12T10:40:18.419Z</time>
      </trkpt>
      <trkpt lat="51.665509" lon="7.027066">
        <ele>37.134998</ele>
        <time>2025-08-12T10:40:20.936Z</time>
      </trkpt>
      <trkpt lat="51.665841" lon="7.026925">
        <ele>36.917807</ele>
        <time>2025-08-12T10:40:24.240Z</time>
      </trkpt>
      <trkpt lat="51.666289" lon="7.026534">
        <ele>36.595538</ele>
        <time>2025-08-12T10:40:29.237Z</time>
      </trkpt>
      <trkpt lat="51.666952" lon="7.025871">
        <ele>36.693774</ele>
        <time>2025-08-12T10:40:39.488Z</time>
      </trkpt>
      <trkpt lat="51.667378" lon="7.025401">
        <ele>36.882843</ele>
        <time>2025-08-12T10:40:46.908Z</time>
      </trkpt>
      <trkpt lat="51.667684" lon="7.024959">
        <ele>37.033323</ele>
        <time>2025-08-12T10:40:52.710Z</time>
      </trkpt>
      <trkpt lat="51.668068" lon="7.024477">
        <ele>37.012697</ele>
        <time>2025-08-12T10:40:59.215Z</time>
      </trkpt>
      <trkpt lat="51.669025" lon="7.023520">
        <ele>36.345727</ele>
        <time>2025-08-12T10:41:10.208Z</time>
      </trkpt>
      <trkpt lat="51.668967" lon="7.023379">
        <ele>36.283577</ele>
        <time>2025-08-12T10:41:11.225Z</time>
      </trkpt>
      <trkpt lat="51.668412" lon="7.022030">
        <ele>35.833857</ele>
        <time>2025-08-12T10:41:21.872Z</time>
      </trkpt>
      <trkpt lat="51.667929" lon="7.020859">
        <ele>35.513585</ele>
        <time>2025-08-12T10:41:31.892Z</time>
      </trkpt>
      <trkpt lat="51.664849" lon="7.013383">
        <ele>33.044417</ele>
        <time>2025-08-12T10:42:30.676Z</time>
      </trkpt>
      <trkpt lat="51.663414" lon="7.009900">
        <ele>34.432178</ele>
        <time>2025-08-12T10:43:07.831Z</time>
      </trkpt>
      <trkpt lat="51.663374" lon="7.009799">
        <ele>34.461012</ele>
        <time>2025-08-12T10:43:08.831Z</time>
      </trkpt>
      <trkpt lat="51.663313" lon="7.009594">
        <ele>34.515721</ele>
        <time>2025-08-12T10:43:10.741Z</time>
      </trkpt>
      <trkpt lat="51.663279" lon="7.009279">
        <ele>34.592656</ele>
        <time>2025-08-12T10:43:13.378Z</time>
      </trkpt>
      <trkpt lat="51.663358" lon="7.007787">
        <ele>34.770117</ele>
        <time>2025-08-12T10:43:24.569Z</time>
      </trkpt>
      <trkpt lat="51.663410" lon="7.007001">
        <ele>34.565267</ele>
        <time>2025-08-12T10:43:30.010Z</time>
      </trkpt>
      <trkpt lat="51.663466" lon="7.003701">
        <ele>33.411901</ele>
        <time>2025-08-12T10:43:51.112Z</time>
      </trkpt>
      <trkpt lat="51.663466" lon="7.003640">
        <ele>33.384431</ele>
        <time>2025-08-12T10:43:51.473Z</time>
      </trkpt>
      <trkpt lat="51.663027" lon="7.003686">
        <ele>33.065030</ele>
        <time>2025-08-12T10:43:55.942Z</time>
      </trkpt>
      <trkpt lat="51.663030" lon="7.003502">
        <ele>32.982137</ele>
        <time>2025-08-12T10:43:57.143Z</time>
      </trkpt>
      <trkpt lat="51.662805" lon="7.003493">
        <ele>32.818729</ele>
        <time>2025-08-12T10:44:12.715Z</time>
      </trkpt>
      <trkpt lat="51.662802" lon="7.003702">
        <ele>32.766722</ele>
        <time>2025-08-12T10:44:21.716Z</time>
      </trkpt>
      <trkpt lat="51.662762" lon="7.003700">
        <ele>32.752417</ele>
        <time>2025-08-12T10:44:25.118Z</time>
      </trkpt>
      <trkpt lat="51.662492" lon="7.003689">
        <ele>32.655879</ele>
        <time>2025-08-12T10:44:48.454Z</time>
      </trkpt>
      <trkpt lat="51.662209" lon="7.003678">
        <ele>32.554695</ele>
        <time>2025-08-12T10:45:12.976Z</time>
      </trkpt>
      <trkpt lat="51.662076" lon="7.003672">
        <ele>32.507138</ele>
        <time>2025-08-12T10:45:14.344Z</time>
      </trkpt>
      <trkpt lat="51.661809" lon="7.003665">
        <ele>32.411690</ele>
        <time>2025-08-12T10:45:17.192Z</time>
      </trkpt>
      <trkpt lat="51.661562" lon="7.002994">
        <ele>32.238692</ele>
        <time>2025-08-12T10:45:22.802Z</time>
      </trkpt>
      <trkpt lat="51.661536" lon="7.002958">
        <ele>32.226442</ele>
        <time>2025-08-12T10:45:23.374Z</time>
      </trkpt>
      <trkpt lat="51.661278" lon="7.002946">
        <ele>32.234768</ele>
        <time>2025-08-12T10:45:27.731Z</time>
      </trkpt>
      <trkpt lat="51.660967" lon="7.002969">
        <ele>32.490442</ele>
        <time>2025-08-12T10:45:33.165Z</time>
      </trkpt>
      <trkpt lat="51.660031" lon="7.003040">
        <ele>33.259972</ele>
        <time>2025-08-12T10:45:51.848Z</time>
      </trkpt>
      <trkpt lat="51.659490" lon="7.003083">
        <ele>33.655694</ele>
        <time>2025-08-12T10:46:02.425Z</time>
      </trkpt>
      <trkpt lat="51.659470" lon="7.003083">
        <ele>33.659315</ele>
        <time>2025-08-12T10:46:02.794Z</time>
      </trkpt>
      <trkpt lat="51.658841" lon="7.003131">
        <ele>33.773341</ele>
        <time>2025-08-12T10:46:13.685Z</time>
      </trkpt>
      <trkpt lat="51.658799" lon="7.003657">
        <ele>33.832915</ele>
        <time>2025-08-12T10:46:19.145Z</time>
      </trkpt>
      <trkpt lat="51.658759" lon="7.004155">
        <ele>33.889323</ele>
        <time>2025-08-12T10:46:24.006Z</time>
      </trkpt>
      <trkpt lat="51.658728" lon="7.004541">
        <ele>33.933045</ele>
        <time>2025-08-12T10:46:27.693Z</time>
      </trkpt>
      <trkpt lat="51.658722" lon="7.004608">
        <ele>33.940649</ele>
        <time>2025-08-12T10:46:28.362Z</time>
      </trkpt>
      <trkpt lat="51.658681" lon="7.005125">
        <ele>33.971521</ele>
        <time>2025-08-12T10:46:33.311Z</time>
      </trkpt>
      <trkpt lat="51.658645" lon="7.005566">
        <ele>33.977860</ele>
        <time>2025-08-12T10:46:37.642Z</time>
      </trkpt>
      <trkpt lat="51.658607" lon="7.006043">
        <ele>33.984715</ele>
        <time>2025-08-12T10:46:42.666Z</time>
      </trkpt>
      <trkpt lat="51.658591" lon="7.006251">
        <ele>33.987702</ele>
        <time>2025-08-12T10:46:44.916Z</time>
      </trkpt>
      <trkpt lat="51.658452" lon="7.007980">
        <ele>34.055742</ele>
        <time>2025-08-12T10:47:02.721Z</time>
      </trkpt>
      <trkpt lat="51.658397" lon="7.008659">
        <ele>34.178589</ele>
        <time>2025-08-12T10:47:09.836Z</time>
      </trkpt>
      <trkpt lat="51.658357" lon="7.009162">
        <ele>34.269566</ele>
        <time>2025-08-12T10:47:15.175Z</time>
      </trkpt>
      <trkpt lat="51.658164" lon="7.011776">
        <ele>34.583416</ele>
        <time>2025-08-12T10:47:43.643Z</time>
      </trkpt>
      <trkpt lat="51.658174" lon="7.012338">
        <ele>34.609212</ele>
        <time>2025-08-12T10:47:49.445Z</time>
      </trkpt>
      <trkpt lat="51.658248" lon="7.012880">
        <ele>34.634676</ele>
        <time>2025-08-12T10:47:54.853Z</time>
      </trkpt>
      <trkpt lat="51.658484" lon="7.013782">
        <ele>34.888305</ele>
        <time>2025-08-12T10:48:03.936Z</time>
      </trkpt>
      <trkpt lat="51.658162" lon="7.013741">
        <ele>35.195783</ele>
        <time>2025-08-12T10:48:07.417Z</time>
      </trkpt>
      <trkpt lat="51.657754" lon="7.013759">
        <ele>35.584317</ele>
        <time>2025-08-12T10:48:12.515Z</time>
      </trkpt>
      <trkpt lat="51.657367" lon="7.013768">
        <ele>35.952754</ele>
        <time>2025-08-12T10:48:19.387Z</time>
      </trkpt>
      <trkpt lat="51.656934" lon="7.013786">
        <ele>36.365079</ele>
        <time>2025-08-12T10:48:28.315Z</time>
      </trkpt>
      <trkpt lat="51.656754" lon="7.013814">
        <ele>36.446836</ele>
        <time>2025-08-12T10:48:31.928Z</time>
      </trkpt>
      <trkpt lat="51.656582" lon="7.013759">
        <ele>36.521211</ele>
        <time>2025-08-12T10:48:35.320Z</time>
      </trkpt>
      <trkpt lat="51.656497" lon="7.013650">
        <ele>36.567280</ele>
        <time>2025-08-12T10:48:37.322Z</time>
      </trkpt>
      <trkpt lat="51.656418" lon="7.013633">
        <ele>36.601085</ele>
        <time>2025-08-12T10:48:38.821Z</time>
      </trkpt>
      <trkpt lat="51.656273" lon="7.013590">
        <ele>36.663618</ele>
        <time>2025-08-12T10:48:41.426Z</time>
      </trkpt>
      <trkpt lat="51.656224" lon="7.013539">
        <ele>36.688357</ele>
        <time>2025-08-12T10:48:42.381Z</time>
      </trkpt>
      <trkpt lat="51.656194" lon="7.013412">
        <ele>36.724115</ele>
        <time>2025-08-12T10:48:43.799Z</time>
      </trkpt>
      <trkpt lat="51.656200" lon="7.013281">
        <ele>36.758679</ele>
        <time>2025-08-12T10:48:45.039Z</time>
      </trkpt>
      <trkpt lat="51.656322" lon="7.012907">
        <ele>36.869865</ele>
        <time>2025-08-12T10:48:48.845Z</time>
      </trkpt>
      <trkpt lat="51.656355" lon="7.012713">
        <ele>36.922796</ele>
        <time>2025-08-12T10:48:50.403Z</time>
      </trkpt>
      <trkpt lat="51.656377" lon="7.012266">
        <ele>37.040784</ele>
        <time>2025-08-12T10:48:53.122Z</time>
      </trkpt>
      <trkpt lat="51.656338" lon="7.011807">
        <ele>36.990587</ele>
        <time>2025-08-12T10:48:55.521Z</time>
      </trkpt>
      <trkpt lat="51.656290" lon="7.011622">
        <ele>36.688679</ele>
        <time>2025-08-12T10:48:56.513Z</time>
      </trkpt>
      <trkpt lat="51.656140" lon="7.011347">
        <ele>36.137373</ele>
        <time>2025-08-12T10:48:58.312Z</time>
      </trkpt>
      <trkpt lat="51.656005" lon="7.011223">
        <ele>35.760290</ele>
        <time>2025-08-12T10:48:59.549Z</time>
      </trkpt>
      <trkpt lat="51.655840" lon="7.011143">
        <ele>35.342137</ele>
        <time>2025-08-12T10:49:00.918Z</time>
      </trkpt>
      <trkpt lat="51.655304" lon="7.011053">
        <ele>34.034305</ele>
        <time>2025-08-12T10:49:05.327Z</time>
      </trkpt>
      <trkpt lat="51.655112" lon="7.011119">
        <ele>33.557871</ele>
        <time>2025-08-12T10:49:07.022Z</time>
      </trkpt>
      <trkpt lat="51.654798" lon="7.011361">
        <ele>32.765271</ele>
        <time>2025-08-12T10:49:10.217Z</time>
      </trkpt>
      <trkpt lat="51.654541" lon="7.011774">
        <ele>32.663909</ele>
        <time>2025-08-12T10:49:14.176Z</time>
      </trkpt>
      <trkpt lat="51.654467" lon="7.011957">
        <ele>32.626057</ele>
        <time>2025-08-12T10:49:15.830Z</time>
      </trkpt>
      <trkpt lat="51.654281" lon="7.012637">
        <ele>32.497279</ele>
        <time>2025-08-12T10:49:21.641Z</time>
      </trkpt>
      <trkpt lat="51.654174" lon="7.012853">
        <ele>32.449382</ele>
        <time>2025-08-12T10:49:23.813Z</time>
      </trkpt>
      <trkpt lat="51.654044" lon="7.013044">
        <ele>32.400251</ele>
        <time>2025-08-12T10:49:26.032Z</time>
      </trkpt>
      <trkpt lat="51.653978" lon="7.013100">
        <ele>32.379419</ele>
        <time>2025-08-12T10:49:26.981Z</time>
      </trkpt>
      <trkpt lat="51.653823" lon="7.013230">
        <ele>32.330616</ele>
        <time>2025-08-12T10:49:29.095Z</time>
      </trkpt>
      <trkpt lat="51.653180" lon="7.013592">
        <ele>32.026097</ele>
        <time>2025-08-12T10:49:36.475Z</time>
      </trkpt>
      <trkpt lat="51.652689" lon="7.013989">
        <ele>31.737044</ele>
        <time>2025-08-12T10:49:41.746Z</time>
      </trkpt>
      <trkpt lat="51.652252" lon="7.014527">
        <ele>31.447686</ele>
        <time>2025-08-12T10:49:47.402Z</time>
      </trkpt>
      <trkpt lat="51.652030" lon="7.014965">
        <ele>31.379124</ele>
        <time>2025-08-12T10:49:51.427Z</time>
      </trkpt>
      <trkpt lat="51.651761" lon="7.015725">
        <ele>31.644566</ele>
        <time>2025-08-12T10:49:58.277Z</time>
      </trkpt>
      <trkpt lat="51.651671" lon="7.015848">
        <ele>31.702263</ele>
        <time>2025-08-12T10:49:59.878Z</time>
      </trkpt>
      <trkpt lat="51.651499" lon="7.015972">
        <ele>31.794394</ele>
        <time>2025-08-12T10:50:02.552Z</time>
      </trkpt>
      <trkpt lat="51.651138" lon="7.016088">
        <ele>31.974384</ele>
        <time>2025-08-12T10:50:07.904Z</time>
      </trkpt>
      <trkpt lat="51.650930" lon="7.016244">
        <ele>32.086560</ele>
        <time>2025-08-12T10:50:11.295Z</time>
      </trkpt>
      <trkpt lat="51.650708" lon="7.016547">
        <ele>32.236579</ele>
        <time>2025-08-12T10:50:15.574Z</time>
      </trkpt>
      <trkpt lat="51.650561" lon="7.016857">
        <ele>32.390184</ele>
        <time>2025-08-12T10:50:19.082Z</time>
      </trkpt>
      <trkpt lat="51.650391" lon="7.017628">
        <ele>32.712315</ele>
        <time>2025-08-12T10:50:26.211Z</time>
      </trkpt>
      <trkpt lat="51.650311" lon="7.017812">
        <ele>32.800769</ele>
        <time>2025-08-12T10:50:28.121Z</time>
      </trkpt>
      <trkpt lat="51.650124" lon="7.018020">
        <ele>32.944938</ele>
        <time>2025-08-12T10:50:31.209Z</time>
      </trkpt>
      <trkpt lat="51.649682" lon="7.018109">
        <ele>33.227573</ele>
        <time>2025-08-12T10:50:37.312Z</time>
      </trkpt>
      <trkpt lat="51.649550" lon="7.018169">
        <ele>33.314597</ele>
        <time>2025-08-12T10:50:39.177Z</time>
      </trkpt>
      <trkpt lat="51.649388" lon="7.018321">
        <ele>33.466000</ele>
        <time>2025-08-12T10:50:41.691Z</time>
      </trkpt>
      <trkpt lat="51.649263" lon="7.018507">
        <ele>33.613063</ele>
        <time>2025-08-12T10:50:43.968Z</time>
      </trkpt>
      <trkpt lat="51.649161" lon="7.018794">
        <ele>33.790459</ele>
        <time>2025-08-12T10:50:46.726Z</time>
      </trkpt>
      <trkpt lat="51.649105" lon="7.019132">
        <ele>33.978098</ele>
        <time>2025-08-12T10:50:49.703Z</time>
      </trkpt>
      <trkpt lat="51.648945" lon="7.020894">
        <ele>34.950488</ele>
        <time>2025-08-12T10:51:06.426Z</time>
      </trkpt>
      <trkpt lat="51.648916" lon="7.021206">
        <ele>35.204433</ele>
        <time>2025-08-12T10:51:09.578Z</time>
      </trkpt>
      <trkpt lat="51.648794" lon="7.021686">
        <ele>35.621966</ele>
        <time>2025-08-12T10:51:14.800Z</time>
      </trkpt>
      <trkpt lat="51.648544" lon="7.022189">
        <ele>36.140734</ele>
        <time>2025-08-12T10:51:21.300Z</time>
      </trkpt>
      <trkpt lat="51.648382" lon="7.022386">
        <ele>36.404009</ele>
        <time>2025-08-12T10:51:24.627Z</time>
      </trkpt>
      <trkpt lat="51.647820" lon="7.022733">
        <ele>37.184763</ele>
        <time>2025-08-12T10:51:34.460Z</time>
      </trkpt>
      <trkpt lat="51.647463" lon="7.022855">
        <ele>37.597041</ele>
        <time>2025-08-12T10:51:40.237Z</time>
      </trkpt>
      <trkpt lat="51.646835" lon="7.022965">
        <ele>38.298924</ele>
        <time>2025-08-12T10:51:50.065Z</time>
      </trkpt>
      <trkpt lat="51.646126" lon="7.022963">
        <ele>39.086698</ele>
        <time>2025-08-12T10:52:00.963Z</time>
      </trkpt>
      <trkpt lat="51.645928" lon="7.023005">
        <ele>39.259587</ele>
        <time>2025-08-12T10:52:03.951Z</time>
      </trkpt>
      <trkpt lat="51.645781" lon="7.023098">
        <ele>39.324830</ele>
        <time>2025-08-12T10:52:06.281Z</time>
      </trkpt>
      <trkpt lat="51.644678" lon="7.023964">
        <ele>39.831720</ele>
        <time>2025-08-12T10:52:22.907Z</time>
      </trkpt>
      <trkpt lat="51.642801" lon="7.025748">
        <ele>39.220967</ele>
        <time>2025-08-12T10:52:46.405Z</time>
      </trkpt>
      <trkpt lat="51.642552" lon="7.024970">
        <ele>38.832094</ele>
        <time>2025-08-12T10:52:51.944Z</time>
      </trkpt>
      <trkpt lat="51.641544" lon="7.021813">
        <ele>37.501465</ele>
        <time>2025-08-12T10:53:14.308Z</time>
      </trkpt>
      <trkpt lat="51.641373" lon="7.021275">
        <ele>37.326863</ele>
        <time>2025-08-12T10:53:18.248Z</time>
      </trkpt>
      <trkpt lat="51.641242" lon="7.020860">
        <ele>37.192370</ele>
        <time>2025-08-12T10:53:21.490Z</time>
      </trkpt>
      <trkpt lat="51.641072" lon="7.020325">
        <ele>37.246989</ele>
        <time>2025-08-12T10:53:25.972Z</time>
      </trkpt>
      <trkpt lat="51.639784" lon="7.016316">
        <ele>38.336527</ele>
        <time>2025-08-12T10:54:05.502Z</time>
      </trkpt>
      <trkpt lat="51.640067" lon="7.015663">
        <ele>38.421929</ele>
        <time>2025-08-12T10:54:10.682Z</time>
      </trkpt>
      <trkpt lat="51.641311" lon="7.012752">
        <ele>35.965116</ele>
        <time>2025-08-12T10:54:31.457Z</time>
      </trkpt>
      <trkpt lat="51.641653" lon="7.012122">
        <ele>35.389801</ele>
        <time>2025-08-12T10:54:36.418Z</time>
      </trkpt>
      <trkpt lat="51.641701" lon="7.011983">
        <ele>35.280466</ele>
        <time>2025-08-12T10:54:37.359Z</time>
      </trkpt>
      <trkpt lat="51.641856" lon="7.011193">
        <ele>34.710984</ele>
        <time>2025-08-12T10:54:42.337Z</time>
      </trkpt>
      <trkpt lat="51.642134" lon="7.009766">
        <ele>33.753973</ele>
        <time>2025-08-12T10:54:51.601Z</time>
      </trkpt>
      <trkpt lat="51.642151" lon="7.009698">
        <ele>33.709169</ele>
        <time>2025-08-12T10:54:52.060Z</time>
      </trkpt>
      <trkpt lat="51.642221" lon="7.009461">
        <ele>33.548758</ele>
        <time>2025-08-12T10:54:53.650Z</time>
      </trkpt>
      <trkpt lat="51.642314" lon="7.009183">
        <ele>33.355743</ele>
        <time>2025-08-12T10:54:55.541Z</time>
      </trkpt>
      <trkpt lat="51.642501" lon="7.008847">
        <ele>33.079912</ele>
        <time>2025-08-12T10:54:58.254Z</time>
      </trkpt>
      <trkpt lat="51.643023" lon="7.007972">
        <ele>32.361933</ele>
        <time>2025-08-12T10:55:05.633Z</time>
      </trkpt>
      <trkpt lat="51.643159" lon="7.007679">
        <ele>32.163172</ele>
        <time>2025-08-12T10:55:07.769Z</time>
      </trkpt>
      <trkpt lat="51.643232" lon="7.007370">
        <ele>31.983566</ele>
        <time>2025-08-12T10:55:09.698Z</time>
      </trkpt>
      <trkpt lat="51.643259" lon="7.007127">
        <ele>31.849465</ele>
        <time>2025-08-12T10:55:11.145Z</time>
      </trkpt>
      <trkpt lat="51.643297" lon="7.006203">
        <ele>31.346432</ele>
        <time>2025-08-12T10:55:16.838Z</time>
      </trkpt>
      <trkpt lat="51.643293" lon="7.005523">
        <ele>30.977917</ele>
        <time>2025-08-12T10:55:21.317Z</time>
      </trkpt>
      <trkpt lat="51.643291" lon="7.005407">
        <ele>30.987488</ele>
        <time>2025-08-12T10:55:22.093Z</time>
      </trkpt>
      <trkpt lat="51.643299" lon="7.004474">
        <ele>31.064446</ele>
        <time>2025-08-12T10:55:28.579Z</time>
      </trkpt>
      <trkpt lat="51.643301" lon="7.004433">
        <ele>31.067838</ele>
        <time>2025-08-12T10:55:28.877Z</time>
      </trkpt>
      <trkpt lat="51.643339" lon="7.002846">
        <ele>31.198827</ele>
        <time>2025-08-12T10:55:41.741Z</time>
      </trkpt>
      <trkpt lat="51.643390" lon="7.000746">
        <ele>31.900656</ele>
        <time>2025-08-12T10:55:59.792Z</time>
      </trkpt>
      <trkpt lat="51.643442" lon="7.000449">
        <ele>32.012719</ele>
        <time>2025-08-12T10:56:02.439Z</time>
      </trkpt>
      <trkpt lat="51.644147" lon="6.998956">
        <ele>32.858049</ele>
        <time>2025-08-12T10:56:18.519Z</time>
      </trkpt>
      <trkpt lat="51.645001" lon="6.997202">
        <ele>33.986973</ele>
        <time>2025-08-12T10:56:39.006Z</time>
      </trkpt>
      <trkpt lat="51.645163" lon="6.996869">
        <ele>34.205528</ele>
        <time>2025-08-12T10:56:43.180Z</time>
      </trkpt>
      <trkpt lat="51.645639" lon="6.995891">
        <ele>34.847519</ele>
        <time>2025-08-12T10:56:55.076Z</time>
      </trkpt>
      <trkpt lat="51.645648" lon="6.995873">
        <ele>34.859458</ele>
        <time>2025-08-12T10:56:55.293Z</time>
      </trkpt>
      <trkpt lat="51.647365" lon="6.992366">
        <ele>35.483412</ele>
        <time>2025-08-12T10:57:29.631Z</time>
      </trkpt>
      <trkpt lat="51.647501" lon="6.992087">
        <ele>35.442357</ele>
        <time>2025-08-12T10:57:32.129Z</time>
      </trkpt>
      <trkpt lat="51.647539" lon="6.991761">
        <ele>35.403973</ele>
        <time>2025-08-12T10:57:34.423Z</time>
      </trkpt>
      <trkpt lat="51.647858" lon="6.988342">
        <ele>34.841276</ele>
        <time>2025-08-12T10:57:57.612Z</time>
      </trkpt>
      <trkpt lat="51.647846" lon="6.988206">
        <ele>34.814767</ele>
        <time>2025-08-12T10:57:58.571Z</time>
      </trkpt>
      <trkpt lat="51.647391" lon="6.985870">
        <ele>34.665659</ele>
        <time>2025-08-12T10:58:16.447Z</time>
      </trkpt>
      <trkpt lat="51.647157" lon="6.984705">
        <ele>34.647362</ele>
        <time>2025-08-12T10:58:25.697Z</time>
      </trkpt>
      <trkpt lat="51.647143" lon="6.984639">
        <ele>34.644705</ele>
        <time>2025-08-12T10:58:26.220Z</time>
      </trkpt>
      <trkpt lat="51.646818" lon="6.983010">
        <ele>34.579529</ele>
        <time>2025-08-12T10:58:38.455Z</time>
      </trkpt>
      <trkpt lat="51.646546" lon="6.982952">
        <ele>34.562687</ele>
        <time>2025-08-12T10:58:41.582Z</time>
      </trkpt>
      <trkpt lat="51.646263" lon="6.982945">
        <ele>34.545313</ele>
        <time>2025-08-12T10:58:44.840Z</time>
      </trkpt>
      <trkpt lat="51.645857" lon="6.982935">
        <ele>34.607775</ele>
        <time>2025-08-12T10:58:49.567Z</time>
      </trkpt>
      <trkpt lat="51.645384" lon="6.982924">
        <ele>34.699349</ele>
        <time>2025-08-12T10:58:55.285Z</time>
      </trkpt>
      <trkpt lat="51.644393" lon="6.982892">
        <ele>34.893228</ele>
        <time>2025-08-12T10:59:08.196Z</time>
      </trkpt>
      <trkpt lat="51.644312" lon="6.982890">
        <ele>34.928325</ele>
        <time>2025-08-12T10:59:09.277Z</time>
      </trkpt>
      <trkpt lat="51.640978" lon="6.982784">
        <ele>36.354800</ele>
        <time>2025-08-12T10:59:53.452Z</time>
      </trkpt>
      <trkpt lat="51.639960" lon="6.982920">
        <ele>36.650139</ele>
        <time>2025-08-12T11:00:06.628Z</time>
      </trkpt>
      <trkpt lat="51.640176" lon="6.982087">
        <ele>36.796917</ele>
        <time>2025-08-12T11:00:16.069Z</time>
      </trkpt>
      <trkpt lat="51.641314" lon="6.977808">
        <ele>37.488208</ele>
        <time>2025-08-12T11:01:04.930Z</time>
      </trkpt>
      <trkpt lat="51.641276" lon="6.977752">
        <ele>37.499862</ele>
        <time>2025-08-12T11:01:05.849Z</time>
      </trkpt>
      <trkpt lat="51.640743" lon="6.977355">
        <ele>37.632755</ele>
        <time>2025-08-12T11:01:16.094Z</time>
      </trkpt>
      <trkpt lat="51.638967" lon="6.978266">
        <ele>37.829215</ele>
        <time>2025-08-12T11:01:38.786Z</time>
      </trkpt>
      <trkpt lat="51.638951" lon="6.978183">
        <ele>37.832765</ele>
        <time>2025-08-12T11:01:39.407Z</time>
      </trkpt>
      <trkpt lat="51.637675" lon="6.975106">
        <ele>37.868500</ele>
        <time>2025-08-12T11:02:05.851Z</time>
      </trkpt>
      <trkpt lat="51.636974" lon="6.973422">
        <ele>38.318931</ele>
        <time>2025-08-12T11:02:23.034Z</time>
      </trkpt>
      <trkpt lat="51.636510" lon="6.972340">
        <ele>38.463148</ele>
        <time>2025-08-12T11:02:33.395Z</time>
      </trkpt>
      <trkpt lat="51.636170" lon="6.971481">
        <ele>38.473729</ele>
        <time>2025-08-12T11:02:41.011Z</time>
      </trkpt>
      <trkpt lat="51.635825" lon="6.970674">
        <ele>38.483906</ele>
        <time>2025-08-12T11:02:47.742Z</time>
      </trkpt>
      <trkpt lat="51.635286" lon="6.969642">
        <ele>38.593524</ele>
        <time>2025-08-12T11:02:57.758Z</time>
      </trkpt>
      <trkpt lat="51.635202" lon="6.969418">
        <ele>38.618036</ele>
        <time>2025-08-12T11:02:59.772Z</time>
      </trkpt>
      <trkpt lat="51.635127" lon="6.969031">
        <ele>38.656009</ele>
        <time>2025-08-12T11:03:02.893Z</time>
      </trkpt>
      <trkpt lat="51.635102" lon="6.968648">
        <ele>38.692080</ele>
        <time>2025-08-12T11:03:05.931Z</time>
      </trkpt>
      <trkpt lat="51.635024" lon="6.968627">
        <ele>38.704014</ele>
        <time>2025-08-12T11:03:06.941Z</time>
      </trkpt>
      <trkpt lat="51.634024" lon="6.968553">
        <ele>38.852942</ele>
        <time>2025-08-12T11:03:20.108Z</time>
      </trkpt>
      <trkpt lat="51.633858" lon="6.968500">
        <ele>38.877920</ele>
        <time>2025-08-12T11:03:22.242Z</time>
      </trkpt>
      <trkpt lat="51.633598" lon="6.968239">
        <ele>38.923137</ele>
        <time>2025-08-12T11:03:26.023Z</time>
      </trkpt>
      <trkpt lat="51.633299" lon="6.967950">
        <ele>38.974604</ele>
        <time>2025-08-12T11:03:30.195Z</time>
      </trkpt>
      <trkpt lat="51.631796" lon="6.966945">
        <ele>38.940266</ele>
        <time>2025-08-12T11:03:48.514Z</time>
      </trkpt>
      <trkpt lat="51.631521" lon="6.966855">
        <ele>38.922430</ele>
        <time>2025-08-12T11:03:51.791Z</time>
      </trkpt>
      <trkpt lat="51.630873" lon="6.966787">
        <ele>39.070202</ele>
        <time>2025-08-12T11:04:00.132Z</time>
      </trkpt>
      <trkpt lat="51.630743" lon="6.966598">
        <ele>39.135801</ele>
        <time>2025-08-12T11:04:02.432Z</time>
      </trkpt>
      <trkpt lat="51.630448" lon="6.965784">
        <ele>39.354984</ele>
        <time>2025-08-12T11:04:10.342Z</time>
      </trkpt>
      <trkpt lat="51.630098" lon="6.964230">
        <ele>39.656298</ele>
        <time>2025-08-12T11:04:24.044Z</time>
      </trkpt>
      <trkpt lat="51.629929" lon="6.963837">
        <ele>39.708636</ele>
        <time>2025-08-12T11:04:27.679Z</time>
      </trkpt>
      <trkpt lat="51.629574" lon="6.963250">
        <ele>39.798353</ele>
        <time>2025-08-12T11:04:33.771Z</time>
      </trkpt>
      <trkpt lat="51.629418" lon="6.962969">
        <ele>39.839623</ele>
        <time>2025-08-12T11:04:36.567Z</time>
      </trkpt>
      <trkpt lat="51.629062" lon="6.962299">
        <ele>39.874638</ele>
        <time>2025-08-12T11:04:43.160Z</time>
      </trkpt>
      <trkpt lat="51.628981" lon="6.962146">
        <ele>39.859629</ele>
        <time>2025-08-12T11:04:44.643Z</time>
      </trkpt>
      <trkpt lat="51.628929" lon="6.961959">
        <ele>39.844334</ele>
        <time>2025-08-12T11:04:46.133Z</time>
      </trkpt>
      <trkpt lat="51.628864" lon="6.961335">
        <ele>39.797106</ele>
        <time>2025-08-12T11:04:50.673Z</time>
      </trkpt>
      <trkpt lat="51.628793" lon="6.961125">
        <ele>39.779257</ele>
        <time>2025-08-12T11:04:52.372Z</time>
      </trkpt>
      <trkpt lat="51.630655" lon="6.957974">
        <ele>39.594962</ele>
        <time>2025-08-12T11:05:23.058Z</time>
      </trkpt>
      <trkpt lat="51.630825" lon="6.957510">
        <ele>39.811971</ele>
        <time>2025-08-12T11:05:27.419Z</time>
      </trkpt>
      <trkpt lat="51.631414" lon="6.956364">
        <ele>40.411223</ele>
        <time>2025-08-12T11:05:40.939Z</time>
      </trkpt>
      <trkpt lat="51.632278" lon="6.954725">
        <ele>41.067556</ele>
        <time>2025-08-12T11:06:00.586Z</time>
      </trkpt>
      <trkpt lat="51.632001" lon="6.954052">
        <ele>41.275728</ele>
        <time>2025-08-12T11:06:06.757Z</time>
      </trkpt>
      <trkpt lat="51.631534" lon="6.952771">
        <ele>41.395377</ele>
        <time>2025-08-12T11:06:16.882Z</time>
      </trkpt>
      <trkpt lat="51.631085" lon="6.951665">
        <ele>41.322814</ele>
        <time>2025-08-12T11:06:26.308Z</time>
      </trkpt>
      <trkpt lat="51.630846" lon="6.951303">
        <ele>41.293796</ele>
        <time>2025-08-12T11:06:30.283Z</time>
      </trkpt>
      <trkpt lat="51.630477" lon="6.950926">
        <ele>41.361575</ele>
        <time>2025-08-12T11:06:35.754Z</time>
      </trkpt>
      <trkpt lat="51.628890" lon="6.949305">
        <ele>41.701196</ele>
        <time>2025-08-12T11:07:00.108Z</time>
      </trkpt>
      <trkpt lat="51.628715" lon="6.949207">
        <ele>41.681716</ele>
        <time>2025-08-12T11:07:02.212Z</time>
      </trkpt>
      <trkpt lat="51.628148" lon="6.949243">
        <ele>41.622052</ele>
        <time>2025-08-12T11:07:08.461Z</time>
      </trkpt>
      <trkpt lat="51.628206" lon="6.948342">
        <ele>41.562929</ele>
        <time>2025-08-12T11:07:14.510Z</time>
      </trkpt>
      <trkpt lat="51.628226" lon="6.948224">
        <ele>41.554945</ele>
        <time>2025-08-12T11:07:15.331Z</time>
      </trkpt>
      <trkpt lat="51.628320" lon="6.944814">
        <ele>41.695814</ele>
        <time>2025-08-12T11:07:40.164Z</time>
      </trkpt>
      <trkpt lat="51.628510" lon="6.938014">
        <ele>44.053399</ele>
        <time>2025-08-12T11:08:40.615Z</time>
      </trkpt>
      <trkpt lat="51.628529" lon="6.937331">
        <ele>44.125509</ele>
        <time>2025-08-12T11:08:45.119Z</time>
      </trkpt>
      <trkpt lat="51.628511" lon="6.937183">
        <ele>44.141416</ele>
        <time>2025-08-12T11:08:46.109Z</time>
      </trkpt>
      <trkpt lat="51.628459" lon="6.937041">
        <ele>44.158805</ele>
        <time>2025-08-12T11:08:47.200Z</time>
      </trkpt>
      <trkpt lat="51.628088" lon="6.936304">
        <ele>44.297198</ele>
        <time>2025-08-12T11:08:53.390Z</time>
      </trkpt>
      <trkpt lat="51.627937" lon="6.935939">
        <ele>44.374030</ele>
        <time>2025-08-12T11:08:56.489Z</time>
      </trkpt>
      <trkpt lat="51.627514" lon="6.934899">
        <ele>44.591820</ele>
        <time>2025-08-12T11:09:06.855Z</time>
      </trkpt>
      <trkpt lat="51.627443" lon="6.934725">
        <ele>44.628294</ele>
        <time>2025-08-12T11:09:08.855Z</time>
      </trkpt>
      <trkpt lat="51.627329" lon="6.934637">
        <ele>44.663964</ele>
        <time>2025-08-12T11:09:10.780Z</time>
      </trkpt>
      <trkpt lat="51.626908" lon="6.934763">
        <ele>44.952955</ele>
        <time>2025-08-12T11:09:16.965Z</time>
      </trkpt>
      <trkpt lat="51.626826" lon="6.934759">
        <ele>45.027081</ele>
        <time>2025-08-12T11:09:18.102Z</time>
      </trkpt>
      <trkpt lat="51.626730" lon="6.934685">
        <ele>45.123242</ele>
        <time>2025-08-12T11:09:19.645Z</time>
      </trkpt>
      <trkpt lat="51.626789" lon="6.934515">
        <ele>45.232488</ele>
        <time>2025-08-12T11:09:21.397Z</time>
      </trkpt>
      <trkpt lat="51.627013" lon="6.933935">
        <ele>45.615638</ele>
        <time>2025-08-12T11:09:27.801Z</time>
      </trkpt>
      <trkpt lat="51.627079" lon="6.933769">
        <ele>45.726209</ele>
        <time>2025-08-12T11:09:29.611Z</time>
      </trkpt>
      <trkpt lat="51.627203" lon="6.933361">
        <ele>45.981015</ele>
        <time>2025-08-12T11:09:33.859Z</time>
      </trkpt>
      <trkpt lat="51.627216" lon="6.933289">
        <ele>46.023074</ele>
        <time>2025-08-12T11:09:34.584Z</time>
      </trkpt>
      <trkpt lat="51.627286" lon="6.932928">
        <ele>46.235211</ele>
        <time>2025-08-12T11:09:37.950Z</time>
      </trkpt>
      <trkpt lat="51.627332" lon="6.932521">
        <ele>46.541074</ele>
        <time>2025-08-12T11:09:41.610Z</time>
      </trkpt>
      <trkpt lat="51.627363" lon="6.932077">
        <ele>46.930124</ele>
        <time>2025-08-12T11:09:45.794Z</time>
      </trkpt>
      <trkpt lat="51.627452" lon="6.931852">
        <ele>47.162435</ele>
        <time>2025-08-12T11:09:48.489Z</time>
      </trkpt>
      <trkpt lat="51.627506" lon="6.931750">
        <ele>47.279163</ele>
        <time>2025-08-12T11:09:49.857Z</time>
      </trkpt>
      <trkpt lat="51.627586" lon="6.931598">
        <ele>47.452683</ele>
        <time>2025-08-12T11:09:51.974Z</time>
      </trkpt>
      <trkpt lat="51.627718" lon="6.931331">
        <ele>47.749891</ele>
        <time>2025-08-12T11:09:55.600Z</time>
      </trkpt>
      <trkpt lat="51.627750" lon="6.931058">
        <ele>47.991804</ele>
        <time>2025-08-12T11:09:58.533Z</time>
      </trkpt>
      <trkpt lat="51.627907" lon="6.925794">
        <ele>51.859697</ele>
        <time>2025-08-12T11:10:53.872Z</time>
      </trkpt>
      <trkpt lat="51.627698" lon="6.922363">
        <ele>51.730925</ele>
        <time>2025-08-12T11:11:14.877Z</time>
      </trkpt>
      <trkpt lat="51.627294" lon="6.919413">
        <ele>53.146891</ele>
        <time>2025-08-12T11:11:43.018Z</time>
      </trkpt>
      <trkpt lat="51.626627" lon="6.914557">
        <ele>57.073952</ele>
        <time>2025-08-12T11:12:37.922Z</time>
      </trkpt>
      <trkpt lat="51.626017" lon="6.912757">
        <ele>56.954979</ele>
        <time>2025-08-12T11:12:49.833Z</time>
      </trkpt>
      <trkpt lat="51.625812" lon="6.912532">
        <ele>56.829258</ele>
        <time>2025-08-12T11:12:52.040Z</time>
      </trkpt>
      <trkpt lat="51.625758" lon="6.912482">
        <ele>56.797691</ele>
        <time>2025-08-12T11:12:52.853Z</time>
      </trkpt>
      <trkpt lat="51.625970" lon="6.911768">
        <ele>56.548675</ele>
        <time>2025-08-12T11:12:57.584Z</time>
      </trkpt>
      <trkpt lat="51.626010" lon="6.911533">
        <ele>56.472009</ele>
        <time>2025-08-12T11:12:59.172Z</time>
      </trkpt>
      <trkpt lat="51.625981" lon="6.910027">
        <ele>56.818786</ele>
        <time>2025-08-12T11:13:12.314Z</time>
      </trkpt>
      <trkpt lat="51.626042" lon="6.908357">
        <ele>58.885829</ele>
        <time>2025-08-12T11:13:31.971Z</time>
      </trkpt>
      <trkpt lat="51.626058" lon="6.907310">
        <ele>60.330123</ele>
        <time>2025-08-12T11:13:45.501Z</time>
      </trkpt>
      <trkpt lat="51.625926" lon="6.904816">
        <ele>64.490026</ele>
        <time>2025-08-12T11:14:18.387Z</time>
      </trkpt>
      <trkpt lat="51.625926" lon="6.904282">
        <ele>64.870500</ele>
        <time>2025-08-12T11:14:24.091Z</time>
      </trkpt>
      <trkpt lat="51.625962" lon="6.903934">
        <ele>65.093323</ele>
        <time>2025-08-12T11:14:27.575Z</time>
      </trkpt>
      <trkpt lat="51.626048" lon="6.903492">
        <ele>65.385875</ele>
        <time>2025-08-12T11:14:31.885Z</time>
      </trkpt>
      <trkpt lat="51.626316" lon="6.902518">
        <ele>66.058756</ele>
        <time>2025-08-12T11:14:40.773Z</time>
      </trkpt>
      <trkpt lat="51.626269" lon="6.902413">
        <ele>66.140514</ele>
        <time>2025-08-12T11:14:42.138Z</time>
      </trkpt>
      <trkpt lat="51.626349" lon="6.901107">
        <ele>66.563285</ele>
        <time>2025-08-12T11:14:56.093Z</time>
      </trkpt>
      <trkpt lat="51.624262" lon="6.898756">
        <ele>67.276720</ele>
        <time>2025-08-12T11:15:28.737Z</time>
      </trkpt>
      <trkpt lat="51.623234" lon="6.897234">
        <ele>67.692059</ele>
        <time>2025-08-12T11:15:46.340Z</time>
      </trkpt>
      <trkpt lat="51.622939" lon="6.896792">
        <ele>67.820422</ele>
        <time>2025-08-12T11:15:51.632Z</time>
      </trkpt>
      <trkpt lat="51.622568" lon="6.896237">
        <ele>67.974394</ele>
        <time>2025-08-12T11:15:58.308Z</time>
      </trkpt>
      <trkpt lat="51.622218" lon="6.895796">
        <ele>67.990950</ele>
        <time>2025-08-12T11:16:04.072Z</time>
      </trkpt>
      <trkpt lat="51.621603" lon="6.895103">
        <ele>68.018914</ele>
        <time>2025-08-12T11:16:13.222Z</time>
      </trkpt>
      <trkpt lat="51.620979" lon="6.894524">
        <ele>68.055090</ele>
        <time>2025-08-12T11:16:21.199Z</time>
      </trkpt>
      <trkpt lat="51.620579" lon="6.894216">
        <ele>68.100676</ele>
        <time>2025-08-12T11:16:26.041Z</time>
      </trkpt>
      <trkpt lat="51.620132" lon="6.893910">
        <ele>68.150616</ele>
        <time>2025-08-12T11:16:31.539Z</time>
      </trkpt>
      <trkpt lat="51.619158" lon="6.893373">
        <ele>68.471629</ele>
        <time>2025-08-12T11:16:45.312Z</time>
      </trkpt>
      <trkpt lat="51.618747" lon="6.893194">
        <ele>68.818316</ele>
        <time>2025-08-12T11:16:51.933Z</time>
      </trkpt>
      <trkpt lat="51.617640" lon="6.892803">
        <ele>69.704248</ele>
        <time>2025-08-12T11:17:08.927Z</time>
      </trkpt>
      <trkpt lat="51.616673" lon="6.892561">
        <ele>69.926718</ele>
        <time>2025-08-12T11:17:21.216Z</time>
      </trkpt>
      <trkpt lat="51.614964" lon="6.892207">
        <ele>70.022460</ele>
        <time>2025-08-12T11:17:41.520Z</time>
      </trkpt>
      <trkpt lat="51.614530" lon="6.892119">
        <ele>69.987865</ele>
        <time>2025-08-12T11:17:46.627Z</time>
      </trkpt>
      <trkpt lat="51.614103" lon="6.892033">
        <ele>69.950580</ele>
        <time>2025-08-12T11:17:51.524Z</time>
      </trkpt>
      <trkpt lat="51.613434" lon="6.891900">
        <ele>69.834653</ele>
        <time>2025-08-12T11:17:59.069Z</time>
      </trkpt>
      <trkpt lat="51.613318" lon="6.891875">
        <ele>69.814526</ele>
        <time>2025-08-12T11:18:00.351Z</time>
      </trkpt>
      <trkpt lat="51.612614" lon="6.891735">
        <ele>69.692534</ele>
        <time>2025-08-12T11:18:08.010Z</time>
      </trkpt>
      <trkpt lat="51.611492" lon="6.891525">
        <ele>69.610178</ele>
        <time>2025-08-12T11:18:22.304Z</time>
      </trkpt>
      <trkpt lat="51.611015" lon="6.891435">
        <ele>69.589615</ele>
        <time>2025-08-12T11:18:28.121Z</time>
      </trkpt>
      <trkpt lat="51.610987" lon="6.891430">
        <ele>69.588409</ele>
        <time>2025-08-12T11:18:28.450Z</time>
      </trkpt>
      <trkpt lat="51.609304" lon="6.891109">
        <ele>69.045825</ele>
        <time>2025-08-12T11:18:46.507Z</time>
      </trkpt>
      <trkpt lat="51.609229" lon="6.891091">
        <ele>69.014535</ele>
        <time>2025-08-12T11:18:47.301Z</time>
      </trkpt>
      <trkpt lat="51.604763" lon="6.890220">
        <ele>67.782662</ele>
        <time>2025-08-12T11:19:37.766Z</time>
      </trkpt>
      <trkpt lat="51.604026" lon="6.890078">
        <ele>67.478340</ele>
        <time>2025-08-12T11:19:45.252Z</time>
      </trkpt>
      <trkpt lat="51.603312" lon="6.889940">
        <ele>67.216922</ele>
        <time>2025-08-12T11:19:53.176Z</time>
      </trkpt>
      <trkpt lat="51.603208" lon="6.889918">
        <ele>67.205159</ele>
        <time>2025-08-12T11:19:54.486Z</time>
      </trkpt>
      <trkpt lat="51.601848" lon="6.889663">
        <ele>67.051616</ele>
        <time>2025-08-12T11:20:11.710Z</time>
      </trkpt>
      <trkpt lat="51.601537" lon="6.889604">
        <ele>66.826544</ele>
        <time>2025-08-12T11:20:14.909Z</time>
      </trkpt>
      <trkpt lat="51.601421" lon="6.889578">
        <ele>66.592703</ele>
        <time>2025-08-12T11:20:16.039Z</time>
      </trkpt>
      <trkpt lat="51.601092" lon="6.889515">
        <ele>65.931187</ele>
        <time>2025-08-12T11:20:19.098Z</time>
      </trkpt>
      <trkpt lat="51.599927" lon="6.889298">
        <ele>63.589615</ele>
        <time>2025-08-12T11:20:28.939Z</time>
      </trkpt>
      <trkpt lat="51.599147" lon="6.889150">
        <ele>62.510033</ele>
        <time>2025-08-12T11:20:35.719Z</time>
      </trkpt>
      <trkpt lat="51.597980" lon="6.888934">
        <ele>61.125388</ele>
        <time>2025-08-12T11:20:47.277Z</time>
      </trkpt>
      <trkpt lat="51.594815" lon="6.888337">
        <ele>63.097962</ele>
        <time>2025-08-12T11:21:32.464Z</time>
      </trkpt>
      <trkpt lat="51.593239" lon="6.888043">
        <ele>64.257613</ele>
        <time>2025-08-12T11:21:56.429Z</time>
      </trkpt>
      <trkpt lat="51.590355" lon="6.887709">
        <ele>64.907051</ele>
        <time>2025-08-12T11:22:31.888Z</time>
      </trkpt>
      <trkpt lat="51.589250" lon="6.887584">
        <ele>64.883847</ele>
        <time>2025-08-12T11:22:45.112Z</time>
      </trkpt>
      <trkpt lat="51.588001" lon="6.887444">
        <ele>64.654004</ele>
        <time>2025-08-12T11:22:58.656Z</time>
      </trkpt>
      <trkpt lat="51.587439" lon="6.887364">
        <ele>64.539247</ele>
        <time>2025-08-12T11:23:05.026Z</time>
      </trkpt>
      <trkpt lat="51.587004" lon="6.887260">
        <ele>64.879572</ele>
        <time>2025-08-12T11:23:10.379Z</time>
      </trkpt>
      <trkpt lat="51.586345" lon="6.887005">
        <ele>65.648247</ele>
        <time>2025-08-12T11:23:20.395Z</time>
      </trkpt>
      <trkpt lat="51.584665" lon="6.886208">
        <ele>68.010783</ele>
        <time>2025-08-12T11:23:51.787Z</time>
      </trkpt>
      <trkpt lat="51.584208" lon="6.886058">
        <ele>68.724054</ele>
        <time>2025-08-12T11:23:59.601Z</time>
      </trkpt>
      <trkpt lat="51.582656" lon="6.885649">
        <ele>69.786379</ele>
        <time>2025-08-12T11:24:22.015Z</time>
      </trkpt>
      <trkpt lat="51.581937" lon="6.885484">
        <ele>69.987088</ele>
        <time>2025-08-12T11:24:30.214Z</time>
      </trkpt>
      <trkpt lat="51.580435" lon="6.885129">
        <ele>69.433895</ele>
        <time>2025-08-12T11:24:46.310Z</time>
      </trkpt>
      <trkpt lat="51.579649" lon="6.884903">
        <ele>69.157710</ele>
        <time>2025-08-12T11:24:55.682Z</time>
      </trkpt>
      <trkpt lat="51.579246" lon="6.884732">
        <ele>69.015487</ele>
        <time>2025-08-12T11:25:00.288Z</time>
      </trkpt>
      <trkpt lat="51.578742" lon="6.884443">
        <ele>68.832904</ele>
        <time>2025-08-12T11:25:05.983Z</time>
      </trkpt>
      <trkpt lat="51.578255" lon="6.884090">
        <ele>68.595130</ele>
        <time>2025-08-12T11:25:11.510Z</time>
      </trkpt>
      <trkpt lat="51.577481" lon="6.883310">
        <ele>68.127613</ele>
        <time>2025-08-12T11:25:20.838Z</time>
      </trkpt>
      <trkpt lat="51.576320" lon="6.881989">
        <ele>67.231605</ele>
        <time>2025-08-12T11:25:36.944Z</time>
      </trkpt>
      <trkpt lat="51.575745" lon="6.881249">
        <ele>66.711062</ele>
        <time>2025-08-12T11:25:44.103Z</time>
      </trkpt>
      <trkpt lat="51.575277" lon="6.880565">
        <ele>66.140200</ele>
        <time>2025-08-12T11:25:49.922Z</time>
      </trkpt>
      <trkpt lat="51.575082" lon="6.880250">
        <ele>65.865549</ele>
        <time>2025-08-12T11:25:52.478Z</time>
      </trkpt>
      <trkpt lat="51.574682" lon="6.879621">
        <ele>65.309619</ele>
        <time>2025-08-12T11:25:57.783Z</time>
      </trkpt>
      <trkpt lat="51.573597" lon="6.877479">
        <ele>64.534074</ele>
        <time>2025-08-12T11:26:16.956Z</time>
      </trkpt>
      <trkpt lat="51.572641" lon="6.875694">
        <ele>64.087558</ele>
        <time>2025-08-12T11:26:34.157Z</time>
      </trkpt>
      <trkpt lat="51.572123" lon="6.874906">
        <ele>63.820821</ele>
        <time>2025-08-12T11:26:41.676Z</time>
      </trkpt>
      <trkpt lat="51.571846" lon="6.874512">
        <ele>63.491511</ele>
        <time>2025-08-12T11:26:45.409Z</time>
      </trkpt>
      <trkpt lat="51.571393" lon="6.873946">
        <ele>62.470446</ele>
        <time>2025-08-12T11:26:50.941Z</time>
      </trkpt>
      <trkpt lat="51.570946" lon="6.873457">
        <ele>61.508152</ele>
        <time>2025-08-12T11:26:55.773Z</time>
      </trkpt>
      <trkpt lat="51.570520" lon="6.873036">
        <ele>60.618124</ele>
        <time>2025-08-12T11:27:00.023Z</time>
      </trkpt>
      <trkpt lat="51.569877" lon="6.872489">
        <ele>58.192973</ele>
        <time>2025-08-12T11:27:05.896Z</time>
      </trkpt>
      <trkpt lat="51.568834" lon="6.871793">
        <ele>54.319593</ele>
        <time>2025-08-12T11:27:14.771Z</time>
      </trkpt>
      <trkpt lat="51.568513" lon="6.871651">
        <ele>53.817831</ele>
        <time>2025-08-12T11:27:17.453Z</time>
      </trkpt>
      <trkpt lat="51.568061" lon="6.871446">
        <ele>53.110030</ele>
        <time>2025-08-12T11:27:21.413Z</time>
      </trkpt>
      <trkpt lat="51.567912" lon="6.871389">
        <ele>52.879198</ele>
        <time>2025-08-12T11:27:22.784Z</time>
      </trkpt>
      <trkpt lat="51.567230" lon="6.871136">
        <ele>51.824325</ele>
        <time>2025-08-12T11:27:30.049Z</time>
      </trkpt>
      <trkpt lat="51.566715" lon="6.871006">
        <ele>52.307290</ele>
        <time>2025-08-12T11:27:38.115Z</time>
      </trkpt>
      <trkpt lat="51.565928" lon="6.870900">
        <ele>53.703753</ele>
        <time>2025-08-12T11:27:52.641Z</time>
      </trkpt>
      <trkpt lat="51.565278" lon="6.870895">
        <ele>54.845311</ele>
        <time>2025-08-12T11:28:05.214Z</time>
      </trkpt>
      <trkpt lat="51.564636" lon="6.870952">
        <ele>55.805880</ele>
        <time>2025-08-12T11:28:17.812Z</time>
      </trkpt>
      <trkpt lat="51.563987" lon="6.871079">
        <ele>56.782595</ele>
        <time>2025-08-12T11:28:29.050Z</time>
      </trkpt>
      <trkpt lat="51.563988" lon="6.871172">
        <ele>56.868977</ele>
        <time>2025-08-12T11:28:29.976Z</time>
      </trkpt>
      <trkpt lat="51.562275" lon="6.871571">
        <ele>57.262199</ele>
        <time>2025-08-12T11:28:50.450Z</time>
      </trkpt>
      <trkpt lat="51.561342" lon="6.871588">
        <ele>57.116917</ele>
        <time>2025-08-12T11:28:59.809Z</time>
      </trkpt>
      <trkpt lat="51.560136" lon="6.871553">
        <ele>56.951671</ele>
        <time>2025-08-12T11:29:13.260Z</time>
      </trkpt>
      <trkpt lat="51.560000" lon="6.871550">
        <ele>56.933038</ele>
        <time>2025-08-12T11:29:15.103Z</time>
      </trkpt>
      <trkpt lat="51.556628" lon="6.871475">
        <ele>61.533060</ele>
        <time>2025-08-12T11:30:11.230Z</time>
      </trkpt>
      <trkpt lat="51.555129" lon="6.871383">
        <ele>63.287384</ele>
        <time>2025-08-12T11:30:35.210Z</time>
      </trkpt>
      <trkpt lat="51.553450" lon="6.870779">
        <ele>64.539663</ele>
        <time>2025-08-12T11:30:59.793Z</time>
      </trkpt>
      <trkpt lat="51.551491" lon="6.870004">
        <ele>65.056890</ele>
        <time>2025-08-12T11:31:24.533Z</time>
      </trkpt>
      <trkpt lat="51.551462" lon="6.869880">
        <ele>65.067455</ele>
        <time>2025-08-12T11:31:25.469Z</time>
      </trkpt>
      <trkpt lat="51.551064" lon="6.869706">
        <ele>65.121973</ele>
        <time>2025-08-12T11:31:32.095Z</time>
      </trkpt>
      <trkpt lat="51.550098" lon="6.869315">
        <ele>65.265118</ele>
        <time>2025-08-12T11:31:48.533Z</time>
      </trkpt>
      <trkpt lat="51.548960" lon="6.868863">
        <ele>65.277533</ele>
        <time>2025-08-12T11:32:08.483Z</time>
      </trkpt>
      <trkpt lat="51.548911" lon="6.868845">
        <ele>65.268239</ele>
        <time>2025-08-12T11:32:09.305Z</time>
      </trkpt>
      <trkpt lat="51.548683" lon="6.868750">
        <ele>65.224688</ele>
        <time>2025-08-12T11:32:13.072Z</time>
      </trkpt>
      <trkpt lat="51.548435" lon="6.868648">
        <ele>65.177355</ele>
        <time>2025-08-12T11:32:17.051Z</time>
      </trkpt>
      <trkpt lat="51.548163" lon="6.868538">
        <ele>65.125493</ele>
        <time>2025-08-12T11:32:21.318Z</time>
      </trkpt>
      <trkpt lat="51.547675" lon="6.868333">
        <ele>65.032793</ele>
        <time>2025-08-12T11:32:28.774Z</time>
      </trkpt>
      <trkpt lat="51.547657" lon="6.868324">
        <ele>65.033105</ele>
        <time>2025-08-12T11:32:28.970Z</time>
      </trkpt>
      <trkpt lat="51.547449" lon="6.868244">
        <ele>65.036641</ele>
        <time>2025-08-12T11:32:31.216Z</time>
      </trkpt>
      <trkpt lat="51.547008" lon="6.868076">
        <ele>65.044134</ele>
        <time>2025-08-12T11:32:36.100Z</time>
      </trkpt>
      <trkpt lat="51.546901" lon="6.868031">
        <ele>65.045963</ele>
        <time>2025-08-12T11:32:37.341Z</time>
      </trkpt>
      <trkpt lat="51.546524" lon="6.867882">
        <ele>65.052382</ele>
        <time>2025-08-12T11:32:41.950Z</time>
      </trkpt>
      <trkpt lat="51.546220" lon="6.867756">
        <ele>65.057572</ele>
        <time>2025-08-12T11:32:46.039Z</time>
      </trkpt>
      <trkpt lat="51.546029" lon="6.867676">
        <ele>65.060836</ele>
        <time>2025-08-12T11:32:48.788Z</time>
      </trkpt>
      <trkpt lat="51.545573" lon="6.867490">
        <ele>65.268824</ele>
        <time>2025-08-12T11:32:55.579Z</time>
      </trkpt>
      <trkpt lat="51.545323" lon="6.867384">
        <ele>65.412755</ele>
        <time>2025-08-12T11:32:59.223Z</time>
      </trkpt>
      <trkpt lat="51.544993" lon="6.867248">
        <ele>65.602403</ele>
        <time>2025-08-12T11:33:03.976Z</time>
      </trkpt>
      <trkpt lat="51.544666" lon="6.867112">
        <ele>65.790433</ele>
        <time>2025-08-12T11:33:08.652Z</time>
      </trkpt>
      <trkpt lat="51.544445" lon="6.867022">
        <ele>65.917348</ele>
        <time>2025-08-12T11:33:11.700Z</time>
      </trkpt>
      <trkpt lat="51.544286" lon="6.866960">
        <ele>66.008428</ele>
        <time>2025-08-12T11:33:13.850Z</time>
      </trkpt>
      <trkpt lat="51.543820" lon="6.866772">
        <ele>66.306425</ele>
        <time>2025-08-12T11:33:19.863Z</time>
      </trkpt>
      <trkpt lat="51.543670" lon="6.866714">
        <ele>66.404675</ele>
        <time>2025-08-12T11:33:21.770Z</time>
      </trkpt>
      <trkpt lat="51.542878" lon="6.866383">
        <ele>66.925813</ele>
        <time>2025-08-12T11:33:32.709Z</time>
      </trkpt>
      <trkpt lat="51.542369" lon="6.866183">
        <ele>67.319977</ele>
        <time>2025-08-12T11:33:40.876Z</time>
      </trkpt>
      <trkpt lat="51.542090" lon="6.866073">
        <ele>67.723000</ele>
        <time>2025-08-12T11:33:45.428Z</time>
      </trkpt>
      <trkpt lat="51.541601" lon="6.865884">
        <ele>68.428593</ele>
        <time>2025-08-12T11:33:54.026Z</time>
      </trkpt>
      <trkpt lat="51.541094" lon="6.865669">
        <ele>69.164220</ele>
        <time>2025-08-12T11:34:03.133Z</time>
      </trkpt>
      <trkpt lat="51.540906" lon="6.866065">
        <ele>69.598924</ele>
        <time>2025-08-12T11:34:08.331Z</time>
      </trkpt>
      <trkpt lat="51.540624" lon="6.866643">
        <ele>69.708854</ele>
        <time>2025-08-12T11:34:17.230Z</time>
      </trkpt>
      <trkpt lat="51.540438" lon="6.867004">
        <ele>69.689649</ele>
        <time>2025-08-12T11:34:22.374Z</time>
      </trkpt>
      <trkpt lat="51.540007" lon="6.867789">
        <ele>69.646753</ele>
        <time>2025-08-12T11:34:32.260Z</time>
      </trkpt>
      <trkpt lat="51.539480" lon="6.868774">
        <ele>69.222710</ele>
        <time>2025-08-12T11:34:43.443Z</time>
      </trkpt>
      <trkpt lat="51.539411" lon="6.868921">
        <ele>69.079840</ele>
        <time>2025-08-12T11:34:44.990Z</time>
      </trkpt>
      <trkpt lat="51.539204" lon="6.869341">
        <ele>68.664116</ele>
        <time>2025-08-12T11:34:49.465Z</time>
      </trkpt>
      <trkpt lat="51.538829" lon="6.870133">
        <ele>67.891916</ele>
        <time>2025-08-12T11:34:57.726Z</time>
      </trkpt>
      <trkpt lat="51.538714" lon="6.870372">
        <ele>67.657495</ele>
        <time>2025-08-12T11:35:00.250Z</time>
      </trkpt>
      <trkpt lat="51.538580" lon="6.870648">
        <ele>67.385867</ele>
        <time>2025-08-12T11:35:03.154Z</time>
      </trkpt>
      <trkpt lat="51.538510" lon="6.870799">
        <ele>67.317475</ele>
        <time>2025-08-12T11:35:04.714Z</time>
      </trkpt>
      <trkpt lat="51.538320" lon="6.871204">
        <ele>67.157365</ele>
        <time>2025-08-12T11:35:08.930Z</time>
      </trkpt>
      <trkpt lat="51.538201" lon="6.871457">
        <ele>67.057252</ele>
        <time>2025-08-12T11:35:11.603Z</time>
      </trkpt>
      <trkpt lat="51.537805" lon="6.872286">
        <ele>66.727342</ele>
        <time>2025-08-12T11:35:20.857Z</time>
      </trkpt>
      <trkpt lat="51.537741" lon="6.872430">
        <ele>66.671482</ele>
        <time>2025-08-12T11:35:22.553Z</time>
      </trkpt>
      <trkpt lat="51.537528" lon="6.872885">
        <ele>66.491744</ele>
        <time>2025-08-12T11:35:28.727Z</time>
      </trkpt>
      <trkpt lat="51.537222" lon="6.873559">
        <ele>67.113433</ele>
        <time>2025-08-12T11:35:39.199Z</time>
      </trkpt>
      <trkpt lat="51.537102" lon="6.873814">
        <ele>67.401372</ele>
        <time>2025-08-12T11:35:43.543Z</time>
      </trkpt>
      <trkpt lat="51.536568" lon="6.874950">
        <ele>68.683604</ele>
        <time>2025-08-12T11:36:03.210Z</time>
      </trkpt>
      <trkpt lat="51.536322" lon="6.875485">
        <ele>69.158727</ele>
        <time>2025-08-12T11:36:11.917Z</time>
      </trkpt>
      <trkpt lat="51.535846" lon="6.876237">
        <ele>69.582105</ele>
        <time>2025-08-12T11:36:24.690Z</time>
      </trkpt>
      <trkpt lat="51.534429" lon="6.878270">
        <ele>70.204552</ele>
        <time>2025-08-12T11:36:56.244Z</time>
      </trkpt>
      <trkpt lat="51.534030" lon="6.878828">
        <ele>70.205400</ele>
        <time>2025-08-12T11:37:04.608Z</time>
      </trkpt>
      <trkpt lat="51.533937" lon="6.878903">
        <ele>70.205567</ele>
        <time>2025-08-12T11:37:05.801Z</time>
      </trkpt>
      <trkpt lat="51.533730" lon="6.879219">
        <ele>70.210149</ele>
        <time>2025-08-12T11:37:09.058Z</time>
      </trkpt>
      <trkpt lat="51.533684" lon="6.879290">
        <ele>70.216806</ele>
        <time>2025-08-12T11:37:09.796Z</time>
      </trkpt>
      <trkpt lat="51.533572" lon="6.879446">
        <ele>70.232277</ele>
        <time>2025-08-12T11:37:11.494Z</time>
      </trkpt>
      <trkpt lat="51.533343" lon="6.879771">
        <ele>70.264167</ele>
        <time>2025-08-12T11:37:15.024Z</time>
      </trkpt>
      <trkpt lat="51.533058" lon="6.880170">
        <ele>70.303620</ele>
        <time>2025-08-12T11:37:19.353Z</time>
      </trkpt>
      <trkpt lat="51.532268" lon="6.881296">
        <ele>70.497806</ele>
        <time>2025-08-12T11:37:32.955Z</time>
      </trkpt>
      <trkpt lat="51.532245" lon="6.881329">
        <ele>70.514461</ele>
        <time>2025-08-12T11:37:33.370Z</time>
      </trkpt>
      <trkpt lat="51.532059" lon="6.881593">
        <ele>70.648510</ele>
        <time>2025-08-12T11:37:36.703Z</time>
      </trkpt>
      <trkpt lat="51.531774" lon="6.881996">
        <ele>70.853570</ele>
        <time>2025-08-12T11:37:41.845Z</time>
      </trkpt>
      <trkpt lat="51.531726" lon="6.882065">
        <ele>70.888358</ele>
        <time>2025-08-12T11:37:42.723Z</time>
      </trkpt>
      <trkpt lat="51.531622" lon="6.882211">
        <ele>70.962952</ele>
        <time>2025-08-12T11:37:44.608Z</time>
      </trkpt>
      <trkpt lat="51.531258" lon="6.882713">
        <ele>71.222054</ele>
        <time>2025-08-12T11:37:51.322Z</time>
      </trkpt>
      <trkpt lat="51.530950" lon="6.883148">
        <ele>71.423780</ele>
        <time>2025-08-12T11:37:57.026Z</time>
      </trkpt>
      <trkpt lat="51.530916" lon="6.883196">
        <ele>71.442040</ele>
        <time>2025-08-12T11:37:57.649Z</time>
      </trkpt>
      <trkpt lat="51.530871" lon="6.883262">
        <ele>71.466621</ele>
        <time>2025-08-12T11:37:58.502Z</time>
      </trkpt>
      <trkpt lat="51.530674" lon="6.883539">
        <ele>71.572235</ele>
        <time>2025-08-12T11:38:02.158Z</time>
      </trkpt>
      <trkpt lat="51.530159" lon="6.884260">
        <ele>71.847816</ele>
        <time>2025-08-12T11:38:11.288Z</time>
      </trkpt>
      <trkpt lat="51.529633" lon="6.884998">
        <ele>72.101511</ele>
        <time>2025-08-12T11:38:20.115Z</time>
      </trkpt>
      <trkpt lat="51.529489" lon="6.885172">
        <ele>72.121025</ele>
        <time>2025-08-12T11:38:22.202Z</time>
      </trkpt>
      <trkpt lat="51.529426" lon="6.885327">
        <ele>72.133501</ele>
        <time>2025-08-12T11:38:23.516Z</time>
      </trkpt>
      <trkpt lat="51.529355" lon="6.885331">
        <ele>72.141197</ele>
        <time>2025-08-12T11:38:24.329Z</time>
      </trkpt>
      <trkpt lat="51.529191" lon="6.886007">
        <ele>72.190092</ele>
        <time>2025-08-12T11:38:29.451Z</time>
      </trkpt>
      <trkpt lat="51.529057" lon="6.886574">
        <ele>72.230964</ele>
        <time>2025-08-12T11:38:33.920Z</time>
      </trkpt>
      <trkpt lat="51.528916" lon="6.887169">
        <ele>72.273870</ele>
        <time>2025-08-12T11:38:39.129Z</time>
      </trkpt>
      <trkpt lat="51.528907" lon="6.887207">
        <ele>72.276610</ele>
        <time>2025-08-12T11:38:39.468Z</time>
      </trkpt>
      <trkpt lat="51.528846" lon="6.887467">
        <ele>72.317438</ele>
        <time>2025-08-12T11:38:41.729Z</time>
      </trkpt>
      <trkpt lat="51.528719" lon="6.888002">
        <ele>72.447893</ele>
        <time>2025-08-12T11:38:46.380Z</time>
      </trkpt>
      <trkpt lat="51.528607" lon="6.888473">
        <ele>72.562767</ele>
        <time>2025-08-12T11:38:50.555Z</time>
      </trkpt>
      <trkpt lat="51.528550" lon="6.888711">
        <ele>72.620867</ele>
        <time>2025-08-12T11:38:52.647Z</time>
      </trkpt>
      <trkpt lat="51.528503" lon="6.888909">
        <ele>72.669147</ele>
        <time>2025-08-12T11:38:54.372Z</time>
      </trkpt>
      <trkpt lat="51.528319" lon="6.889682">
        <ele>72.857703</ele>
        <time>2025-08-12T11:39:01.150Z</time>
      </trkpt>
      <trkpt lat="51.528227" lon="6.890068">
        <ele>72.953478</ele>
        <time>2025-08-12T11:39:04.433Z</time>
      </trkpt>
      <trkpt lat="51.528222" lon="6.890091">
        <ele>72.960271</ele>
        <time>2025-08-12T11:39:04.626Z</time>
      </trkpt>
      <trkpt lat="51.528105" lon="6.890580">
        <ele>73.106349</ele>
        <time>2025-08-12T11:39:08.689Z</time>
      </trkpt>
      <trkpt lat="51.527952" lon="6.891222">
        <ele>73.298035</ele>
        <time>2025-08-12T11:39:14.257Z</time>
      </trkpt>
      <trkpt lat="51.527826" lon="6.891738">
        <ele>73.452591</ele>
        <time>2025-08-12T11:39:18.958Z</time>
      </trkpt>
      <trkpt lat="51.527626" lon="6.892557">
        <ele>73.697907</ele>
        <time>2025-08-12T11:39:26.683Z</time>
      </trkpt>
      <trkpt lat="51.527618" lon="6.892592">
        <ele>73.708304</ele>
        <time>2025-08-12T11:39:27.007Z</time>
      </trkpt>
      <trkpt lat="51.527372" lon="6.893618">
        <ele>73.914308</ele>
        <time>2025-08-12T11:39:35.775Z</time>
      </trkpt>
      <trkpt lat="51.527286" lon="6.893993">
        <ele>73.983303</ele>
        <time>2025-08-12T11:39:38.847Z</time>
      </trkpt>
      <trkpt lat="51.527298" lon="6.894241">
        <ele>74.026245</ele>
        <time>2025-08-12T11:39:40.733Z</time>
      </trkpt>
      <trkpt lat="51.527188" lon="6.894298">
        <ele>74.058315</ele>
        <time>2025-08-12T11:39:42.120Z</time>
      </trkpt>
      <trkpt lat="51.526776" lon="6.894554">
        <ele>74.180882</ele>
        <time>2025-08-12T11:39:47.533Z</time>
      </trkpt>
      <trkpt lat="51.526336" lon="6.894838">
        <ele>74.401731</ele>
        <time>2025-08-12T11:39:53.454Z</time>
      </trkpt>
      <trkpt lat="51.525982" lon="6.895060">
        <ele>74.657650</ele>
        <time>2025-08-12T11:39:58.838Z</time>
      </trkpt>
      <trkpt lat="51.525898" lon="6.895105">
        <ele>74.717283</ele>
        <time>2025-08-12T11:40:00.206Z</time>
      </trkpt>
      <trkpt lat="51.525636" lon="6.895204">
        <ele>74.898547</ele>
        <time>2025-08-12T11:40:04.464Z</time>
      </trkpt>
      <trkpt lat="51.525429" lon="6.895207">
        <ele>75.037964</ele>
        <time>2025-08-12T11:40:07.653Z</time>
      </trkpt>
      <trkpt lat="51.525142" lon="6.895118">
        <ele>75.234819</ele>
        <time>2025-08-12T11:40:11.990Z</time>
      </trkpt>
      <trkpt lat="51.524858" lon="6.894951">
        <ele>75.438489</ele>
        <time>2025-08-12T11:40:16.217Z</time>
      </trkpt>
      <trkpt lat="51.524654" lon="6.894824">
        <ele>75.377622</ele>
        <time>2025-08-12T11:40:19.119Z</time>
      </trkpt>
      <trkpt lat="51.524479" lon="6.895140">
        <ele>75.258611</ele>
        <time>2025-08-12T11:40:22.368Z</time>
      </trkpt>
      <trkpt lat="51.523997" lon="6.896001">
        <ele>74.932782</ele>
        <time>2025-08-12T11:40:30.161Z</time>
      </trkpt>
      <trkpt lat="51.523661" lon="6.896619">
        <ele>74.701900</ele>
        <time>2025-08-12T11:40:35.057Z</time>
      </trkpt>
      <trkpt lat="51.523372" lon="6.897150">
        <ele>74.188865</ele>
        <time>2025-08-12T11:40:39.145Z</time>
      </trkpt>
      <trkpt lat="51.523356" lon="6.897181">
        <ele>74.152879</ele>
        <time>2025-08-12T11:40:39.381Z</time>
      </trkpt>
      <trkpt lat="51.522686" lon="6.898409">
        <ele>72.693626</ele>
        <time>2025-08-12T11:40:48.636Z</time>
      </trkpt>
      <trkpt lat="51.522195" lon="6.899308">
        <ele>71.877229</ele>
        <time>2025-08-12T11:40:55.577Z</time>
      </trkpt>
      <trkpt lat="51.522151" lon="6.899389">
        <ele>71.836219</ele>
        <time>2025-08-12T11:40:56.226Z</time>
      </trkpt>
      <trkpt lat="51.521922" lon="6.899812">
        <ele>71.622372</ele>
        <time>2025-08-12T11:40:59.682Z</time>
      </trkpt>
      <trkpt lat="51.520779" lon="6.901923">
        <ele>70.957763</ele>
        <time>2025-08-12T11:41:19.278Z</time>
      </trkpt>
      <trkpt lat="51.520623" lon="6.902211">
        <ele>70.956000</ele>
        <time>2025-08-12T11:41:22.260Z</time>
      </trkpt>
      <trkpt lat="51.520467" lon="6.902500">
        <ele>70.954234</ele>
        <time>2025-08-12T11:41:26.280Z</time>
      </trkpt>
      <trkpt lat="51.520429" lon="6.902576">
        <ele>70.953784</ele>
        <time>2025-08-12T11:41:27.278Z</time>
      </trkpt>
      <trkpt lat="51.520325" lon="6.902671">
        <ele>70.952896</ele>
        <time>2025-08-12T11:41:29.262Z</time>
      </trkpt>
      <trkpt lat="51.520105" lon="6.902681">
        <ele>70.951263</ele>
        <time>2025-08-12T11:41:32.890Z</time>
      </trkpt>
      <trkpt lat="51.520085" lon="6.902957">
        <ele>70.949980</ele>
        <time>2025-08-12T11:41:35.697Z</time>
      </trkpt>
      <trkpt lat="51.520049" lon="6.903449">
        <ele>70.817349</ele>
        <time>2025-08-12T11:41:40.692Z</time>
      </trkpt>
      <trkpt lat="51.519976" lon="6.904402">
        <ele>70.464521</ele>
        <time>2025-08-12T11:41:50.164Z</time>
      </trkpt>
      <trkpt lat="51.519968" lon="6.904498">
        <ele>70.428931</ele>
        <time>2025-08-12T11:41:51.041Z</time>
      </trkpt>
      <trkpt lat="51.519942" lon="6.904847">
        <ele>70.299773</ele>
        <time>2025-08-12T11:41:54.097Z</time>
      </trkpt>
      <trkpt lat="51.519889" lon="6.905586">
        <ele>70.026426</ele>
        <time>2025-08-12T11:42:00.243Z</time>
      </trkpt>
      <trkpt lat="51.519841" lon="6.906309">
        <ele>70.070653</ele>
        <time>2025-08-12T11:42:06.352Z</time>
      </trkpt>
      <trkpt lat="51.519788" lon="6.906656">
        <ele>70.258914</ele>
        <time>2025-08-12T11:42:09.793Z</time>
      </trkpt>
      <trkpt lat="51.519778" lon="6.906701">
        <ele>70.284091</ele>
        <time>2025-08-12T11:42:10.304Z</time>
      </trkpt>
      <trkpt lat="51.519714" lon="6.906919">
        <ele>70.411097</ele>
        <time>2025-08-12T11:42:12.948Z</time>
      </trkpt>
      <trkpt lat="51.519582" lon="6.907192">
        <ele>70.593263</ele>
        <time>2025-08-12T11:42:16.987Z</time>
      </trkpt>
      <trkpt lat="51.519349" lon="6.907543">
        <ele>70.863688</ele>
        <time>2025-08-12T11:42:23.248Z</time>
      </trkpt>
      <trkpt lat="51.519302" lon="6.907607">
        <ele>70.915852</ele>
        <time>2025-08-12T11:42:24.517Z</time>
      </trkpt>
      <trkpt lat="51.519177" lon="6.907631">
        <ele>71.022451</ele>
        <time>2025-08-12T11:42:27.233Z</time>
      </trkpt>
      <trkpt lat="51.518969" lon="6.907907">
        <ele>71.250858</ele>
        <time>2025-08-12T11:42:33.285Z</time>
      </trkpt>
      <trkpt lat="51.518965" lon="6.907950">
        <ele>71.273767</ele>
        <time>2025-08-12T11:42:33.938Z</time>
      </trkpt>
      <trkpt lat="51.518820" lon="6.908175">
        <ele>71.481657</ele>
        <time>2025-08-12T11:42:38.823Z</time>
      </trkpt>
      <trkpt lat="51.518761" lon="6.908228">
        <ele>71.601145</ele>
        <time>2025-08-12T11:42:40.441Z</time>
      </trkpt>
      <trkpt lat="51.518479" lon="6.908749">
        <ele>72.360734</ele>
        <time>2025-08-12T11:42:51.171Z</time>
      </trkpt>
      <trkpt lat="51.518562" lon="6.908825">
        <ele>72.529607</ele>
        <time>2025-08-12T11:43:00.496Z</time>
      </trkpt>
      <trkpt lat="51.518346" lon="6.909124">
        <ele>73.033575</ele>
        <time>2025-08-12T11:43:07.026Z</time>
      </trkpt>
      <trkpt lat="51.518242" lon="6.909299">
        <ele>73.299769</ele>
        <time>2025-08-12T11:43:10.128Z</time>
      </trkpt>
      <trkpt lat="51.517757" lon="6.910167">
        <ele>74.583046</ele>
        <time>2025-08-12T11:43:21.316Z</time>
      </trkpt>
      <trkpt lat="51.517683" lon="6.910301">
        <ele>74.656601</ele>
        <time>2025-08-12T11:43:23.013Z</time>
      </trkpt>
      <trkpt lat="51.517628" lon="6.910401">
        <ele>74.708106</ele>
        <time>2025-08-12T11:43:24.309Z</time>
      </trkpt>
      <trkpt lat="51.517711" lon="6.910501">
        <ele>74.772440</ele>
        <time>2025-08-12T11:43:25.958Z</time>
      </trkpt>
      <trkpt lat="51.517786" lon="6.910570">
        <ele>74.826036</ele>
        <time>2025-08-12T11:43:27.650Z</time>
      </trkpt>
      <trkpt lat="51.518103" lon="6.910858">
        <ele>75.051872</ele>
        <time>2025-08-12T11:43:34.819Z</time>
      </trkpt>
      <trkpt lat="51.518394" lon="6.911109">
        <ele>75.256694</ele>
        <time>2025-08-12T11:43:41.082Z</time>
      </trkpt>
      <trkpt lat="51.518565" lon="6.911323">
        <ele>75.391106</ele>
        <time>2025-08-12T11:43:44.978Z</time>
      </trkpt>
      <trkpt lat="51.518893" lon="6.911991">
        <ele>75.678508</ele>
        <time>2025-08-12T11:43:54.070Z</time>
      </trkpt>
      <trkpt lat="51.519218" lon="6.913276">
        <ele>74.665969</ele>
        <time>2025-08-12T11:44:02.609Z</time>
      </trkpt>
      <trkpt lat="51.519242" lon="6.913377">
        <ele>74.587049</ele>
        <time>2025-08-12T11:44:03.229Z</time>
      </trkpt>
      <trkpt lat="51.519567" lon="6.914757">
        <ele>73.444817</ele>
        <time>2025-08-12T11:44:11.483Z</time>
      </trkpt>
      <trkpt lat="51.519691" lon="6.915253">
        <ele>72.756812</ele>
        <time>2025-08-12T11:44:14.452Z</time>
      </trkpt>
      <trkpt lat="51.520337" lon="6.917897">
        <ele>68.655857</ele>
        <time>2025-08-12T11:44:29.873Z</time>
      </trkpt>
      <trkpt lat="51.520427" lon="6.918200">
        <ele>67.975317</ele>
        <time>2025-08-12T11:44:31.552Z</time>
      </trkpt>
      <trkpt lat="51.520756" lon="6.919311">
        <ele>65.481413</ele>
        <time>2025-08-12T11:44:37.579Z</time>
      </trkpt>
      <trkpt lat="51.520819" lon="6.919542">
        <ele>64.970201</ele>
        <time>2025-08-12T11:44:38.802Z</time>
      </trkpt>
      <trkpt lat="51.520999" lon="6.920179">
        <ele>63.696851</ele>
        <time>2025-08-12T11:44:42.237Z</time>
      </trkpt>
      <trkpt lat="51.521052" lon="6.920353">
        <ele>63.426715</ele>
        <time>2025-08-12T11:44:43.635Z</time>
      </trkpt>
      <trkpt lat="51.521320" lon="6.921228">
        <ele>62.066815</ele>
        <time>2025-08-12T11:44:48.704Z</time>
      </trkpt>
      <trkpt lat="51.521416" lon="6.921548">
        <ele>61.571457</ele>
        <time>2025-08-12T11:44:50.621Z</time>
      </trkpt>
      <trkpt lat="51.521731" lon="6.922529">
        <ele>60.032164</ele>
        <time>2025-08-12T11:44:57.035Z</time>
      </trkpt>
      <trkpt lat="51.521921" lon="6.923188">
        <ele>59.284546</ele>
        <time>2025-08-12T11:45:01.558Z</time>
      </trkpt>
      <trkpt lat="51.522068" lon="6.923917">
        <ele>58.509374</ele>
        <time>2025-08-12T11:45:06.382Z</time>
      </trkpt>
      <trkpt lat="51.522160" lon="6.924252">
        <ele>58.138968</ele>
        <time>2025-08-12T11:45:08.514Z</time>
      </trkpt>
      <trkpt lat="51.522606" lon="6.925286">
        <ele>56.754461</ele>
        <time>2025-08-12T11:45:15.138Z</time>
      </trkpt>
      <trkpt lat="51.522691" lon="6.925471">
        <ele>56.388229</ele>
        <time>2025-08-12T11:45:16.312Z</time>
      </trkpt>
      <trkpt lat="51.522845" lon="6.925835">
        <ele>55.687248</ele>
        <time>2025-08-12T11:45:18.555Z</time>
      </trkpt>
      <trkpt lat="51.522950" lon="6.926495">
        <ele>54.602389</ele>
        <time>2025-08-12T11:45:22.046Z</time>
      </trkpt>
      <trkpt lat="51.522953" lon="6.926527">
        <ele>54.550854</ele>
        <time>2025-08-12T11:45:22.208Z</time>
      </trkpt>
      <trkpt lat="51.522964" lon="6.926634">
        <ele>54.378147</ele>
        <time>2025-08-12T11:45:22.763Z</time>
      </trkpt>
      <trkpt lat="51.522997" lon="6.927366">
        <ele>53.209389</ele>
        <time>2025-08-12T11:45:26.519Z</time>
      </trkpt>
      <trkpt lat="51.523002" lon="6.927459">
        <ele>53.060735</ele>
        <time>2025-08-12T11:45:27.028Z</time>
      </trkpt>
      <trkpt lat="51.523033" lon="6.927735">
        <ele>52.614105</ele>
        <time>2025-08-12T11:45:28.618Z</time>
      </trkpt>
      <trkpt lat="51.523056" lon="6.927886">
        <ele>52.419186</ele>
        <time>2025-08-12T11:45:29.499Z</time>
      </trkpt>
      <trkpt lat="51.523072" lon="6.927976">
        <ele>52.356416</ele>
        <time>2025-08-12T11:45:30.022Z</time>
      </trkpt>
      <trkpt lat="51.523075" lon="6.927994">
        <ele>52.343919</ele>
        <time>2025-08-12T11:45:30.125Z</time>
      </trkpt>
      <trkpt lat="51.523257" lon="6.928877">
        <ele>51.720124</ele>
        <time>2025-08-12T11:45:35.520Z</time>
      </trkpt>
      <trkpt lat="51.523328" lon="6.929231">
        <ele>51.470699</ele>
        <time>2025-08-12T11:45:37.766Z</time>
      </trkpt>
      <trkpt lat="51.523443" lon="6.929852">
        <ele>51.036197</ele>
        <time>2025-08-12T11:45:41.631Z</time>
      </trkpt>
      <trkpt lat="51.523483" lon="6.930069">
        <ele>50.884424</ele>
        <time>2025-08-12T11:45:43.033Z</time>
      </trkpt>
      <trkpt lat="51.523520" lon="6.930288">
        <ele>50.732243</ele>
        <time>2025-08-12T11:45:44.493Z</time>
      </trkpt>
      <trkpt lat="51.523587" lon="6.930538">
        <ele>50.549701</ele>
        <time>2025-08-12T11:45:46.286Z</time>
      </trkpt>
      <trkpt lat="51.523898" lon="6.931622">
        <ele>50.838031</ele>
        <time>2025-08-12T11:45:55.791Z</time>
      </trkpt>
      <trkpt lat="51.524023" lon="6.932020">
        <ele>50.961999</ele>
        <time>2025-08-12T11:46:00.026Z</time>
      </trkpt>
      <trkpt lat="51.524119" lon="6.932326">
        <ele>51.057289</ele>
        <time>2025-08-12T11:46:03.207Z</time>
      </trkpt>
      <trkpt lat="51.524166" lon="6.932468">
        <ele>51.102012</ele>
        <time>2025-08-12T11:46:04.678Z</time>
      </trkpt>
      <trkpt lat="51.524176" lon="6.932497">
        <ele>51.111231</ele>
        <time>2025-08-12T11:46:04.989Z</time>
      </trkpt>
      <trkpt lat="51.524273" lon="6.932789">
        <ele>51.203271</ele>
        <time>2025-08-12T11:46:08.027Z</time>
      </trkpt>
      <trkpt lat="51.524362" lon="6.933059">
        <ele>51.288232</ele>
        <time>2025-08-12T11:46:10.730Z</time>
      </trkpt>
      <trkpt lat="51.524507" lon="6.933473">
        <ele>51.218632</ele>
        <time>2025-08-12T11:46:14.761Z</time>
      </trkpt>
      <trkpt lat="51.524763" lon="6.934261">
        <ele>50.955111</ele>
        <time>2025-08-12T11:46:21.147Z</time>
      </trkpt>
      <trkpt lat="51.524908" lon="6.934641">
        <ele>50.822967</ele>
        <time>2025-08-12T11:46:23.955Z</time>
      </trkpt>
      <trkpt lat="51.525219" lon="6.935104">
        <ele>50.620991</ele>
        <time>2025-08-12T11:46:28.090Z</time>
      </trkpt>
      <trkpt lat="51.525348" lon="6.935246">
        <ele>50.546496</ele>
        <time>2025-08-12T11:46:29.577Z</time>
      </trkpt>
      <trkpt lat="51.525870" lon="6.935802">
        <ele>50.069890</ele>
        <time>2025-08-12T11:46:35.503Z</time>
      </trkpt>
      <trkpt lat="51.526291" lon="6.936464">
        <ele>49.559423</ele>
        <time>2025-08-12T11:46:41.258Z</time>
      </trkpt>
      <trkpt lat="51.526772" lon="6.936902">
        <ele>49.080275</ele>
        <time>2025-08-12T11:46:46.938Z</time>
      </trkpt>
      <trkpt lat="51.527155" lon="6.937227">
        <ele>48.752383</ele>
        <time>2025-08-12T11:46:51.632Z</time>
      </trkpt>
      <trkpt lat="51.527273" lon="6.937342">
        <ele>48.660904</ele>
        <time>2025-08-12T11:46:53.215Z</time>
      </trkpt>
      <trkpt lat="51.527724" lon="6.937780">
        <ele>48.311598</ele>
        <time>2025-08-12T11:46:58.843Z</time>
      </trkpt>
      <trkpt lat="51.527967" lon="6.938045">
        <ele>48.116936</ele>
        <time>2025-08-12T11:47:01.896Z</time>
      </trkpt>
      <trkpt lat="51.528206" lon="6.938318">
        <ele>47.922571</ele>
        <time>2025-08-12T11:47:04.902Z</time>
      </trkpt>
      <trkpt lat="51.528338" lon="6.938516">
        <ele>47.802884</ele>
        <time>2025-08-12T11:47:06.699Z</time>
      </trkpt>
      <trkpt lat="51.528428" lon="6.938681">
        <ele>47.710598</ele>
        <time>2025-08-12T11:47:08.053Z</time>
      </trkpt>
      <trkpt lat="51.528619" lon="6.939120">
        <ele>47.301388</ele>
        <time>2025-08-12T11:47:11.219Z</time>
      </trkpt>
      <trkpt lat="51.528728" lon="6.939367">
        <ele>47.070063</ele>
        <time>2025-08-12T11:47:12.976Z</time>
      </trkpt>
      <trkpt lat="51.528857" lon="6.939662">
        <ele>46.794623</ele>
        <time>2025-08-12T11:47:15.049Z</time>
      </trkpt>
      <trkpt lat="51.529034" lon="6.940069">
        <ele>46.415298</ele>
        <time>2025-08-12T11:47:17.909Z</time>
      </trkpt>
      <trkpt lat="51.529196" lon="6.940442">
        <ele>46.067813</ele>
        <time>2025-08-12T11:47:20.563Z</time>
      </trkpt>
      <trkpt lat="51.529304" lon="6.940715">
        <ele>45.820686</ele>
        <time>2025-08-12T11:47:22.436Z</time>
      </trkpt>
      <trkpt lat="51.529512" lon="6.941320">
        <ele>45.400071</ele>
        <time>2025-08-12T11:47:26.457Z</time>
      </trkpt>
      <trkpt lat="51.529936" lon="6.942575">
        <ele>44.858327</ele>
        <time>2025-08-12T11:47:35.713Z</time>
      </trkpt>
      <trkpt lat="51.530248" lon="6.943473">
        <ele>44.468158</ele>
        <time>2025-08-12T11:47:42.424Z</time>
      </trkpt>
      <trkpt lat="51.530813" lon="6.945102">
        <ele>44.779013</ele>
        <time>2025-08-12T11:47:56.500Z</time>
      </trkpt>
      <trkpt lat="51.531065" lon="6.945831">
        <ele>44.959355</ele>
        <time>2025-08-12T11:48:03.504Z</time>
      </trkpt>
      <trkpt lat="51.531236" lon="6.946311">
        <ele>45.249363</ele>
        <time>2025-08-12T11:48:08.695Z</time>
      </trkpt>
      <trkpt lat="51.531307" lon="6.946499">
        <ele>45.479113</ele>
        <time>2025-08-12T11:48:10.949Z</time>
      </trkpt>
      <trkpt lat="51.531380" lon="6.946717">
        <ele>45.737742</ele>
        <time>2025-08-12T11:48:13.595Z</time>
      </trkpt>
      <trkpt lat="51.531593" lon="6.947327">
        <ele>46.468491</ele>
        <time>2025-08-12T11:48:21.385Z</time>
      </trkpt>
      <trkpt lat="51.531671" lon="6.947551">
        <ele>46.736654</ele>
        <time>2025-08-12T11:48:24.224Z</time>
      </trkpt>
      <trkpt lat="51.531789" lon="6.947950">
        <ele>47.198165</ele>
        <time>2025-08-12T11:48:29.248Z</time>
      </trkpt>
      <trkpt lat="51.531838" lon="6.948204">
        <ele>47.475966</ele>
        <time>2025-08-12T11:48:32.292Z</time>
      </trkpt>
      <trkpt lat="51.531923" lon="6.948914">
        <ele>48.184080</ele>
        <time>2025-08-12T11:48:40.405Z</time>
      </trkpt>
      <trkpt lat="51.532013" lon="6.949676">
        <ele>48.777598</ele>
        <time>2025-08-12T11:48:48.981Z</time>
      </trkpt>
      <trkpt lat="51.531338" lon="6.949881">
        <ele>49.622611</ele>
        <time>2025-08-12T11:49:00.106Z</time>
      </trkpt>
      <trkpt lat="51.530973" lon="6.950128">
        <ele>50.109764</ele>
        <time>2025-08-12T11:49:05.684Z</time>
      </trkpt>
      <trkpt lat="51.530836" lon="6.950290">
        <ele>50.240569</ele>
        <time>2025-08-12T11:49:07.875Z</time>
      </trkpt>
      <trkpt lat="51.530645" lon="6.950515">
        <ele>50.089127</ele>
        <time>2025-08-12T11:49:10.747Z</time>
      </trkpt>
      <trkpt lat="51.530374" lon="6.951008">
        <ele>49.827382</ele>
        <time>2025-08-12T11:49:15.343Z</time>
      </trkpt>
      <trkpt lat="51.530326" lon="6.951111">
        <ele>49.776179</ele>
        <time>2025-08-12T11:49:16.185Z</time>
      </trkpt>
      <trkpt lat="51.528967" lon="6.954024">
        <ele>48.065570</ele>
        <time>2025-08-12T11:49:37.922Z</time>
      </trkpt>
      <trkpt lat="51.528857" lon="6.954155">
        <ele>47.948970</ele>
        <time>2025-08-12T11:49:39.292Z</time>
      </trkpt>
      <trkpt lat="51.528793" lon="6.954191">
        <ele>47.891219</ele>
        <time>2025-08-12T11:49:39.989Z</time>
      </trkpt>
      <trkpt lat="51.529135" lon="6.955595">
        <ele>48.058577</ele>
        <time>2025-08-12T11:49:50.589Z</time>
      </trkpt>
      <trkpt lat="51.529157" lon="6.955688">
        <ele>48.109217</ele>
        <time>2025-08-12T11:49:51.418Z</time>
      </trkpt>
      <trkpt lat="51.529254" lon="6.955865">
        <ele>48.229271</ele>
        <time>2025-08-12T11:49:53.478Z</time>
      </trkpt>
      <trkpt lat="51.529837" lon="6.956297">
        <ele>48.754471</ele>
        <time>2025-08-12T11:50:03.471Z</time>
      </trkpt>
      <trkpt lat="51.529745" lon="6.956644">
        <ele>48.946448</ele>
        <time>2025-08-12T11:50:07.639Z</time>
      </trkpt>
      <trkpt lat="51.529733" lon="6.957219">
        <ele>49.366954</ele>
        <time>2025-08-12T11:50:14.256Z</time>
      </trkpt>
      <trkpt lat="51.529812" lon="6.957689">
        <ele>49.788009</ele>
        <time>2025-08-12T11:50:19.723Z</time>
      </trkpt>
      <trkpt lat="51.530050" lon="6.958468">
        <ele>50.538585</ele>
        <time>2025-08-12T11:50:29.271Z</time>
      </trkpt>
      <trkpt lat="51.530081" lon="6.958609">
        <ele>50.667919</ele>
        <time>2025-08-12T11:50:30.832Z</time>
      </trkpt>
      <trkpt lat="51.530199" lon="6.959261">
        <ele>51.255174</ele>
        <time>2025-08-12T11:50:37.568Z</time>
      </trkpt>
      <trkpt lat="51.530365" lon="6.960610">
        <ele>51.454418</ele>
        <time>2025-08-12T11:50:47.972Z</time>
      </trkpt>
      <trkpt lat="51.530400" lon="6.960770">
        <ele>51.437442</ele>
        <time>2025-08-12T11:50:49.094Z</time>
      </trkpt>
      <trkpt lat="51.530432" lon="6.960912">
        <ele>51.422326</ele>
        <time>2025-08-12T11:50:50.107Z</time>
      </trkpt>
      <trkpt lat="51.530595" lon="6.961332">
        <ele>51.372778</ele>
        <time>2025-08-12T11:50:53.377Z</time>
      </trkpt>
      <trkpt lat="51.530747" lon="6.961591">
        <ele>51.337140</ele>
        <time>2025-08-12T11:50:55.711Z</time>
      </trkpt>
      <trkpt lat="51.531276" lon="6.962342">
        <ele>51.252458</ele>
        <time>2025-08-12T11:51:03.282Z</time>
      </trkpt>
      <trkpt lat="51.531390" lon="6.962506">
        <ele>51.243943</ele>
        <time>2025-08-12T11:51:05.018Z</time>
      </trkpt>
      <trkpt lat="51.531731" lon="6.962992">
        <ele>51.218580</ele>
        <time>2025-08-12T11:51:10.563Z</time>
      </trkpt>
      <trkpt lat="51.532587" lon="6.964211">
        <ele>50.991139</ele>
        <time>2025-08-12T11:51:24.725Z</time>
      </trkpt>
      <trkpt lat="51.533121" lon="6.964963">
        <ele>50.441572</ele>
        <time>2025-08-12T11:51:32.046Z</time>
      </trkpt>
      <trkpt lat="51.533201" lon="6.965218">
        <ele>50.304043</ele>
        <time>2025-08-12T11:51:33.829Z</time>
      </trkpt>
      <trkpt lat="51.533228" lon="6.965439">
        <ele>50.195587</ele>
        <time>2025-08-12T11:51:35.188Z</time>
      </trkpt>
      <trkpt lat="51.533232" lon="6.965481">
        <ele>50.175126</ele>
        <time>2025-08-12T11:51:35.441Z</time>
      </trkpt>
      <trkpt lat="51.533268" lon="6.965871">
        <ele>49.985264</ele>
        <time>2025-08-12T11:51:37.735Z</time>
      </trkpt>
      <trkpt lat="51.533308" lon="6.966767">
        <ele>49.452717</ele>
        <time>2025-08-12T11:51:42.886Z</time>
      </trkpt>
      <trkpt lat="51.533329" lon="6.967298">
        <ele>49.081414</ele>
        <time>2025-08-12T11:51:45.914Z</time>
      </trkpt>
      <trkpt lat="51.533403" lon="6.967765">
        <ele>48.745114</ele>
        <time>2025-08-12T11:51:48.863Z</time>
      </trkpt>
      <trkpt lat="51.533496" lon="6.968295">
        <ele>48.360824</ele>
        <time>2025-08-12T11:51:52.289Z</time>
      </trkpt>
      <trkpt lat="51.533611" lon="6.968894">
        <ele>47.923361</ele>
        <time>2025-08-12T11:51:56.070Z</time>
      </trkpt>
      <trkpt lat="51.533698" lon="6.969454">
        <ele>47.610791</ele>
        <time>2025-08-12T11:51:59.630Z</time>
      </trkpt>
      <trkpt lat="51.533755" lon="6.969939">
        <ele>47.397526</ele>
        <time>2025-08-12T11:52:02.763Z</time>
      </trkpt>
      <trkpt lat="51.533843" lon="6.970710">
        <ele>47.058833</ele>
        <time>2025-08-12T11:52:07.761Z</time>
      </trkpt>
      <trkpt lat="51.533981" lon="6.971850">
        <ele>46.557025</ele>
        <time>2025-08-12T11:52:14.999Z</time>
      </trkpt>
      <trkpt lat="51.534064" lon="6.972535">
        <ele>46.686820</ele>
        <time>2025-08-12T11:52:19.797Z</time>
      </trkpt>
      <trkpt lat="51.534154" lon="6.973285">
        <ele>46.920223</ele>
        <time>2025-08-12T11:52:25.825Z</time>
      </trkpt>
      <trkpt lat="51.534707" lon="6.973166">
        <ele>47.194298</ele>
        <time>2025-08-12T11:52:33.955Z</time>
      </trkpt>
      <trkpt lat="51.534935" lon="6.973120">
        <ele>47.307178</ele>
        <time>2025-08-12T11:52:37.544Z</time>
      </trkpt>
      <trkpt lat="51.535135" lon="6.973094">
        <ele>47.425708</ele>
        <time>2025-08-12T11:52:40.729Z</time>
      </trkpt>
      <trkpt lat="51.535283" lon="6.972971">
        <ele>47.623829</ele>
        <time>2025-08-12T11:52:43.473Z</time>
      </trkpt>
      <trkpt lat="51.535330" lon="6.972912">
        <ele>47.694740</ele>
        <time>2025-08-12T11:52:44.470Z</time>
      </trkpt>
      <trkpt lat="51.535678" lon="6.972473">
        <ele>48.220759</ele>
        <time>2025-08-12T11:52:51.758Z</time>
      </trkpt>
      <trkpt lat="51.535692" lon="6.972352">
        <ele>48.311796</ele>
        <time>2025-08-12T11:52:52.989Z</time>
      </trkpt>
      <trkpt lat="51.536105" lon="6.971828">
        <ele>48.937438</ele>
        <time>2025-08-12T11:53:03.539Z</time>
      </trkpt>
      <trkpt lat="51.536247" lon="6.971704">
        <ele>49.129600</ele>
        <time>2025-08-12T11:53:06.649Z</time>
      </trkpt>
      <trkpt lat="51.536329" lon="6.971714">
        <ele>49.227391</ele>
        <time>2025-08-12T11:53:08.232Z</time>
      </trkpt>
      <trkpt lat="51.536538" lon="6.971497">
        <ele>49.523249</ele>
        <time>2025-08-12T11:53:13.097Z</time>
      </trkpt>
      <trkpt lat="51.536898" lon="6.971230">
        <ele>49.640158</ele>
        <time>2025-08-12T11:53:20.680Z</time>
      </trkpt>
      <trkpt lat="51.537162" lon="6.970885">
        <ele>49.735691</ele>
        <time>2025-08-12T11:53:25.502Z</time>
      </trkpt>
      <trkpt lat="51.537322" lon="6.970689">
        <ele>49.792175</ele>
        <time>2025-08-12T11:53:28.167Z</time>
      </trkpt>
      <trkpt lat="51.537489" lon="6.970486">
        <ele>49.850964</ele>
        <time>2025-08-12T11:53:30.709Z</time>
      </trkpt>
      <trkpt lat="51.537571" lon="6.970436">
        <ele>49.875591</ele>
        <time>2025-08-12T11:53:31.730Z</time>
      </trkpt>
      <trkpt lat="51.537809" lon="6.970141">
        <ele>49.959977</ele>
        <time>2025-08-12T11:53:35.141Z</time>
      </trkpt>
      <trkpt lat="51.537835" lon="6.970108">
        <ele>49.969279</ele>
        <time>2025-08-12T11:53:35.511Z</time>
      </trkpt>
      <trkpt lat="51.538195" lon="6.969646">
        <ele>49.898566</ele>
        <time>2025-08-12T11:53:40.491Z</time>
      </trkpt>
      <trkpt lat="51.538394" lon="6.969373">
        <ele>49.738775</ele>
        <time>2025-08-12T11:53:43.136Z</time>
      </trkpt>
      <trkpt lat="51.538660" lon="6.969065">
        <ele>49.538546</ele>
        <time>2025-08-12T11:53:46.433Z</time>
      </trkpt>
      <trkpt lat="51.538808" lon="6.968841">
        <ele>49.414389</ele>
        <time>2025-08-12T11:53:48.485Z</time>
      </trkpt>
      <trkpt lat="51.538871" lon="6.968659">
        <ele>49.335257</ele>
        <time>2025-08-12T11:53:49.814Z</time>
      </trkpt>
      <trkpt lat="51.538968" lon="6.968497">
        <ele>49.249825</ele>
        <time>2025-08-12T11:53:51.264Z</time>
      </trkpt>
      <trkpt lat="51.539070" lon="6.968444">
        <ele>49.184349</ele>
        <time>2025-08-12T11:53:52.380Z</time>
      </trkpt>
      <trkpt lat="51.539601" lon="6.967755">
        <ele>48.695621</ele>
        <time>2025-08-12T11:53:59.570Z</time>
      </trkpt>
      <trkpt lat="51.539683" lon="6.967623">
        <ele>48.594651</ele>
        <time>2025-08-12T11:54:00.780Z</time>
      </trkpt>
      <trkpt lat="51.539789" lon="6.967571">
        <ele>48.498216</ele>
        <time>2025-08-12T11:54:01.923Z</time>
      </trkpt>
      <trkpt lat="51.540325" lon="6.967439">
        <ele>48.026372</ele>
        <time>2025-08-12T11:54:07.486Z</time>
      </trkpt>
      <trkpt lat="51.541025" lon="6.967229">
        <ele>47.406749</ele>
        <time>2025-08-12T11:54:14.524Z</time>
      </trkpt>
      <trkpt lat="51.541563" lon="6.967664">
        <ele>45.850901</ele>
        <time>2025-08-12T11:54:19.949Z</time>
      </trkpt>
      <trkpt lat="51.541731" lon="6.967749">
        <ele>45.374349</ele>
        <time>2025-08-12T11:54:21.470Z</time>
      </trkpt>
      <trkpt lat="51.541901" lon="6.967953">
        <ele>44.800374</ele>
        <time>2025-08-12T11:54:23.279Z</time>
      </trkpt>
      <trkpt lat="51.542174" lon="6.968161">
        <ele>43.982949</ele>
        <time>2025-08-12T11:54:25.734Z</time>
      </trkpt>
      <trkpt lat="51.542273" lon="6.968200">
        <ele>43.707150</ele>
        <time>2025-08-12T11:54:26.535Z</time>
      </trkpt>
      <trkpt lat="51.542454" lon="6.968347">
        <ele>43.158467</ele>
        <time>2025-08-12T11:54:28.132Z</time>
      </trkpt>
      <trkpt lat="51.542870" lon="6.968746">
        <ele>41.700022</ele>
        <time>2025-08-12T11:54:31.902Z</time>
      </trkpt>
      <trkpt lat="51.543196" lon="6.968989">
        <ele>40.509160</ele>
        <time>2025-08-12T11:54:34.682Z</time>
      </trkpt>
      <trkpt lat="51.543722" lon="6.969404">
        <ele>38.567369</ele>
        <time>2025-08-12T11:54:41.312Z</time>
      </trkpt>
      <trkpt lat="51.544798" lon="6.970252">
        <ele>36.070603</ele>
        <time>2025-08-12T11:54:56.185Z</time>
      </trkpt>
      <trkpt lat="51.544967" lon="6.970414">
        <ele>35.912111</ele>
        <time>2025-08-12T11:54:58.914Z</time>
      </trkpt>
      <trkpt lat="51.545090" lon="6.970469">
        <ele>35.809269</ele>
        <time>2025-08-12T11:55:00.738Z</time>
      </trkpt>
      <trkpt lat="51.545226" lon="6.970467">
        <ele>35.699710</ele>
        <time>2025-08-12T11:55:02.745Z</time>
      </trkpt>
      <trkpt lat="51.545596" lon="6.970480">
        <ele>35.401587</ele>
        <time>2025-08-12T11:55:08.790Z</time>
      </trkpt>
      <trkpt lat="51.545587" lon="6.971520">
        <ele>35.296814</ele>
        <time>2025-08-12T11:55:17.750Z</time>
      </trkpt>
      <trkpt lat="51.545586" lon="6.971799">
        <ele>35.428073</ele>
        <time>2025-08-12T11:55:20.164Z</time>
      </trkpt>
      <trkpt lat="51.545544" lon="6.972786">
        <ele>35.893495</ele>
        <time>2025-08-12T11:55:28.852Z</time>
      </trkpt>
      <trkpt lat="51.545439" lon="6.973931">
        <ele>36.437989</ele>
        <time>2025-08-12T11:55:39.974Z</time>
      </trkpt>
      <trkpt lat="51.545240" lon="6.975578">
        <ele>36.595797</ele>
        <time>2025-08-12T11:55:53.641Z</time>
      </trkpt>
      <trkpt lat="51.544934" lon="6.977260">
        <ele>36.691003</ele>
        <time>2025-08-12T11:56:05.574Z</time>
      </trkpt>
      <trkpt lat="51.544704" lon="6.978254">
        <ele>36.666260</ele>
        <time>2025-08-12T11:56:12.631Z</time>
      </trkpt>
      <trkpt lat="51.544453" lon="6.979192">
        <ele>36.642437</ele>
        <time>2025-08-12T11:56:20.865Z</time>
      </trkpt>
      <trkpt lat="51.544209" lon="6.979950">
        <ele>36.764807</ele>
        <time>2025-08-12T11:56:27.991Z</time>
      </trkpt>
      <trkpt lat="51.543926" lon="6.980908">
        <ele>37.017875</ele>
        <time>2025-08-12T11:56:39.547Z</time>
      </trkpt>
      <trkpt lat="51.543608" lon="6.981983">
        <ele>37.301924</ele>
        <time>2025-08-12T11:56:52.400Z</time>
      </trkpt>
      <trkpt lat="51.543560" lon="6.982615">
        <ele>37.420744</ele>
        <time>2025-08-12T11:56:59.113Z</time>
      </trkpt>
      <trkpt lat="51.543623" lon="6.983376">
        <ele>37.556760</ele>
        <time>2025-08-12T11:57:05.216Z</time>
      </trkpt>
      <trkpt lat="51.543640" lon="6.983579">
        <ele>37.593049</ele>
        <time>2025-08-12T11:57:06.868Z</time>
      </trkpt>
      <trkpt lat="51.543686" lon="6.983758">
        <ele>37.627364</ele>
        <time>2025-08-12T11:57:08.426Z</time>
      </trkpt>
      <trkpt lat="51.543719" lon="6.983815">
        <ele>37.641161</ele>
        <time>2025-08-12T11:57:09.051Z</time>
      </trkpt>
      <trkpt lat="51.544232" lon="6.984266">
        <ele>37.807719</ele>
        <time>2025-08-12T11:57:16.525Z</time>
      </trkpt>
      <trkpt lat="51.544467" lon="6.984483">
        <ele>37.876351</ele>
        <time>2025-08-12T11:57:19.951Z</time>
      </trkpt>
      <trkpt lat="51.544621" lon="6.984510">
        <ele>37.912477</ele>
        <time>2025-08-12T11:57:21.897Z</time>
      </trkpt>
      <trkpt lat="51.546219" lon="6.984014">
        <ele>38.260946</ele>
        <time>2025-08-12T11:57:42.304Z</time>
      </trkpt>
      <trkpt lat="51.546374" lon="6.984059">
        <ele>38.264961</ele>
        <time>2025-08-12T11:57:44.306Z</time>
      </trkpt>
      <trkpt lat="51.546484" lon="6.984138">
        <ele>38.268032</ele>
        <time>2025-08-12T11:57:45.845Z</time>
      </trkpt>
      <trkpt lat="51.546592" lon="6.984302">
        <ele>38.271819</ele>
        <time>2025-08-12T11:57:47.773Z</time>
      </trkpt>
      <trkpt lat="51.547441" lon="6.985338">
        <ele>38.298988</ele>
        <time>2025-08-12T11:58:00.571Z</time>
      </trkpt>
      <trkpt lat="51.547774" lon="6.985757">
        <ele>38.202831</ele>
        <time>2025-08-12T11:58:05.054Z</time>
      </trkpt>
      <trkpt lat="51.547831" lon="6.985943">
        <ele>38.154292</ele>
        <time>2025-08-12T11:58:06.383Z</time>
      </trkpt>
      <trkpt lat="51.547866" lon="6.986185">
        <ele>38.096132</ele>
        <time>2025-08-12T11:58:07.961Z</time>
      </trkpt>
      <trkpt lat="51.547907" lon="6.986461">
        <ele>38.029708</ele>
        <time>2025-08-12T11:58:09.754Z</time>
      </trkpt>
      <trkpt lat="51.547924" lon="6.986547">
        <ele>38.008584</ele>
        <time>2025-08-12T11:58:10.307Z</time>
      </trkpt>
      <trkpt lat="51.547982" lon="6.986820">
        <ele>37.941053</ele>
        <time>2025-08-12T11:58:12.093Z</time>
      </trkpt>
      <trkpt lat="51.548079" lon="6.986885">
        <ele>37.901497</ele>
        <time>2025-08-12T11:58:13.133Z</time>
      </trkpt>
      <trkpt lat="51.548219" lon="6.986979">
        <ele>37.844389</ele>
        <time>2025-08-12T11:58:14.663Z</time>
      </trkpt>
      <trkpt lat="51.548514" lon="6.987105">
        <ele>37.729494</ele>
        <time>2025-08-12T11:58:17.912Z</time>
      </trkpt>
      <trkpt lat="51.549178" lon="6.987388">
        <ele>37.838915</ele>
        <time>2025-08-12T11:58:26.941Z</time>
      </trkpt>
      <trkpt lat="51.549167" lon="6.987160">
        <ele>37.912462</ele>
        <time>2025-08-12T11:58:29.133Z</time>
      </trkpt>
      <trkpt lat="51.549185" lon="6.986947">
        <ele>37.981594</ele>
        <time>2025-08-12T11:58:31.280Z</time>
      </trkpt>
      <trkpt lat="51.549395" lon="6.984963">
        <ele>38.469819</ele>
        <time>2025-08-12T11:58:49.021Z</time>
      </trkpt>
      <trkpt lat="51.549548" lon="6.983369">
        <ele>37.853521</ele>
        <time>2025-08-12T11:58:59.197Z</time>
      </trkpt>
      <trkpt lat="51.549578" lon="6.983049">
        <ele>37.729864</ele>
        <time>2025-08-12T11:59:01.052Z</time>
      </trkpt>
      <trkpt lat="51.549645" lon="6.982488">
        <ele>37.511583</ele>
        <time>2025-08-12T11:59:04.394Z</time>
      </trkpt>
      <trkpt lat="51.549660" lon="6.982396">
        <ele>37.475240</ele>
        <time>2025-08-12T11:59:04.961Z</time>
      </trkpt>
      <trkpt lat="51.549676" lon="6.982234">
        <ele>37.450486</ele>
        <time>2025-08-12T11:59:05.978Z</time>
      </trkpt>
      <trkpt lat="51.549772" lon="6.981148">
        <ele>37.445683</ele>
        <time>2025-08-12T11:59:13.414Z</time>
      </trkpt>
      <trkpt lat="51.549839" lon="6.980415">
        <ele>37.442440</ele>
        <time>2025-08-12T11:59:19.091Z</time>
      </trkpt>
      <trkpt lat="51.549841" lon="6.980393">
        <ele>37.442342</ele>
        <time>2025-08-12T11:59:19.281Z</time>
      </trkpt>
      <trkpt lat="51.549886" lon="6.979510">
        <ele>37.438463</ele>
        <time>2025-08-12T11:59:26.907Z</time>
      </trkpt>
      <trkpt lat="51.549858" lon="6.978457">
        <ele>37.621601</ele>
        <time>2025-08-12T11:59:36.226Z</time>
      </trkpt>
      <trkpt lat="51.549812" lon="6.978289">
        <ele>37.654993</ele>
        <time>2025-08-12T11:59:37.774Z</time>
      </trkpt>
      <trkpt lat="51.549678" lon="6.978082">
        <ele>37.709349</ele>
        <time>2025-08-12T11:59:40.226Z</time>
      </trkpt>
      <trkpt lat="51.549609" lon="6.977914">
        <ele>37.745974</ele>
        <time>2025-08-12T11:59:41.833Z</time>
      </trkpt>
      <trkpt lat="51.549663" lon="6.977517">
        <ele>37.819899</ele>
        <time>2025-08-12T11:59:44.934Z</time>
      </trkpt>
      <trkpt lat="51.549712" lon="6.975350">
        <ele>38.220373</ele>
        <time>2025-08-12T12:00:00.092Z</time>
      </trkpt>
      <trkpt lat="51.549758" lon="6.975117">
        <ele>38.265913</ele>
        <time>2025-08-12T12:00:02.052Z</time>
      </trkpt>
      <trkpt lat="51.550179" lon="6.973754">
        <ele>38.640288</ele>
        <time>2025-08-12T12:00:15.617Z</time>
      </trkpt>
      <trkpt lat="51.550620" lon="6.973566">
        <ele>39.046019</ele>
        <time>2025-08-12T12:00:22.919Z</time>
      </trkpt>
      <trkpt lat="51.551219" lon="6.973119">
        <ele>39.633273</ele>
        <time>2025-08-12T12:00:32.268Z</time>
      </trkpt>
      <trkpt lat="51.551307" lon="6.972965">
        <ele>39.748930</ele>
        <time>2025-08-12T12:00:34.052Z</time>
      </trkpt>
      <trkpt lat="51.551378" lon="6.972689">
        <ele>39.914099</ele>
        <time>2025-08-12T12:00:36.685Z</time>
      </trkpt>
      <trkpt lat="51.551523" lon="6.971897">
        <ele>40.542189</ele>
        <time>2025-08-12T12:00:44.195Z</time>
      </trkpt>
      <trkpt lat="51.553254" lon="6.971284">
        <ele>43.393305</ele>
        <time>2025-08-12T12:01:13.818Z</time>
      </trkpt>
      <trkpt lat="51.553798" lon="6.971085">
        <ele>44.745441</ele>
        <time>2025-08-12T12:01:25.752Z</time>
      </trkpt>
      <trkpt lat="51.554544" lon="6.970823">
        <ele>46.596083</ele>
        <time>2025-08-12T12:01:41.851Z</time>
      </trkpt>
      <trkpt lat="51.554721" lon="6.970801">
        <ele>47.026347</ele>
        <time>2025-08-12T12:01:45.463Z</time>
      </trkpt>
      <trkpt lat="51.555188" lon="6.970742">
        <ele>47.076859</ele>
        <time>2025-08-12T12:01:54.127Z</time>
      </trkpt>
      <trkpt lat="51.555745" lon="6.970680">
        <ele>47.065279</ele>
        <time>2025-08-12T12:02:01.165Z</time>
      </trkpt>
      <trkpt lat="51.555807" lon="6.971272">
        <ele>47.057537</ele>
        <time>2025-08-12T12:02:04.750Z</time>
      </trkpt>
      <trkpt lat="51.555888" lon="6.971634">
        <ele>47.052576</ele>
        <time>2025-08-12T12:02:06.909Z</time>
      </trkpt>
      <trkpt lat="51.555944" lon="6.971729">
        <ele>47.050888</ele>
        <time>2025-08-12T12:02:07.632Z</time>
      </trkpt>
      <trkpt lat="51.555973" lon="6.971858">
        <ele>47.049119</ele>
        <time>2025-08-12T12:02:08.379Z</time>
      </trkpt>
      <trkpt lat="51.556042" lon="6.972421">
        <ele>46.303718</ele>
        <time>2025-08-12T12:02:11.453Z</time>
      </trkpt>
      <trkpt lat="51.556180" lon="6.972869">
        <ele>45.621376</ele>
        <time>2025-08-12T12:02:14.097Z</time>
      </trkpt>
      <trkpt lat="51.557001" lon="6.975535">
        <ele>42.026506</ele>
        <time>2025-08-12T12:02:30.001Z</time>
      </trkpt>
      <trkpt lat="51.557112" lon="6.975917">
        <ele>41.625014</ele>
        <time>2025-08-12T12:02:32.414Z</time>
      </trkpt>
      <trkpt lat="51.557530" lon="6.977440">
        <ele>40.115657</ele>
        <time>2025-08-12T12:02:42.711Z</time>
      </trkpt>
      <trkpt lat="51.557534" lon="6.977731">
        <ele>39.907115</ele>
        <time>2025-08-12T12:02:44.534Z</time>
      </trkpt>
      <trkpt lat="51.557531" lon="6.978193">
        <ele>39.576090</ele>
        <time>2025-08-12T12:02:47.309Z</time>
      </trkpt>
      <trkpt lat="51.557515" lon="6.978485">
        <ele>39.366072</ele>
        <time>2025-08-12T12:02:49.048Z</time>
      </trkpt>
      <trkpt lat="51.557325" lon="6.979184">
        <ele>38.819491</ele>
        <time>2025-08-12T12:02:53.476Z</time>
      </trkpt>
      <trkpt lat="51.557335" lon="6.979425">
        <ele>38.646438</ele>
        <time>2025-08-12T12:02:54.858Z</time>
      </trkpt>
      <trkpt lat="51.557395" lon="6.979805">
        <ele>38.365538</ele>
        <time>2025-08-12T12:02:57.098Z</time>
      </trkpt>
      <trkpt lat="51.557412" lon="6.979913">
        <ele>38.285719</ele>
        <time>2025-08-12T12:02:57.754Z</time>
      </trkpt>
      <trkpt lat="51.557542" lon="6.980815">
        <ele>38.115009</ele>
        <time>2025-08-12T12:03:03.416Z</time>
      </trkpt>
      <trkpt lat="51.557563" lon="6.980941">
        <ele>38.092276</ele>
        <time>2025-08-12T12:03:05.730Z</time>
      </trkpt>
      <trkpt lat="51.557572" lon="6.980996">
        <ele>38.082365</ele>
        <time>2025-08-12T12:03:06.113Z</time>
      </trkpt>
      <trkpt lat="51.557661" lon="6.981496">
        <ele>37.991733</ele>
        <time>2025-08-12T12:03:09.806Z</time>
      </trkpt>
      <trkpt lat="51.557872" lon="6.982202">
        <ele>37.855226</ele>
        <time>2025-08-12T12:03:15.523Z</time>
      </trkpt>
      <trkpt lat="51.558022" lon="6.982537">
        <ele>37.783283</ele>
        <time>2025-08-12T12:03:18.875Z</time>
      </trkpt>
      <trkpt lat="51.558212" lon="6.982865">
        <ele>38.052985</ele>
        <time>2025-08-12T12:03:22.813Z</time>
      </trkpt>
      <trkpt lat="51.558390" lon="6.983121">
        <ele>38.349488</ele>
        <time>2025-08-12T12:03:26.350Z</time>
      </trkpt>
      <trkpt lat="51.558532" lon="6.983304">
        <ele>38.575432</ele>
        <time>2025-08-12T12:03:29.083Z</time>
      </trkpt>
      <trkpt lat="51.559106" lon="6.984033">
        <ele>39.483594</ele>
        <time>2025-08-12T12:03:40.382Z</time>
      </trkpt>
      <trkpt lat="51.559145" lon="6.984087">
        <ele>39.547493</ele>
        <time>2025-08-12T12:03:41.242Z</time>
      </trkpt>
      <trkpt lat="51.559290" lon="6.984296">
        <ele>39.789261</ele>
        <time>2025-08-12T12:03:44.672Z</time>
      </trkpt>
      <trkpt lat="51.559613" lon="6.984762">
        <ele>40.614990</ele>
        <time>2025-08-12T12:03:53.089Z</time>
      </trkpt>
      <trkpt lat="51.559804" lon="6.985166">
        <ele>41.352345</ele>
        <time>2025-08-12T12:03:59.396Z</time>
      </trkpt>
      <trkpt lat="51.559948" lon="6.985560">
        <ele>42.016326</ele>
        <time>2025-08-12T12:04:05.133Z</time>
      </trkpt>
      <trkpt lat="51.559970" lon="6.985635">
        <ele>42.136804</ele>
        <time>2025-08-12T12:04:06.198Z</time>
      </trkpt>
      <trkpt lat="51.560146" lon="6.986222">
        <ele>43.083579</ele>
        <time>2025-08-12T12:04:14.195Z</time>
      </trkpt>
      <trkpt lat="51.560445" lon="6.987237">
        <ele>44.489885</ele>
        <time>2025-08-12T12:04:27.685Z</time>
      </trkpt>
      <trkpt lat="51.560498" lon="6.987448">
        <ele>44.674241</ele>
        <time>2025-08-12T12:04:30.376Z</time>
      </trkpt>
      <trkpt lat="51.560586" lon="6.987810">
        <ele>44.989119</ele>
        <time>2025-08-12T12:04:34.809Z</time>
      </trkpt>
      <trkpt lat="51.560665" lon="6.987994">
        <ele>45.170269</ele>
        <time>2025-08-12T12:04:37.201Z</time>
      </trkpt>
      <trkpt lat="51.560654" lon="6.988126">
        <ele>45.278158</ele>
        <time>2025-08-12T12:04:38.588Z</time>
      </trkpt>
      <trkpt lat="51.560955" lon="6.988255">
        <ele>45.684064</ele>
        <time>2025-08-12T12:04:43.541Z</time>
      </trkpt>
      <trkpt lat="51.561343" lon="6.988312">
        <ele>46.191757</ele>
        <time>2025-08-12T12:04:49.166Z</time>
      </trkpt>
      <trkpt lat="51.564131" lon="6.987799">
        <ele>47.426396</ele>
        <time>2025-08-12T12:05:23.396Z</time>
      </trkpt>
      <trkpt lat="51.564645" lon="6.987806">
        <ele>47.844764</ele>
        <time>2025-08-12T12:05:31.389Z</time>
      </trkpt>
      <trkpt lat="51.564928" lon="6.987858">
        <ele>48.076601</ele>
        <time>2025-08-12T12:05:35.933Z</time>
      </trkpt>
      <trkpt lat="51.565397" lon="6.988071">
        <ele>48.618463</ele>
        <time>2025-08-12T12:05:43.880Z</time>
      </trkpt>
      <trkpt lat="51.565440" lon="6.987952">
        <ele>48.744439</ele>
        <time>2025-08-12T12:05:45.281Z</time>
      </trkpt>
      <trkpt lat="51.565487" lon="6.987778">
        <ele>48.918074</ele>
        <time>2025-08-12T12:05:47.233Z</time>
      </trkpt>
      <trkpt lat="51.565588" lon="6.987549">
        <ele>49.175056</ele>
        <time>2025-08-12T12:05:50.143Z</time>
      </trkpt>
      <trkpt lat="51.565653" lon="6.987437">
        <ele>49.315291</ele>
        <time>2025-08-12T12:05:51.775Z</time>
      </trkpt>
      <trkpt lat="51.565763" lon="6.987300">
        <ele>49.520111</ele>
        <time>2025-08-12T12:05:54.702Z</time>
      </trkpt>
      <trkpt lat="51.565936" lon="6.987127">
        <ele>49.820024</ele>
        <time>2025-08-12T12:05:58.951Z</time>
      </trkpt>
      <trkpt lat="51.566198" lon="6.986949">
        <ele>50.238763</ele>
        <time>2025-08-12T12:06:04.741Z</time>
      </trkpt>
      <trkpt lat="51.566545" lon="6.986855">
        <ele>50.756852</ele>
        <time>2025-08-12T12:06:11.869Z</time>
      </trkpt>
      <trkpt lat="51.568361" lon="6.986598">
        <ele>53.936579</ele>
        <time>2025-08-12T12:06:52.326Z</time>
      </trkpt>
      <trkpt lat="51.568616" lon="6.986566">
        <ele>54.293025</ele>
        <time>2025-08-12T12:06:57.901Z</time>
      </trkpt>
      <trkpt lat="51.569138" lon="6.986493">
        <ele>54.895765</ele>
        <time>2025-08-12T12:07:08.713Z</time>
      </trkpt>
      <trkpt lat="51.569409" lon="6.986455">
        <ele>55.208688</ele>
        <time>2025-08-12T12:07:14.122Z</time>
      </trkpt>
      <trkpt lat="51.569483" lon="6.986445">
        <ele>55.294113</ele>
        <time>2025-08-12T12:07:15.584Z</time>
      </trkpt>
      <trkpt lat="51.569528" lon="6.986592">
        <ele>55.411275</ele>
        <time>2025-08-12T12:07:17.128Z</time>
      </trkpt>
      <trkpt lat="51.569601" lon="6.986644">
        <ele>55.503112</ele>
        <time>2025-08-12T12:07:18.315Z</time>
      </trkpt>
      <trkpt lat="51.569648" lon="6.986784">
        <ele>55.616881</ele>
        <time>2025-08-12T12:07:19.801Z</time>
      </trkpt>
      <trkpt lat="51.569665" lon="6.986874">
        <ele>55.684137</ele>
        <time>2025-08-12T12:07:20.664Z</time>
      </trkpt>
      <trkpt lat="51.569903" lon="6.988191">
        <ele>56.678734</ele>
        <time>2025-08-12T12:07:32.110Z</time>
      </trkpt>
      <trkpt lat="51.570064" lon="6.989066">
        <ele>57.350136</ele>
        <time>2025-08-12T12:07:40.386Z</time>
      </trkpt>
      <trkpt lat="51.570118" lon="6.989453">
        <ele>57.641960</ele>
        <time>2025-08-12T12:07:44.340Z</time>
      </trkpt>
      <trkpt lat="51.570136" lon="6.989668">
        <ele>57.801575</ele>
        <time>2025-08-12T12:07:46.580Z</time>
      </trkpt>
      <trkpt lat="51.570235" lon="6.989671">
        <ele>57.918785</ele>
        <time>2025-08-12T12:07:48.296Z</time>
      </trkpt>
      <trkpt lat="51.571113" lon="6.989881">
        <ele>59.725865</ele>
        <time>2025-08-12T12:08:04.887Z</time>
      </trkpt>
      <trkpt lat="51.571627" lon="6.989956">
        <ele>61.041175</ele>
        <time>2025-08-12T12:08:15.403Z</time>
      </trkpt>
      <trkpt lat="51.572147" lon="6.989970">
        <ele>62.366585</ele>
        <time>2025-08-12T12:08:26.509Z</time>
      </trkpt>
      <trkpt lat="51.572327" lon="6.989942">
        <ele>62.827456</ele>
        <time>2025-08-12T12:08:30.384Z</time>
      </trkpt>
      <trkpt lat="51.572395" lon="6.989930">
        <ele>62.985563</ele>
        <time>2025-08-12T12:08:31.802Z</time>
      </trkpt>
      <trkpt lat="51.572970" lon="6.989823">
        <ele>64.231439</ele>
        <time>2025-08-12T12:08:43.410Z</time>
      </trkpt>
      <trkpt lat="51.573203" lon="6.989780">
        <ele>64.736235</ele>
        <time>2025-08-12T12:08:47.884Z</time>
      </trkpt>
      <trkpt lat="51.573313" lon="6.989653">
        <ele>65.027646</ele>
        <time>2025-08-12T12:08:50.368Z</time>
      </trkpt>
      <trkpt lat="51.573377" lon="6.989621">
        <ele>65.171897</ele>
        <time>2025-08-12T12:08:51.621Z</time>
      </trkpt>
      <trkpt lat="51.574124" lon="6.989396">
        <ele>66.785021</ele>
        <time>2025-08-12T12:09:05.314Z</time>
      </trkpt>
      <trkpt lat="51.574311" lon="6.989376">
        <ele>66.953644</ele>
        <time>2025-08-12T12:09:08.260Z</time>
      </trkpt>
      <trkpt lat="51.574359" lon="6.989483">
        <ele>67.027436</ele>
        <time>2025-08-12T12:09:09.483Z</time>
      </trkpt>
      <trkpt lat="51.574418" lon="6.989473">
        <ele>67.080815</ele>
        <time>2025-08-12T12:09:10.389Z</time>
      </trkpt>
      <trkpt lat="51.574451" lon="6.989387">
        <ele>67.137332</ele>
        <time>2025-08-12T12:09:11.354Z</time>
      </trkpt>
      <trkpt lat="51.574447" lon="6.989335">
        <ele>67.166632</ele>
        <time>2025-08-12T12:09:11.838Z</time>
      </trkpt>
      <trkpt lat="51.574548" lon="6.989325">
        <ele>67.257678</ele>
        <time>2025-08-12T12:09:13.422Z</time>
      </trkpt>
      <trkpt lat="51.574986" lon="6.989115">
        <ele>67.668890</ele>
        <time>2025-08-12T12:09:20.354Z</time>
      </trkpt>
      <trkpt lat="51.575682" lon="6.988885">
        <ele>68.308182</ele>
        <time>2025-08-12T12:09:30.398Z</time>
      </trkpt>
      <trkpt lat="51.576212" lon="6.988748">
        <ele>68.134226</ele>
        <time>2025-08-12T12:09:36.904Z</time>
      </trkpt>
      <trkpt lat="51.576303" lon="6.988727">
        <ele>68.082469</ele>
        <time>2025-08-12T12:09:37.929Z</time>
      </trkpt>
      <trkpt lat="51.576605" lon="6.988660">
        <ele>67.910835</ele>
        <time>2025-08-12T12:09:41.133Z</time>
      </trkpt>
      <trkpt lat="51.576729" lon="6.988632">
        <ele>67.840339</ele>
        <time>2025-08-12T12:09:42.403Z</time>
      </trkpt>
      <trkpt lat="51.577639" lon="6.988247">
        <ele>67.184396</ele>
        <time>2025-08-12T12:09:51.580Z</time>
      </trkpt>
      <trkpt lat="51.578098" lon="6.988019">
        <ele>66.379343</ele>
        <time>2025-08-12T12:09:56.093Z</time>
      </trkpt>
      <trkpt lat="51.578791" lon="6.987643">
        <ele>65.153706</ele>
        <time>2025-08-12T12:10:02.669Z</time>
      </trkpt>
      <trkpt lat="51.579333" lon="6.987284">
        <ele>64.128579</ele>
        <time>2025-08-12T12:10:09.991Z</time>
      </trkpt>
      <trkpt lat="51.579442" lon="6.987173">
        <ele>63.863300</ele>
        <time>2025-08-12T12:10:11.574Z</time>
      </trkpt>
      <trkpt lat="51.579354" lon="6.986976">
        <ele>63.553238</ele>
        <time>2025-08-12T12:10:13.424Z</time>
      </trkpt>
      <trkpt lat="51.579425" lon="6.986902">
        <ele>63.379272</ele>
        <time>2025-08-12T12:10:20.383Z</time>
      </trkpt>
      <trkpt lat="51.579491" lon="6.986983">
        <ele>63.208570</ele>
        <time>2025-08-12T12:10:27.250Z</time>
      </trkpt>
      <trkpt lat="51.579668" lon="6.986845">
        <ele>62.804087</ele>
        <time>2025-08-12T12:10:28.919Z</time>
      </trkpt>
      <trkpt lat="51.580857" lon="6.986064">
        <ele>60.332035</ele>
        <time>2025-08-12T12:10:40.178Z</time>
      </trkpt>
      <trkpt lat="51.581369" lon="6.985716">
        <ele>59.576914</ele>
        <time>2025-08-12T12:10:45.374Z</time>
      </trkpt>
      <trkpt lat="51.581516" lon="6.985621">
        <ele>59.361692</ele>
        <time>2025-08-12T12:10:46.864Z</time>
      </trkpt>
      <trkpt lat="51.581836" lon="6.985418">
        <ele>58.894370</ele>
        <time>2025-08-12T12:10:50.080Z</time>
      </trkpt>
      <trkpt lat="51.582195" lon="6.985178">
        <ele>58.366209</ele>
        <time>2025-08-12T12:10:53.805Z</time>
      </trkpt>
      <trkpt lat="51.582363" lon="6.985080">
        <ele>58.241502</ele>
        <time>2025-08-12T12:10:55.576Z</time>
      </trkpt>
      <trkpt lat="51.582481" lon="6.984984">
        <ele>58.287546</ele>
        <time>2025-08-12T12:10:56.953Z</time>
      </trkpt>
      <trkpt lat="51.582730" lon="6.984804">
        <ele>58.382601</ele>
        <time>2025-08-12T12:10:59.915Z</time>
      </trkpt>
      <trkpt lat="51.582904" lon="6.984622">
        <ele>58.454866</ele>
        <time>2025-08-12T12:11:02.193Z</time>
      </trkpt>
      <trkpt lat="51.583158" lon="6.984264">
        <ele>58.572443</ele>
        <time>2025-08-12T12:11:05.983Z</time>
      </trkpt>
      <trkpt lat="51.583341" lon="6.983895">
        <ele>58.674600</ele>
        <time>2025-08-12T12:11:09.637Z</time>
      </trkpt>
      <trkpt lat="51.583370" lon="6.983807">
        <ele>58.696154</ele>
        <time>2025-08-12T12:11:10.821Z</time>
      </trkpt>
      <trkpt lat="51.583767" lon="6.982616">
        <ele>59.785872</ele>
        <time>2025-08-12T12:11:29.994Z</time>
      </trkpt>
      <trkpt lat="51.583784" lon="6.982556">
        <ele>59.878678</ele>
        <time>2025-08-12T12:11:31.011Z</time>
      </trkpt>
      <trkpt lat="51.584051" lon="6.981633">
        <ele>61.311528</ele>
        <time>2025-08-12T12:11:46.398Z</time>
      </trkpt>
      <trkpt lat="51.584156" lon="6.981451">
        <ele>61.661046</ele>
        <time>2025-08-12T12:11:49.538Z</time>
      </trkpt>
      <trkpt lat="51.584544" lon="6.980973">
        <ele>62.767755</ele>
        <time>2025-08-12T12:11:59.710Z</time>
      </trkpt>
      <trkpt lat="51.584797" lon="6.980343">
        <ele>63.401556</ele>
        <time>2025-08-12T12:12:08.097Z</time>
      </trkpt>
      <trkpt lat="51.584818" lon="6.979438">
        <ele>64.082530</ele>
        <time>2025-08-12T12:12:16.342Z</time>
      </trkpt>
      <trkpt lat="51.584749" lon="6.978120">
        <ele>65.077091</ele>
        <time>2025-08-12T12:12:27.999Z</time>
      </trkpt>
      <trkpt lat="51.587981" lon="6.977084">
        <ele>68.681852</ele>
        <time>2025-08-12T12:13:18.647Z</time>
      </trkpt>
      <trkpt lat="51.588084" lon="6.977050">
        <ele>68.802517</ele>
        <time>2025-08-12T12:13:20.375Z</time>
      </trkpt>
      <trkpt lat="51.588302" lon="6.976986">
        <ele>69.052599</ele>
        <time>2025-08-12T12:13:23.933Z</time>
      </trkpt>
      <trkpt lat="51.588344" lon="6.976974">
        <ele>69.084899</ele>
        <time>2025-08-12T12:13:24.613Z</time>
      </trkpt>
      <trkpt lat="51.588561" lon="6.976947">
        <ele>69.249704</ele>
        <time>2025-08-12T12:13:28.071Z</time>
      </trkpt>
      <trkpt lat="51.588903" lon="6.976847">
        <ele>69.512910</ele>
        <time>2025-08-12T12:13:35.023Z</time>
      </trkpt>
      <trkpt lat="51.589014" lon="6.976801">
        <ele>69.599702</ele>
        <time>2025-08-12T12:13:37.281Z</time>
      </trkpt>
      <trkpt lat="51.590673" lon="6.975718">
        <ele>70.145074</ele>
        <time>2025-08-12T12:14:08.716Z</time>
      </trkpt>
      <trkpt lat="51.591897" lon="6.974791">
        <ele>69.427844</ele>
        <time>2025-08-12T12:14:27.965Z</time>
      </trkpt>
      <trkpt lat="51.592909" lon="6.974103">
        <ele>68.127623</ele>
        <time>2025-08-12T12:14:42.456Z</time>
      </trkpt>
      <trkpt lat="51.593049" lon="6.974043">
        <ele>67.956151</ele>
        <time>2025-08-12T12:14:44.382Z</time>
      </trkpt>
      <trkpt lat="51.594020" lon="6.973384">
        <ele>66.971680</ele>
        <time>2025-08-12T12:14:59.273Z</time>
      </trkpt>
      <trkpt lat="51.594131" lon="6.973359">
        <ele>66.876895</ele>
        <time>2025-08-12T12:15:00.951Z</time>
      </trkpt>
      <trkpt lat="51.594881" lon="6.972846">
        <ele>66.187753</ele>
        <time>2025-08-12T12:15:12.624Z</time>
      </trkpt>
      <trkpt lat="51.595123" lon="6.972691">
        <ele>65.938894</ele>
        <time>2025-08-12T12:15:16.211Z</time>
      </trkpt>
      <trkpt lat="51.595214" lon="6.972626">
        <ele>65.837589</ele>
        <time>2025-08-12T12:15:17.576Z</time>
      </trkpt>
      <trkpt lat="51.595286" lon="6.972655">
        <ele>65.762066</ele>
        <time>2025-08-12T12:15:18.576Z</time>
      </trkpt>
      <trkpt lat="51.595349" lon="6.972566">
        <ele>65.676774</ele>
        <time>2025-08-12T12:15:19.713Z</time>
      </trkpt>
      <trkpt lat="51.595351" lon="6.972491">
        <ele>65.629322</ele>
        <time>2025-08-12T12:15:20.352Z</time>
      </trkpt>
      <trkpt lat="51.595491" lon="6.972466">
        <ele>65.485989</ele>
        <time>2025-08-12T12:15:22.259Z</time>
      </trkpt>
      <trkpt lat="51.595662" lon="6.972355">
        <ele>65.298372</ele>
        <time>2025-08-12T12:15:24.734Z</time>
      </trkpt>
      <trkpt lat="51.596683" lon="6.971692">
        <ele>64.219592</ele>
        <time>2025-08-12T12:15:39.997Z</time>
      </trkpt>
      <trkpt lat="51.597330" lon="6.971172">
        <ele>63.789443</ele>
        <time>2025-08-12T12:15:50.722Z</time>
      </trkpt>
      <trkpt lat="51.598089" lon="6.970633">
        <ele>63.295995</ele>
        <time>2025-08-12T12:16:03.218Z</time>
      </trkpt>
      <trkpt lat="51.598511" lon="6.970400">
        <ele>63.102713</ele>
        <time>2025-08-12T12:16:09.574Z</time>
      </trkpt>
      <trkpt lat="51.599096" lon="6.970101">
        <ele>62.885917</ele>
        <time>2025-08-12T12:16:15.760Z</time>
      </trkpt>
      <trkpt lat="51.599529" lon="6.969880">
        <ele>62.725472</ele>
        <time>2025-08-12T12:16:20.796Z</time>
      </trkpt>
      <trkpt lat="51.599782" lon="6.969750">
        <ele>62.631667</ele>
        <time>2025-08-12T12:16:23.969Z</time>
      </trkpt>
      <trkpt lat="51.599963" lon="6.969658">
        <ele>62.587629</ele>
        <time>2025-08-12T12:16:26.349Z</time>
      </trkpt>
      <trkpt lat="51.600018" lon="6.969634">
        <ele>62.624215</ele>
        <time>2025-08-12T12:16:27.078Z</time>
      </trkpt>
      <trkpt lat="51.600169" lon="6.969593">
        <ele>62.722530</ele>
        <time>2025-08-12T12:16:29.073Z</time>
      </trkpt>
      <trkpt lat="51.600295" lon="6.969566">
        <ele>62.804140</ele>
        <time>2025-08-12T12:16:30.783Z</time>
      </trkpt>
      <trkpt lat="51.600776" lon="6.969586">
        <ele>63.113059</ele>
        <time>2025-08-12T12:16:37.563Z</time>
      </trkpt>
      <trkpt lat="51.601407" lon="6.969659">
        <ele>63.519224</ele>
        <time>2025-08-12T12:16:47.153Z</time>
      </trkpt>
      <trkpt lat="51.603037" lon="6.969863">
        <ele>64.333556</ele>
        <time>2025-08-12T12:17:09.548Z</time>
      </trkpt>
      <trkpt lat="51.603299" lon="6.969963">
        <ele>64.458074</ele>
        <time>2025-08-12T12:17:13.052Z</time>
      </trkpt>
      <trkpt lat="51.605471" lon="6.970827">
        <ele>64.259692</ele>
        <time>2025-08-12T12:17:39.948Z</time>
      </trkpt>
      <trkpt lat="51.605738" lon="6.970880">
        <ele>63.895840</ele>
        <time>2025-08-12T12:17:42.627Z</time>
      </trkpt>
      <trkpt lat="51.605792" lon="6.970876">
        <ele>63.822727</ele>
        <time>2025-08-12T12:17:43.158Z</time>
      </trkpt>
      <trkpt lat="51.607646" lon="6.970216">
        <ele>61.279977</ele>
        <time>2025-08-12T12:18:00.027Z</time>
      </trkpt>
      <trkpt lat="51.608070" lon="6.970059">
        <ele>60.708699</ele>
        <time>2025-08-12T12:18:03.992Z</time>
      </trkpt>
      <trkpt lat="51.608936" lon="6.969739">
        <ele>59.690939</ele>
        <time>2025-08-12T12:18:13.034Z</time>
      </trkpt>
      <trkpt lat="51.609069" lon="6.969689">
        <ele>59.632797</ele>
        <time>2025-08-12T12:18:14.500Z</time>
      </trkpt>
      <trkpt lat="51.609478" lon="6.969532">
        <ele>59.453804</ele>
        <time>2025-08-12T12:18:19.294Z</time>
      </trkpt>
      <trkpt lat="51.610061" lon="6.969320">
        <ele>59.199366</ele>
        <time>2025-08-12T12:18:26.051Z</time>
      </trkpt>
      <trkpt lat="51.610093" lon="6.969307">
        <ele>59.185317</ele>
        <time>2025-08-12T12:18:26.400Z</time>
      </trkpt>
      <trkpt lat="51.610477" lon="6.969166">
        <ele>59.017649</ele>
        <time>2025-08-12T12:18:30.624Z</time>
      </trkpt>
      <trkpt lat="51.610596" lon="6.969122">
        <ele>58.945154</ele>
        <time>2025-08-12T12:18:31.850Z</time>
      </trkpt>
      <trkpt lat="51.610855" lon="6.969023">
        <ele>58.756871</ele>
        <time>2025-08-12T12:18:34.488Z</time>
      </trkpt>
      <trkpt lat="51.610898" lon="6.969006">
        <ele>58.725554</ele>
        <time>2025-08-12T12:18:34.929Z</time>
      </trkpt>
      <trkpt lat="51.611276" lon="6.968866">
        <ele>58.451210</ele>
        <time>2025-08-12T12:18:38.867Z</time>
      </trkpt>
      <trkpt lat="51.611385" lon="6.968832">
        <ele>58.372681</ele>
        <time>2025-08-12T12:18:40.011Z</time>
      </trkpt>
      <trkpt lat="51.611806" lon="6.968668">
        <ele>58.066315</ele>
        <time>2025-08-12T12:18:44.382Z</time>
      </trkpt>
      <trkpt lat="51.612488" lon="6.968425">
        <ele>57.533451</ele>
        <time>2025-08-12T12:18:51.616Z</time>
      </trkpt>
      <trkpt lat="51.612716" lon="6.969289">
        <ele>57.015989</ele>
        <time>2025-08-12T12:18:57.509Z</time>
      </trkpt>
      <trkpt lat="51.613040" lon="6.969910">
        <ele>56.568909</ele>
        <time>2025-08-12T12:19:02.453Z</time>
      </trkpt>
      <trkpt lat="51.613164" lon="6.970143">
        <ele>56.399766</ele>
        <time>2025-08-12T12:19:04.300Z</time>
      </trkpt>
      <trkpt lat="51.613363" lon="6.970872">
        <ele>55.862165</ele>
        <time>2025-08-12T12:19:09.093Z</time>
      </trkpt>
      <trkpt lat="51.613299" lon="6.971052">
        <ele>55.680330</ele>
        <time>2025-08-12T12:19:10.350Z</time>
      </trkpt>
      <trkpt lat="51.613223" lon="6.971300">
        <ele>55.437886</ele>
        <time>2025-08-12T12:19:12.005Z</time>
      </trkpt>
      <trkpt lat="51.613256" lon="6.971399">
        <ele>55.339383</ele>
        <time>2025-08-12T12:19:12.667Z</time>
      </trkpt>
      <trkpt lat="51.613372" lon="6.971728">
        <ele>55.007713</ele>
        <time>2025-08-12T12:19:14.897Z</time>
      </trkpt>
      <trkpt lat="51.613420" lon="6.971866">
        <ele>54.869049</ele>
        <time>2025-08-12T12:19:15.828Z</time>
      </trkpt>
      <trkpt lat="51.613522" lon="6.972190">
        <ele>54.550597</ele>
        <time>2025-08-12T12:19:17.937Z</time>
      </trkpt>
      <trkpt lat="51.613565" lon="6.972351">
        <ele>54.396955</ele>
        <time>2025-08-12T12:19:18.941Z</time>
      </trkpt>
      <trkpt lat="51.613639" lon="6.972610">
        <ele>54.147021</ele>
        <time>2025-08-12T12:19:20.570Z</time>
      </trkpt>
      <trkpt lat="51.613706" lon="6.972841">
        <ele>53.923514</ele>
        <time>2025-08-12T12:19:22.011Z</time>
      </trkpt>
      <trkpt lat="51.613775" lon="6.973121">
        <ele>53.659430</ele>
        <time>2025-08-12T12:19:23.701Z</time>
      </trkpt>
      <trkpt lat="51.613909" lon="6.973557">
        <ele>53.073979</ele>
        <time>2025-08-12T12:19:26.375Z</time>
      </trkpt>
      <trkpt lat="51.614061" lon="6.973899">
        <ele>52.540505</ele>
        <time>2025-08-12T12:19:28.625Z</time>
      </trkpt>
      <trkpt lat="51.614102" lon="6.974122">
        <ele>52.245505</ele>
        <time>2025-08-12T12:19:29.851Z</time>
      </trkpt>
      <trkpt lat="51.614024" lon="6.974213">
        <ele>52.048755</ele>
        <time>2025-08-12T12:19:30.663Z</time>
      </trkpt>
      <trkpt lat="51.614009" lon="6.974354">
        <ele>51.867300</ele>
        <time>2025-08-12T12:19:31.406Z</time>
      </trkpt>
      <trkpt lat="51.614053" lon="6.974789">
        <ele>51.308256</ele>
        <time>2025-08-12T12:19:33.738Z</time>
      </trkpt>
      <trkpt lat="51.614139" lon="6.975363">
        <ele>50.559279</ele>
        <time>2025-08-12T12:19:36.935Z</time>
      </trkpt>
      <trkpt lat="51.614187" lon="6.975688">
        <ele>50.135537</ele>
        <time>2025-08-12T12:19:38.774Z</time>
      </trkpt>
      <trkpt lat="51.614252" lon="6.975913">
        <ele>49.850895</ele>
        <time>2025-08-12T12:19:40.165Z</time>
      </trkpt>
      <trkpt lat="51.614338" lon="6.976109">
        <ele>49.644282</ele>
        <time>2025-08-12T12:19:41.524Z</time>
      </trkpt>
      <trkpt lat="51.614414" lon="6.976285">
        <ele>49.459726</ele>
        <time>2025-08-12T12:19:42.732Z</time>
      </trkpt>
      <trkpt lat="51.614491" lon="6.976474">
        <ele>49.265119</ele>
        <time>2025-08-12T12:19:44.014Z</time>
      </trkpt>
      <trkpt lat="51.614560" lon="6.976644">
        <ele>49.090273</ele>
        <time>2025-08-12T12:19:45.169Z</time>
      </trkpt>
      <trkpt lat="51.615182" lon="6.978072">
        <ele>47.588606</ele>
        <time>2025-08-12T12:19:55.280Z</time>
      </trkpt>
      <trkpt lat="51.615601" lon="6.979431">
        <ele>48.008630</ele>
        <time>2025-08-12T12:20:04.882Z</time>
      </trkpt>
      <trkpt lat="51.615689" lon="6.979799">
        <ele>48.183904</ele>
        <time>2025-08-12T12:20:08.502Z</time>
      </trkpt>
      <trkpt lat="51.615744" lon="6.980126">
        <ele>48.334483</ele>
        <time>2025-08-12T12:20:12.115Z</time>
      </trkpt>
      <trkpt lat="51.615755" lon="6.980407">
        <ele>48.459626</ele>
        <time>2025-08-12T12:20:15.459Z</time>
      </trkpt>
      <trkpt lat="51.615599" lon="6.982073">
        <ele>49.755512</ele>
        <time>2025-08-12T12:20:37.309Z</time>
      </trkpt>
      <trkpt lat="51.615425" lon="6.983917">
        <ele>51.394827</ele>
        <time>2025-08-12T12:20:54.955Z</time>
      </trkpt>
      <trkpt lat="51.615151" lon="6.985046">
        <ele>51.277000</ele>
        <time>2025-08-12T12:21:02.597Z</time>
      </trkpt>
      <trkpt lat="51.615093" lon="6.985131">
        <ele>51.264724</ele>
        <time>2025-08-12T12:21:03.400Z</time>
      </trkpt>
      <trkpt lat="51.614880" lon="6.985243">
        <ele>51.229648</ele>
        <time>2025-08-12T12:21:05.690Z</time>
      </trkpt>
      <trkpt lat="51.614669" lon="6.985337">
        <ele>51.195377</ele>
        <time>2025-08-12T12:21:07.980Z</time>
      </trkpt>
      <trkpt lat="51.613820" lon="6.985718">
        <ele>51.635344</ele>
        <time>2025-08-12T12:21:19.133Z</time>
      </trkpt>
      <trkpt lat="51.612915" lon="6.986127">
        <ele>52.797084</ele>
        <time>2025-08-12T12:21:34.228Z</time>
      </trkpt>
      <trkpt lat="51.612905" lon="6.986132">
        <ele>52.810026</ele>
        <time>2025-08-12T12:21:34.428Z</time>
      </trkpt>
      <trkpt lat="51.611854" lon="6.986314">
        <ele>54.404639</ele>
        <time>2025-08-12T12:21:54.112Z</time>
      </trkpt>
      <trkpt lat="51.611367" lon="6.986521">
        <ele>55.259786</ele>
        <time>2025-08-12T12:22:03.236Z</time>
      </trkpt>
      <trkpt lat="51.610658" lon="6.986884">
        <ele>56.429585</ele>
        <time>2025-08-12T12:22:15.444Z</time>
      </trkpt>
      <trkpt lat="51.610472" lon="6.986936">
        <ele>56.508421</ele>
        <time>2025-08-12T12:22:18.186Z</time>
      </trkpt>
      <trkpt lat="51.610529" lon="6.987654">
        <ele>56.696140</ele>
        <time>2025-08-12T12:22:26.122Z</time>
      </trkpt>
      <trkpt lat="51.610539" lon="6.987774">
        <ele>56.727539</ele>
        <time>2025-08-12T12:22:27.399Z</time>
      </trkpt>
      <trkpt lat="51.610664" lon="6.989454">
        <ele>57.163772</ele>
        <time>2025-08-12T12:22:44.647Z</time>
      </trkpt>
      <trkpt lat="51.610722" lon="6.990257">
        <ele>57.339941</ele>
        <time>2025-08-12T12:22:53.114Z</time>
      </trkpt>
      <trkpt lat="51.610705" lon="6.990597">
        <ele>57.414273</ele>
        <time>2025-08-12T12:22:56.728Z</time>
      </trkpt>
      <trkpt lat="51.610607" lon="6.990986">
        <ele>57.505753</ele>
        <time>2025-08-12T12:23:01.223Z</time>
      </trkpt>
      <trkpt lat="51.609490" lon="6.994164">
        <ele>58.636007</ele>
        <time>2025-08-12T12:23:41.467Z</time>
      </trkpt>
      <trkpt lat="51.609310" lon="6.994657">
        <ele>58.875651</ele>
        <time>2025-08-12T12:23:47.932Z</time>
      </trkpt>
      <trkpt lat="51.609227" lon="6.994908">
        <ele>59.136853</ele>
        <time>2025-08-12T12:23:50.545Z</time>
      </trkpt>
      <trkpt lat="51.609139" lon="6.995247">
        <ele>59.474349</ele>
        <time>2025-08-12T12:23:54.064Z</time>
      </trkpt>
      <trkpt lat="51.609079" lon="6.995800">
        <ele>59.990000</ele>
        <time>2025-08-12T12:23:59.817Z</time>
      </trkpt>
      <trkpt lat="51.608785" lon="6.999230">
        <ele>62.237893</ele>
        <time>2025-08-12T12:24:37.483Z</time>
      </trkpt>
      <trkpt lat="51.610300" lon="6.999292">
        <ele>61.124639</ele>
        <time>2025-08-12T12:24:51.958Z</time>
      </trkpt>
      <trkpt lat="51.611560" lon="6.999359">
        <ele>58.655346</ele>
        <time>2025-08-12T12:25:02.725Z</time>
      </trkpt>
      <trkpt lat="51.611848" lon="6.999246">
        <ele>57.936869</ele>
        <time>2025-08-12T12:25:05.196Z</time>
      </trkpt>
      <trkpt lat="51.612469" lon="6.998901">
        <ele>56.344633</ele>
        <time>2025-08-12T12:25:10.677Z</time>
      </trkpt>
      <trkpt lat="51.612748" lon="6.998610">
        <ele>55.538942</ele>
        <time>2025-08-12T12:25:13.468Z</time>
      </trkpt>
      <trkpt lat="51.613310" lon="6.997799">
        <ele>54.478379</ele>
        <time>2025-08-12T12:25:20.356Z</time>
      </trkpt>
      <trkpt lat="51.613708" lon="6.997406">
        <ele>53.982573</ele>
        <time>2025-08-12T12:25:24.921Z</time>
      </trkpt>
      <trkpt lat="51.614405" lon="6.997081">
        <ele>53.211956</ele>
        <time>2025-08-12T12:25:32.433Z</time>
      </trkpt>
      <trkpt lat="51.614545" lon="6.997016">
        <ele>53.157081</ele>
        <time>2025-08-12T12:25:33.988Z</time>
      </trkpt>
      <trkpt lat="51.615899" lon="6.996791">
        <ele>53.020064</ele>
        <time>2025-08-12T12:25:49.334Z</time>
      </trkpt>
      <trkpt lat="51.616070" lon="6.996789">
        <ele>53.002851</ele>
        <time>2025-08-12T12:25:51.523Z</time>
      </trkpt>
      <trkpt lat="51.616489" lon="6.996814">
        <ele>53.038988</ele>
        <time>2025-08-12T12:25:57.081Z</time>
      </trkpt>
      <trkpt lat="51.616616" lon="6.996858">
        <ele>53.065556</ele>
        <time>2025-08-12T12:25:58.864Z</time>
      </trkpt>
      <trkpt lat="51.616902" lon="6.997064">
        <ele>53.129631</ele>
        <time>2025-08-12T12:26:03.212Z</time>
      </trkpt>
      <trkpt lat="51.617051" lon="6.997128">
        <ele>53.161169</ele>
        <time>2025-08-12T12:26:05.321Z</time>
      </trkpt>
      <trkpt lat="51.617855" lon="6.997089">
        <ele>53.325675</ele>
        <time>2025-08-12T12:26:15.737Z</time>
      </trkpt>
      <trkpt lat="51.618114" lon="6.997075">
        <ele>53.208023</ele>
        <time>2025-08-12T12:26:18.568Z</time>
      </trkpt>
      <trkpt lat="51.618198" lon="6.997071">
        <ele>53.104692</ele>
        <time>2025-08-12T12:26:19.436Z</time>
      </trkpt>
      <trkpt lat="51.618269" lon="6.997093">
        <ele>53.015790</ele>
        <time>2025-08-12T12:26:20.167Z</time>
      </trkpt>
      <trkpt lat="51.618451" lon="6.997238">
        <ele>52.766123</ele>
        <time>2025-08-12T12:26:22.163Z</time>
      </trkpt>
      <trkpt lat="51.618745" lon="6.997487">
        <ele>52.357689</ele>
        <time>2025-08-12T12:26:25.259Z</time>
      </trkpt>
      <trkpt lat="51.618910" lon="6.997579">
        <ele>52.142993</ele>
        <time>2025-08-12T12:26:26.837Z</time>
      </trkpt>
      <trkpt lat="51.619715" lon="6.997933">
        <ele>51.113108</ele>
        <time>2025-08-12T12:26:34.346Z</time>
      </trkpt>
      <trkpt lat="51.619936" lon="6.997977">
        <ele>50.798600</ele>
        <time>2025-08-12T12:26:36.374Z</time>
      </trkpt>
      <trkpt lat="51.620136" lon="6.997862">
        <ele>50.498666</ele>
        <time>2025-08-12T12:26:38.338Z</time>
      </trkpt>
      <trkpt lat="51.620982" lon="6.997036">
        <ele>49.101411</ele>
        <time>2025-08-12T12:26:47.895Z</time>
      </trkpt>
      <trkpt lat="51.621151" lon="6.996771">
        <ele>48.768289</ele>
        <time>2025-08-12T12:26:50.070Z</time>
      </trkpt>
      <trkpt lat="51.621266" lon="6.996503">
        <ele>48.459848</ele>
        <time>2025-08-12T12:26:51.896Z</time>
      </trkpt>
      <trkpt lat="51.622429" lon="6.997866">
        <ele>46.042332</ele>
        <time>2025-08-12T12:27:04.422Z</time>
      </trkpt>
      <trkpt lat="51.623778" lon="6.999566">
        <ele>44.616650</ele>
        <time>2025-08-12T12:27:22.248Z</time>
      </trkpt>
      <trkpt lat="51.623982" lon="6.999722">
        <ele>44.465417</ele>
        <time>2025-08-12T12:27:24.738Z</time>
      </trkpt>
      <trkpt lat="51.624209" lon="6.999992">
        <ele>44.285226</ele>
        <time>2025-08-12T12:27:27.755Z</time>
      </trkpt>
      <trkpt lat="51.624239" lon="7.000170">
        <ele>44.215402</ele>
        <time>2025-08-12T12:27:28.948Z</time>
      </trkpt>
      <trkpt lat="51.624059" lon="7.002264">
        <ele>43.415124</ele>
        <time>2025-08-12T12:27:42.420Z</time>
      </trkpt>
      <trkpt lat="51.624065" lon="7.002446">
        <ele>43.346128</ele>
        <time>2025-08-12T12:27:43.618Z</time>
      </trkpt>
      <trkpt lat="51.624505" lon="7.004793">
        <ele>42.107372</ele>
        <time>2025-08-12T12:27:59.632Z</time>
      </trkpt>
      <trkpt lat="51.624811" lon="7.006404">
        <ele>40.758529</ele>
        <time>2025-08-12T12:28:09.155Z</time>
      </trkpt>
      <trkpt lat="51.625219" lon="7.008006">
        <ele>39.080133</ele>
        <time>2025-08-12T12:28:18.711Z</time>
      </trkpt>
      <trkpt lat="51.625576" lon="7.008433">
        <ele>38.830980</ele>
        <time>2025-08-12T12:28:23.129Z</time>
      </trkpt>
      <trkpt lat="51.625963" lon="7.008735">
        <ele>38.665548</ele>
        <time>2025-08-12T12:28:27.842Z</time>
      </trkpt>
      <trkpt lat="51.626035" lon="7.008780">
        <ele>38.635837</ele>
        <time>2025-08-12T12:28:28.720Z</time>
      </trkpt>
      <trkpt lat="51.626359" lon="7.009114">
        <ele>38.487853</ele>
        <time>2025-08-12T12:28:33.335Z</time>
      </trkpt>
      <trkpt lat="51.626488" lon="7.009247">
        <ele>38.428932</ele>
        <time>2025-08-12T12:28:35.241Z</time>
      </trkpt>
      <trkpt lat="51.626536" lon="7.009304">
        <ele>38.405991</ele>
        <time>2025-08-12T12:28:35.978Z</time>
      </trkpt>
      <trkpt lat="51.625921" lon="7.010131">
        <ele>38.137300</ele>
        <time>2025-08-12T12:28:45.423Z</time>
      </trkpt>
      <trkpt lat="51.625990" lon="7.010345">
        <ele>38.091891</ele>
        <time>2025-08-12T12:28:47.073Z</time>
      </trkpt>
      <trkpt lat="51.626029" lon="7.010488">
        <ele>38.062480</ele>
        <time>2025-08-12T12:28:48.121Z</time>
      </trkpt>
      <trkpt lat="51.626575" lon="7.011642">
        <ele>37.789259</ele>
        <time>2025-08-12T12:28:57.808Z</time>
      </trkpt>
      <trkpt lat="51.626633" lon="7.011914">
        <ele>37.733567</ele>
        <time>2025-08-12T12:28:59.722Z</time>
      </trkpt>
      <trkpt lat="51.626631" lon="7.012148">
        <ele>37.672021</ele>
        <time>2025-08-12T12:29:01.286Z</time>
      </trkpt>
      <trkpt lat="51.626619" lon="7.013944">
        <ele>37.199654</ele>
        <time>2025-08-12T12:29:12.957Z</time>
      </trkpt>
      <trkpt lat="51.626651" lon="7.014068">
        <ele>37.164337</ele>
        <time>2025-08-12T12:29:13.798Z</time>
      </trkpt>
      <trkpt lat="51.626708" lon="7.014169">
        <ele>37.128439</ele>
        <time>2025-08-12T12:29:14.669Z</time>
      </trkpt>
      <trkpt lat="51.626786" lon="7.014242">
        <ele>37.090222</ele>
        <time>2025-08-12T12:29:15.618Z</time>
      </trkpt>
      <trkpt lat="51.627328" lon="7.014396">
        <ele>37.211381</ele>
        <time>2025-08-12T12:29:21.936Z</time>
      </trkpt>
      <trkpt lat="51.627481" lon="7.014510">
        <ele>37.350971</ele>
        <time>2025-08-12T12:29:24.096Z</time>
      </trkpt>
      <trkpt lat="51.627548" lon="7.014616">
        <ele>37.428734</ele>
        <time>2025-08-12T12:29:25.347Z</time>
      </trkpt>
      <trkpt lat="51.627641" lon="7.014817">
        <ele>37.557599</ele>
        <time>2025-08-12T12:29:27.502Z</time>
      </trkpt>
      <trkpt lat="51.627663" lon="7.014989">
        <ele>37.647871</ele>
        <time>2025-08-12T12:29:29.080Z</time>
      </trkpt>
      <trkpt lat="51.627581" lon="7.015343">
        <ele>37.842097</ele>
        <time>2025-08-12T12:29:32.652Z</time>
      </trkpt>
      <trkpt lat="51.627280" lon="7.016831">
        <ele>38.607351</ele>
        <time>2025-08-12T12:31:04.147Z</time>
      </trkpt>
      <trkpt lat="51.626879" lon="7.018084">
        <ele>39.174256</ele>
        <time>2025-08-12T12:32:24.772Z</time>
      </trkpt>
      <trkpt lat="51.626671" lon="7.019407">
        <ele>39.563896</ele>
        <time>2025-08-12T12:33:39.938Z</time>
      </trkpt>
      <trkpt lat="51.626686" lon="7.019462">
        <ele>39.546040</ele>
        <time>2025-08-12T12:33:43.207Z</time>
      </trkpt>
      <trkpt lat="51.626889" lon="7.019598">
        <ele>39.440774</ele>
        <time>2025-08-12T12:34:02.405Z</time>
      </trkpt>
      <trkpt lat="51.626985" lon="7.019662">
        <ele>39.391029</ele>
        <time>2025-08-12T12:34:11.390Z</time>
      </trkpt>
      <trkpt lat="51.627364" lon="7.019850">
        <ele>39.201157</ele>
        <time>2025-08-12T12:34:45.839Z</time>
      </trkpt>
      <trkpt lat="51.629811" lon="7.020772">
        <ele>38.238415</ele>
        <time>2025-08-12T12:38:25.737Z</time>
      </trkpt>
      <trkpt lat="51.630280" lon="7.020930">
        <ele>38.338326</ele>
        <time>2025-08-12T12:39:08.589Z</time>
      </trkpt>
      <trkpt lat="51.631202" lon="7.021446">
        <ele>38.873235</ele>
        <time>2025-08-12T12:40:37.310Z</time>
      </trkpt>
      <trkpt lat="51.631432" lon="7.021510">
        <ele>39.001149</ele>
        <time>2025-08-12T12:40:58.766Z</time>
      </trkpt>
      <trkpt lat="51.631516" lon="7.021534">
        <ele>39.047902</ele>
        <time>2025-08-12T12:41:06.655Z</time>
      </trkpt>
      <trkpt lat="51.631794" lon="7.021515">
        <ele>39.187064</ele>
        <time>2025-08-12T12:41:32.212Z</time>
      </trkpt>
      <trkpt lat="51.631919" lon="7.021468">
        <ele>39.232317</ele>
        <time>2025-08-12T12:41:44.037Z</time>
      </trkpt>
      <trkpt lat="51.632817" lon="7.020961">
        <ele>39.567787</ele>
        <time>2025-08-12T12:43:10.256Z</time>
      </trkpt>
      <trkpt lat="51.633439" lon="7.021768">
        <ele>39.792347</ele>
        <time>2025-08-12T12:44:21.097Z</time>
      </trkpt>
      <trkpt lat="51.633752" lon="7.022240">
        <ele>39.778467</ele>
        <time>2025-08-12T12:44:58.767Z</time>
      </trkpt>
      <trkpt lat="51.634241" lon="7.023434">
        <ele>39.749721</ele>
        <time>2025-08-12T12:46:17.720Z</time>
      </trkpt>
      <trkpt lat="51.634698" lon="7.024647">
        <ele>39.665304</ele>
        <time>2025-08-12T12:47:36.328Z</time>
      </trkpt>
      <trkpt lat="51.634139" lon="7.025235">
        <ele>39.575433</ele>
        <time>2025-08-12T12:47:44.105Z</time>
      </trkpt>
      <trkpt lat="51.633998" lon="7.025465">
        <ele>39.548421</ele>
        <time>2025-08-12T12:47:46.329Z</time>
      </trkpt>
      <trkpt lat="51.633894" lon="7.025739">
        <ele>39.521585</ele>
        <time>2025-08-12T12:47:48.485Z</time>
      </trkpt>
      <trkpt lat="51.633834" lon="7.026086">
        <ele>39.500304</ele>
        <time>2025-08-12T12:47:50.845Z</time>
      </trkpt>
      <trkpt lat="51.633822" lon="7.026156">
        <ele>39.504357</ele>
        <time>2025-08-12T12:47:51.328Z</time>
      </trkpt>
      <trkpt lat="51.633820" lon="7.027608">
        <ele>39.585397</ele>
        <time>2025-08-12T12:48:01.388Z</time>
      </trkpt>
      <trkpt lat="51.633820" lon="7.027635">
        <ele>39.586904</ele>
        <time>2025-08-12T12:48:01.593Z</time>
      </trkpt>
      <trkpt lat="51.633822" lon="7.027792">
        <ele>39.595669</ele>
        <time>2025-08-12T12:48:02.749Z</time>
      </trkpt>
      <trkpt lat="51.633820" lon="7.028230">
        <ele>39.620115</ele>
        <time>2025-08-12T12:48:07.302Z</time>
      </trkpt>
      <trkpt lat="51.633822" lon="7.028424">
        <ele>39.630944</ele>
        <time>2025-08-12T12:48:08.868Z</time>
      </trkpt>
      <trkpt lat="51.633826" lon="7.029612">
        <ele>40.117859</ele>
        <time>2025-08-12T12:48:19.574Z</time>
      </trkpt>
      <trkpt lat="51.633806" lon="7.030210">
        <ele>40.514159</ele>
        <time>2025-08-12T12:48:25.663Z</time>
      </trkpt>
      <trkpt lat="51.633621" lon="7.032015">
        <ele>41.542760</ele>
        <time>2025-08-12T12:48:43.867Z</time>
      </trkpt>
      <trkpt lat="51.633571" lon="7.032173">
        <ele>41.516397</ele>
        <time>2025-08-12T12:48:45.392Z</time>
      </trkpt>
      <trkpt lat="51.633491" lon="7.032238">
        <ele>41.494940</ele>
        <time>2025-08-12T12:48:46.573Z</time>
      </trkpt>
      <trkpt lat="51.633212" lon="7.032351">
        <ele>41.426044</ele>
        <time>2025-08-12T12:48:50.117Z</time>
      </trkpt>
      <trkpt lat="51.632234" lon="7.032748">
        <ele>41.184505</ele>
        <time>2025-08-12T12:49:00.391Z</time>
      </trkpt>
      <trkpt lat="51.631721" lon="7.032976">
        <ele>40.967593</ele>
        <time>2025-08-12T12:49:05.610Z</time>
      </trkpt>
      <trkpt lat="51.631287" lon="7.033053">
        <ele>40.757128</ele>
        <time>2025-08-12T12:49:10.019Z</time>
      </trkpt>
      <trkpt lat="51.629550" lon="7.033063">
        <ele>40.775697</ele>
        <time>2025-08-12T12:49:29.583Z</time>
      </trkpt>
      <trkpt lat="51.629447" lon="7.033165">
        <ele>40.856526</ele>
        <time>2025-08-12T12:49:31.287Z</time>
      </trkpt>
      <trkpt lat="51.629428" lon="7.033358">
        <ele>40.937621</ele>
        <time>2025-08-12T12:49:33.093Z</time>
      </trkpt>
      <trkpt lat="51.629479" lon="7.034351">
        <ele>41.351117</ele>
        <time>2025-08-12T12:49:42.859Z</time>
      </trkpt>
      <trkpt lat="51.629526" lon="7.035198">
        <ele>41.904890</ele>
        <time>2025-08-12T12:49:51.950Z</time>
      </trkpt>
      <trkpt lat="51.629573" lon="7.036192">
        <ele>42.690979</ele>
        <time>2025-08-12T12:50:02.743Z</time>
      </trkpt>
      <trkpt lat="51.629569" lon="7.036636">
        <ele>43.041132</ele>
        <time>2025-08-12T12:50:07.168Z</time>
      </trkpt>
      <trkpt lat="51.629523" lon="7.037090">
        <ele>43.403871</ele>
        <time>2025-08-12T12:50:11.413Z</time>
      </trkpt>
      <trkpt lat="51.629675" lon="7.037136">
        <ele>43.600339</ele>
        <time>2025-08-12T12:50:25.491Z</time>
      </trkpt>
      <trkpt lat="51.629737" lon="7.037103">
        <ele>43.683287</ele>
        <time>2025-08-12T12:50:31.450Z</time>
      </trkpt>
      <trkpt lat="51.630117" lon="7.036702">
        <ele>44.031740</ele>
        <time>2025-08-12T12:51:12.583Z</time>
      </trkpt>
      <trkpt lat="51.630541" lon="7.036322">
        <ele>44.363214</ele>
        <time>2025-08-12T12:51:56.558Z</time>
      </trkpt>
      <trkpt lat="51.631002" lon="7.035803">
        <ele>44.747440</ele>
        <time>2025-08-12T12:52:47.640Z</time>
      </trkpt>
      <trkpt lat="51.631104" lon="7.035855">
        <ele>44.820530</ele>
        <time>2025-08-12T12:52:57.449Z</time>
      </trkpt>
      <trkpt lat="51.631392" lon="7.036085">
        <ele>45.050841</ele>
        <time>2025-08-12T12:53:26.864Z</time>
      </trkpt>
      <trkpt lat="51.631454" lon="7.036159">
        <ele>45.115932</ele>
        <time>2025-08-12T12:53:34.008Z</time>
      </trkpt>
      <trkpt lat="51.631509" lon="7.036285">
        <ele>45.196589</ele>
        <time>2025-08-12T12:53:42.798Z</time>
      </trkpt>
      <trkpt lat="51.631864" lon="7.037961">
        <ele>46.123865</ele>
        <time>2025-08-12T12:55:24.234Z</time>
      </trkpt>
      <trkpt lat="51.631754" lon="7.038989">
        <ele>46.567052</ele>
        <time>2025-08-12T12:55:35.870Z</time>
      </trkpt>
      <trkpt lat="51.631715" lon="7.040918">
        <ele>46.919740</ele>
        <time>2025-08-12T12:55:56.452Z</time>
      </trkpt>
      <trkpt lat="51.631659" lon="7.042225">
        <ele>47.110502</ele>
        <time>2025-08-12T12:56:09.944Z</time>
      </trkpt>
      <trkpt lat="51.631522" lon="7.043708">
        <ele>47.271356</ele>
        <time>2025-08-12T12:56:25.327Z</time>
      </trkpt>
      <trkpt lat="51.631233" lon="7.046857">
        <ele>47.945616</ele>
        <time>2025-08-12T12:56:59.048Z</time>
      </trkpt>
      <trkpt lat="51.631212" lon="7.047079">
        <ele>48.000464</ele>
        <time>2025-08-12T12:57:01.569Z</time>
      </trkpt>
      <trkpt lat="51.631145" lon="7.047902">
        <ele>48.291722</ele>
        <time>2025-08-12T12:57:11.092Z</time>
      </trkpt>
      <trkpt lat="51.631159" lon="7.048197">
        <ele>48.408640</ele>
        <time>2025-08-12T12:57:14.520Z</time>
      </trkpt>
      <trkpt lat="51.630439" lon="7.048453">
        <ele>48.878057</ele>
        <time>2025-08-12T12:57:25.054Z</time>
      </trkpt>
      <trkpt lat="51.630283" lon="7.048504">
        <ele>48.979399</ele>
        <time>2025-08-12T12:57:27.266Z</time>
      </trkpt>
      <trkpt lat="51.628985" lon="7.048953">
        <ele>49.675313</ele>
        <time>2025-08-12T12:57:44.676Z</time>
      </trkpt>
      <trkpt lat="51.628183" lon="7.049228">
        <ele>50.071553</ele>
        <time>2025-08-12T12:57:55.598Z</time>
      </trkpt>
      <trkpt lat="51.627327" lon="7.049517">
        <ele>51.283176</ele>
        <time>2025-08-12T12:58:08.506Z</time>
      </trkpt>
      <trkpt lat="51.626977" lon="7.049634">
        <ele>51.780430</ele>
        <time>2025-08-12T12:58:14.466Z</time>
      </trkpt>
      <trkpt lat="51.626457" lon="7.049805">
        <ele>52.518715</ele>
        <time>2025-08-12T12:58:24.262Z</time>
      </trkpt>
      <trkpt lat="51.626411" lon="7.049821">
        <ele>52.590171</ele>
        <time>2025-08-12T12:58:25.170Z</time>
      </trkpt>
      <trkpt lat="51.625879" lon="7.050019">
        <ele>53.927041</ele>
        <time>2025-08-12T12:58:35.776Z</time>
      </trkpt>
      <trkpt lat="51.625806" lon="7.050044">
        <ele>54.109769</ele>
        <time>2025-08-12T12:58:37.288Z</time>
      </trkpt>
      <trkpt lat="51.625431" lon="7.050140">
        <ele>55.039447</ele>
        <time>2025-08-12T12:58:44.999Z</time>
      </trkpt>
      <trkpt lat="51.625575" lon="7.050841">
        <ele>56.161764</ele>
        <time>2025-08-12T12:58:54.503Z</time>
      </trkpt>
      <trkpt lat="51.625616" lon="7.051016">
        <ele>56.446071</ele>
        <time>2025-08-12T12:58:56.877Z</time>
      </trkpt>
      <trkpt lat="51.625664" lon="7.051265">
        <ele>56.842370</ele>
        <time>2025-08-12T12:59:00.138Z</time>
      </trkpt>
      <trkpt lat="51.625821" lon="7.052489">
        <ele>58.323916</ele>
        <time>2025-08-12T12:59:14.538Z</time>
      </trkpt>
      <trkpt lat="51.625943" lon="7.053858">
        <ele>59.927148</ele>
        <time>2025-08-12T12:59:29.605Z</time>
      </trkpt>
      <trkpt lat="51.625946" lon="7.053900">
        <ele>59.976156</ele>
        <time>2025-08-12T12:59:30.050Z</time>
      </trkpt>
      <trkpt lat="51.625985" lon="7.054493">
        <ele>60.450905</ele>
        <time>2025-08-12T12:59:36.244Z</time>
      </trkpt>
      <trkpt lat="51.626002" lon="7.054691">
        <ele>60.529977</ele>
        <time>2025-08-12T12:59:38.295Z</time>
      </trkpt>
      <trkpt lat="51.626137" lon="7.056392">
        <ele>61.208351</ele>
        <time>2025-08-12T12:59:53.504Z</time>
      </trkpt>
      <trkpt lat="51.626400" lon="7.059645">
        <ele>61.454288</ele>
        <time>2025-08-12T13:00:15.808Z</time>
      </trkpt>
      <trkpt lat="51.626504" lon="7.060973">
        <ele>62.268750</ele>
        <time>2025-08-12T13:00:28.730Z</time>
      </trkpt>
      <trkpt lat="51.626518" lon="7.061241">
        <ele>62.483950</ele>
        <time>2025-08-12T13:00:31.447Z</time>
      </trkpt>
      <trkpt lat="51.626489" lon="7.061572">
        <ele>62.751426</ele>
        <time>2025-08-12T13:00:35.050Z</time>
      </trkpt>
      <trkpt lat="51.626409" lon="7.061848">
        <ele>62.995157</ele>
        <time>2025-08-12T13:00:38.380Z</time>
      </trkpt>
      <trkpt lat="51.626135" lon="7.062655">
        <ele>63.731156</ele>
        <time>2025-08-12T13:00:47.937Z</time>
      </trkpt>
      <trkpt lat="51.625914" lon="7.063292">
        <ele>64.444163</ele>
        <time>2025-08-12T13:00:54.961Z</time>
      </trkpt>
      <trkpt lat="51.624163" lon="7.068343">
        <ele>70.044476</ele>
        <time>2025-08-12T13:01:57.178Z</time>
      </trkpt>
      <trkpt lat="51.623815" lon="7.069348">
        <ele>70.713849</ele>
        <time>2025-08-12T13:02:08.114Z</time>
      </trkpt>
      <trkpt lat="51.623648" lon="7.069829">
        <ele>71.034421</ele>
        <time>2025-08-12T13:02:12.874Z</time>
      </trkpt>
      <trkpt lat="51.622113" lon="7.074237">
        <ele>71.421720</ele>
        <time>2025-08-12T13:02:50.063Z</time>
      </trkpt>
      <trkpt lat="51.621107" lon="7.077106">
        <ele>71.460951</ele>
        <time>2025-08-12T13:03:14.454Z</time>
      </trkpt>
      <trkpt lat="51.621070" lon="7.077203">
        <ele>71.462209</ele>
        <time>2025-08-12T13:03:15.287Z</time>
      </trkpt>
      <trkpt lat="51.621043" lon="7.077266">
        <ele>71.463055</ele>
        <time>2025-08-12T13:03:15.842Z</time>
      </trkpt>
      <trkpt lat="51.621021" lon="7.077313">
        <ele>71.463705</ele>
        <time>2025-08-12T13:03:16.270Z</time>
      </trkpt>
      <trkpt lat="51.620939" lon="7.077466">
        <ele>71.465939</ele>
        <time>2025-08-12T13:03:17.747Z</time>
      </trkpt>
      <trkpt lat="51.620834" lon="7.077586">
        <ele>71.468230</ele>
        <time>2025-08-12T13:03:19.253Z</time>
      </trkpt>
      <trkpt lat="51.619847" lon="7.078595">
        <ele>71.876723</ele>
        <time>2025-08-12T13:03:33.708Z</time>
      </trkpt>
      <trkpt lat="51.618881" lon="7.079545">
        <ele>72.199993</ele>
        <time>2025-08-12T13:03:49.952Z</time>
      </trkpt>
      <trkpt lat="51.618186" lon="7.080305">
        <ele>72.262427</ele>
        <time>2025-08-12T13:04:00.725Z</time>
      </trkpt>
      <trkpt lat="51.616802" lon="7.081728">
        <ele>71.733267</ele>
        <time>2025-08-12T13:04:17.289Z</time>
      </trkpt>
      <trkpt lat="51.616681" lon="7.081854">
        <ele>71.655282</ele>
        <time>2025-08-12T13:04:18.798Z</time>
      </trkpt>
      <trkpt lat="51.616650" lon="7.081890">
        <ele>71.634597</ele>
        <time>2025-08-12T13:04:19.200Z</time>
      </trkpt>
      <trkpt lat="51.616491" lon="7.082167">
        <ele>71.507826</ele>
        <time>2025-08-12T13:04:21.748Z</time>
      </trkpt>
      <trkpt lat="51.616425" lon="7.082382">
        <ele>71.427226</ele>
        <time>2025-08-12T13:04:23.432Z</time>
      </trkpt>
      <trkpt lat="51.616381" lon="7.082563">
        <ele>71.361904</ele>
        <time>2025-08-12T13:04:24.832Z</time>
      </trkpt>
      <trkpt lat="51.616338" lon="7.082720">
        <ele>71.326379</ele>
        <time>2025-08-12T13:04:26.099Z</time>
      </trkpt>
      <trkpt lat="51.616228" lon="7.083158">
        <ele>71.292582</ele>
        <time>2025-08-12T13:04:29.712Z</time>
      </trkpt>
      <trkpt lat="51.616146" lon="7.083441">
        <ele>71.270242</ele>
        <time>2025-08-12T13:04:32.213Z</time>
      </trkpt>
      <trkpt lat="51.615994" lon="7.083814">
        <ele>71.238327</ele>
        <time>2025-08-12T13:04:35.799Z</time>
      </trkpt>
      <trkpt lat="51.615884" lon="7.084014">
        <ele>71.219215</ele>
        <time>2025-08-12T13:04:37.898Z</time>
      </trkpt>
      <trkpt lat="51.615614" lon="7.084395">
        <ele>71.177859</ele>
        <time>2025-08-12T13:04:42.149Z</time>
      </trkpt>
      <trkpt lat="51.615462" lon="7.084549">
        <ele>71.157171</ele>
        <time>2025-08-12T13:04:44.143Z</time>
      </trkpt>
      <trkpt lat="51.615225" lon="7.084731">
        <ele>71.126923</ele>
        <time>2025-08-12T13:04:46.940Z</time>
      </trkpt>
      <trkpt lat="51.615027" lon="7.084834">
        <ele>70.781664</ele>
        <time>2025-08-12T13:04:49.049Z</time>
      </trkpt>
      <trkpt lat="51.614705" lon="7.084918">
        <ele>70.200319</ele>
        <time>2025-08-12T13:04:52.211Z</time>
      </trkpt>
      <trkpt lat="51.614080" lon="7.084956">
        <ele>69.085656</ele>
        <time>2025-08-12T13:04:57.879Z</time>
      </trkpt>
      <trkpt lat="51.612838" lon="7.084916">
        <ele>65.971209</ele>
        <time>2025-08-12T13:05:08.213Z</time>
      </trkpt>
      <trkpt lat="51.612547" lon="7.084900">
        <ele>65.006349</ele>
        <time>2025-08-12T13:05:10.539Z</time>
      </trkpt>
      <trkpt lat="51.612220" lon="7.084891">
        <ele>63.922598</ele>
        <time>2025-08-12T13:05:13.112Z</time>
      </trkpt>
      <trkpt lat="51.611602" lon="7.084901">
        <ele>61.935206</ele>
        <time>2025-08-12T13:05:17.958Z</time>
      </trkpt>
      <trkpt lat="51.611188" lon="7.084985">
        <ele>61.540704</ele>
        <time>2025-08-12T13:05:22.794Z</time>
      </trkpt>
      <trkpt lat="51.610642" lon="7.085242">
        <ele>61.002899</ele>
        <time>2025-08-12T13:05:30.029Z</time>
      </trkpt>
      <trkpt lat="51.610171" lon="7.085621">
        <ele>60.505100</ele>
        <time>2025-08-12T13:05:39.331Z</time>
      </trkpt>
      <trkpt lat="51.609792" lon="7.085984">
        <ele>60.724514</ele>
        <time>2025-08-12T13:05:49.256Z</time>
      </trkpt>
      <trkpt lat="51.609560" lon="7.086211">
        <ele>61.424504</ele>
        <time>2025-08-12T13:05:56.163Z</time>
      </trkpt>
      <trkpt lat="51.609505" lon="7.086266">
        <ele>61.591444</ele>
        <time>2025-08-12T13:05:57.850Z</time>
      </trkpt>
      <trkpt lat="51.609355" lon="7.086416">
        <ele>62.046734</ele>
        <time>2025-08-12T13:06:02.494Z</time>
      </trkpt>
      <trkpt lat="51.608560" lon="7.087201">
        <ele>64.451370</ele>
        <time>2025-08-12T13:06:26.846Z</time>
      </trkpt>
      <trkpt lat="51.608119" lon="7.087636">
        <ele>65.465524</ele>
        <time>2025-08-12T13:06:38.751Z</time>
      </trkpt>
      <trkpt lat="51.607463" lon="7.088285">
        <ele>66.736935</ele>
        <time>2025-08-12T13:06:55.552Z</time>
      </trkpt>
      <trkpt lat="51.606752" lon="7.088984">
        <ele>67.977116</ele>
        <time>2025-08-12T13:07:11.875Z</time>
      </trkpt>
      <trkpt lat="51.606634" lon="7.089141">
        <ele>68.090523</ele>
        <time>2025-08-12T13:07:14.695Z</time>
      </trkpt>
      <trkpt lat="51.606287" lon="7.089495">
        <ele>68.394860</ele>
        <time>2025-08-12T13:07:22.256Z</time>
      </trkpt>
      <trkpt lat="51.606301" lon="7.089550">
        <ele>68.422210</ele>
        <time>2025-08-12T13:07:22.790Z</time>
      </trkpt>
      <trkpt lat="51.606287" lon="7.089495">
        <ele>68.449560</ele>
        <time>2025-08-12T13:07:23.315Z</time>
      </trkpt>
      <trkpt lat="51.605892" lon="7.089690">
        <ele>68.755648</ele>
        <time>2025-08-12T13:07:29.319Z</time>
      </trkpt>
      <trkpt lat="51.605517" lon="7.089839">
        <ele>69.041806</ele>
        <time>2025-08-12T13:07:34.740Z</time>
      </trkpt>
      <trkpt lat="51.604866" lon="7.090143">
        <ele>69.291814</ele>
        <time>2025-08-12T13:07:43.685Z</time>
      </trkpt>
      <trkpt lat="51.604378" lon="7.090447">
        <ele>69.395751</ele>
        <time>2025-08-12T13:07:50.559Z</time>
      </trkpt>
      <trkpt lat="51.603997" lon="7.090697">
        <ele>69.477474</ele>
        <time>2025-08-12T13:07:55.510Z</time>
      </trkpt>
      <trkpt lat="51.603621" lon="7.090928">
        <ele>69.558514</ele>
        <time>2025-08-12T13:07:59.853Z</time>
      </trkpt>
      <trkpt lat="51.603524" lon="7.090974">
        <ele>69.610050</ele>
        <time>2025-08-12T13:08:00.965Z</time>
      </trkpt>
      <trkpt lat="51.603275" lon="7.091079">
        <ele>69.741233</ele>
        <time>2025-08-12T13:08:03.899Z</time>
      </trkpt>
      <trkpt lat="51.603206" lon="7.091092">
        <ele>69.776639</ele>
        <time>2025-08-12T13:08:04.764Z</time>
      </trkpt>
      <trkpt lat="51.602653" lon="7.091144">
        <ele>70.058955</ele>
        <time>2025-08-12T13:08:12.271Z</time>
      </trkpt>
      <trkpt lat="51.602308" lon="7.091199">
        <ele>70.235644</ele>
        <time>2025-08-12T13:08:17.311Z</time>
      </trkpt>
      <trkpt lat="51.601975" lon="7.091347">
        <ele>70.411704</ele>
        <time>2025-08-12T13:08:22.401Z</time>
      </trkpt>
      <trkpt lat="51.601366" lon="7.091708">
        <ele>70.801987</ele>
        <time>2025-08-12T13:08:32.316Z</time>
      </trkpt>
      <trkpt lat="51.601159" lon="7.091812">
        <ele>70.936957</ele>
        <time>2025-08-12T13:08:36.645Z</time>
      </trkpt>
      <trkpt lat="51.600849" lon="7.091958">
        <ele>71.137995</ele>
        <time>2025-08-12T13:08:42.613Z</time>
      </trkpt>
      <trkpt lat="51.600679" lon="7.092035">
        <ele>71.247914</ele>
        <time>2025-08-12T13:08:44.906Z</time>
      </trkpt>
      <trkpt lat="51.600528" lon="7.092237">
        <ele>71.370112</ele>
        <time>2025-08-12T13:08:47.376Z</time>
      </trkpt>
      <trkpt lat="51.600380" lon="7.092529">
        <ele>71.515818</ele>
        <time>2025-08-12T13:08:51.384Z</time>
      </trkpt>
      <trkpt lat="51.600306" lon="7.092733">
        <ele>71.580740</ele>
        <time>2025-08-12T13:08:53.816Z</time>
      </trkpt>
      <trkpt lat="51.600111" lon="7.093413">
        <ele>71.333525</ele>
        <time>2025-08-12T13:09:01.088Z</time>
      </trkpt>
      <trkpt lat="51.599980" lon="7.093877">
        <ele>71.165292</ele>
        <time>2025-08-12T13:09:05.869Z</time>
      </trkpt>
      <trkpt lat="51.599897" lon="7.094114">
        <ele>71.075487</ele>
        <time>2025-08-12T13:09:08.343Z</time>
      </trkpt>
      <trkpt lat="51.599873" lon="7.094182">
        <ele>71.049671</ele>
        <time>2025-08-12T13:09:09.038Z</time>
      </trkpt>
      <trkpt lat="51.599797" lon="7.094404">
        <ele>70.966002</ele>
        <time>2025-08-12T13:09:11.247Z</time>
      </trkpt>
      <trkpt lat="51.599689" lon="7.094679">
        <ele>70.858610</ele>
        <time>2025-08-12T13:09:14.060Z</time>
      </trkpt>
      <trkpt lat="51.599521" lon="7.094790">
        <ele>70.762110</ele>
        <time>2025-08-12T13:09:15.874Z</time>
      </trkpt>
      <trkpt lat="51.598651" lon="7.094916">
        <ele>70.268126</ele>
        <time>2025-08-12T13:09:24.432Z</time>
      </trkpt>
      <trkpt lat="51.597490" lon="7.095118">
        <ele>69.601466</ele>
        <time>2025-08-12T13:09:36.608Z</time>
      </trkpt>
      <trkpt lat="51.593375" lon="7.095813">
        <ele>72.458611</ele>
        <time>2025-08-12T13:10:35.302Z</time>
      </trkpt>
      <trkpt lat="51.592878" lon="7.095808">
        <ele>72.941592</ele>
        <time>2025-08-12T13:10:43.379Z</time>
      </trkpt>
      <trkpt lat="51.592603" lon="7.095724">
        <ele>73.213598</ele>
        <time>2025-08-12T13:10:47.917Z</time>
      </trkpt>
      <trkpt lat="51.592135" lon="7.095429">
        <ele>73.629343</ele>
        <time>2025-08-12T13:10:55.692Z</time>
      </trkpt>
      <trkpt lat="51.592098" lon="7.095499">
        <ele>73.539678</ele>
        <time>2025-08-12T13:10:56.508Z</time>
      </trkpt>
      <trkpt lat="51.591815" lon="7.096005">
        <ele>72.875448</ele>
        <time>2025-08-12T13:11:01.781Z</time>
      </trkpt>
      <trkpt lat="51.591870" lon="7.096131">
        <ele>72.725212</ele>
        <time>2025-08-12T13:11:02.762Z</time>
      </trkpt>
      <trkpt lat="51.592100" lon="7.097256">
        <ele>71.569755</ele>
        <time>2025-08-12T13:11:09.327Z</time>
      </trkpt>
      <trkpt lat="51.592170" lon="7.097687">
        <ele>71.135139</ele>
        <time>2025-08-12T13:11:11.585Z</time>
      </trkpt>
      <trkpt lat="51.592404" lon="7.098783">
        <ele>68.493457</ele>
        <time>2025-08-12T13:11:17.198Z</time>
      </trkpt>
      <trkpt lat="51.592488" lon="7.099056">
        <ele>67.664882</ele>
        <time>2025-08-12T13:11:18.628Z</time>
      </trkpt>
      <trkpt lat="51.592633" lon="7.099295">
        <ele>66.756315</ele>
        <time>2025-08-12T13:11:20.205Z</time>
      </trkpt>
      <trkpt lat="51.592706" lon="7.099516">
        <ele>66.075569</ele>
        <time>2025-08-12T13:11:21.385Z</time>
      </trkpt>
      <trkpt lat="51.592795" lon="7.099991">
        <ele>64.726210</ele>
        <time>2025-08-12T13:11:23.732Z</time>
      </trkpt>
      <trkpt lat="51.592893" lon="7.100788">
        <ele>62.592640</ele>
        <time>2025-08-12T13:11:27.578Z</time>
      </trkpt>
      <trkpt lat="51.593046" lon="7.102048">
        <ele>59.680069</ele>
        <time>2025-08-12T13:11:33.773Z</time>
      </trkpt>
      <trkpt lat="51.593139" lon="7.103025">
        <ele>57.437752</ele>
        <time>2025-08-12T13:11:38.671Z</time>
      </trkpt>
      <trkpt lat="51.593318" lon="7.103790">
        <ele>56.316019</ele>
        <time>2025-08-12T13:11:42.947Z</time>
      </trkpt>
      <trkpt lat="51.593504" lon="7.104433">
        <ele>56.137912</ele>
        <time>2025-08-12T13:11:46.906Z</time>
      </trkpt>
      <trkpt lat="51.593990" lon="7.105278">
        <ele>55.848754</ele>
        <time>2025-08-12T13:11:55.275Z</time>
      </trkpt>
      <trkpt lat="51.594020" lon="7.105312">
        <ele>55.833924</ele>
        <time>2025-08-12T13:11:55.795Z</time>
      </trkpt>
      <trkpt lat="51.594289" lon="7.105530">
        <ele>55.712191</ele>
        <time>2025-08-12T13:12:00.769Z</time>
      </trkpt>
      <trkpt lat="51.594509" lon="7.105690">
        <ele>55.838428</ele>
        <time>2025-08-12T13:12:05.272Z</time>
      </trkpt>
      <trkpt lat="51.594670" lon="7.105817">
        <ele>56.013242</ele>
        <time>2025-08-12T13:12:08.700Z</time>
      </trkpt>
      <trkpt lat="51.594925" lon="7.105933">
        <ele>56.271610</ele>
        <time>2025-08-12T13:12:13.695Z</time>
      </trkpt>
      <trkpt lat="51.595022" lon="7.106013">
        <ele>56.377878</ele>
        <time>2025-08-12T13:12:15.664Z</time>
      </trkpt>
      <trkpt lat="51.595107" lon="7.106146">
        <ele>56.493455</ele>
        <time>2025-08-12T13:12:17.810Z</time>
      </trkpt>
      <trkpt lat="51.595369" lon="7.106920">
        <ele>57.027347</ele>
        <time>2025-08-12T13:12:26.864Z</time>
      </trkpt>
      <trkpt lat="51.595312" lon="7.108209">
        <ele>56.815319</ele>
        <time>2025-08-12T13:12:34.988Z</time>
      </trkpt>
      <trkpt lat="51.595267" lon="7.108262">
        <ele>56.725908</ele>
        <time>2025-08-12T13:12:35.475Z</time>
      </trkpt>
      <trkpt lat="51.594682" lon="7.108625">
        <ele>55.720561</ele>
        <time>2025-08-12T13:12:40.811Z</time>
      </trkpt>
      <trkpt lat="51.594401" lon="7.109030">
        <ele>55.115748</ele>
        <time>2025-08-12T13:12:44.075Z</time>
      </trkpt>
      <trkpt lat="51.594165" lon="7.109855">
        <ele>54.391841</ele>
        <time>2025-08-12T13:12:49.221Z</time>
      </trkpt>
      <trkpt lat="51.594056" lon="7.110790">
        <ele>53.950135</ele>
        <time>2025-08-12T13:12:55.166Z</time>
      </trkpt>
      <trkpt lat="51.593931" lon="7.111237">
        <ele>53.722530</ele>
        <time>2025-08-12T13:12:58.461Z</time>
      </trkpt>
      <trkpt lat="51.593758" lon="7.112046">
        <ele>53.325271</ele>
        <time>2025-08-12T13:13:04.211Z</time>
      </trkpt>
      <trkpt lat="51.593526" lon="7.112748">
        <ele>53.495742</ele>
        <time>2025-08-12T13:13:09.380Z</time>
      </trkpt>
      <trkpt lat="51.593129" lon="7.113783">
        <ele>54.153309</ele>
        <time>2025-08-12T13:13:19.339Z</time>
      </trkpt>
      <trkpt lat="51.593535" lon="7.114433">
        <ele>54.651591</ele>
        <time>2025-08-12T13:13:29.429Z</time>
      </trkpt>
      <trkpt lat="51.593631" lon="7.114541">
        <ele>54.753508</ele>
        <time>2025-08-12T13:13:31.749Z</time>
      </trkpt>
      <trkpt lat="51.593761" lon="7.114620">
        <ele>54.994723</ele>
        <time>2025-08-12T13:13:34.506Z</time>
      </trkpt>
      <trkpt lat="51.594445" lon="7.114872">
        <ele>56.312568</ele>
        <time>2025-08-12T13:13:48.556Z</time>
      </trkpt>
      <trkpt lat="51.594509" lon="7.114890">
        <ele>56.434588</ele>
        <time>2025-08-12T13:13:49.850Z</time>
      </trkpt>
      <trkpt lat="51.594347" lon="7.115618">
        <ele>57.336814</ele>
        <time>2025-08-12T13:13:58.517Z</time>
      </trkpt>
      <trkpt lat="51.594221" lon="7.116326">
        <ele>58.161521</ele>
        <time>2025-08-12T13:14:05.894Z</time>
      </trkpt>
      <trkpt lat="51.593835" lon="7.119157">
        <ele>59.076550</ele>
        <time>2025-08-12T13:14:29.698Z</time>
      </trkpt>
      <trkpt lat="51.593610" lon="7.119993">
        <ele>59.277261</ele>
        <time>2025-08-12T13:14:36.190Z</time>
      </trkpt>
      <trkpt lat="51.593365" lon="7.120616">
        <ele>59.439697</ele>
        <time>2025-08-12T13:14:41.985Z</time>
      </trkpt>
      <trkpt lat="51.593215" lon="7.121012">
        <ele>59.541874</ele>
        <time>2025-08-12T13:14:45.734Z</time>
      </trkpt>
      <trkpt lat="51.593303" lon="7.121158">
        <ele>59.586689</ele>
        <time>2025-08-12T13:14:47.458Z</time>
      </trkpt>
      <trkpt lat="51.593249" lon="7.121276">
        <ele>59.618976</ele>
        <time>2025-08-12T13:14:48.735Z</time>
      </trkpt>
      <trkpt lat="51.593402" lon="7.121486">
        <ele>59.690278</ele>
        <time>2025-08-12T13:14:51.633Z</time>
      </trkpt>
      <trkpt lat="51.593580" lon="7.122016">
        <ele>59.843578</ele>
        <time>2025-08-12T13:14:57.268Z</time>
      </trkpt>
      <trkpt lat="51.593761" lon="7.123436">
        <ele>60.218462</ele>
        <time>2025-08-12T13:15:09.873Z</time>
      </trkpt>
      <trkpt lat="51.593786" lon="7.123613">
        <ele>60.265405</ele>
        <time>2025-08-12T13:15:11.206Z</time>
      </trkpt>
      <trkpt lat="51.593841" lon="7.124072">
        <ele>60.386298</ele>
        <time>2025-08-12T13:15:14.512Z</time>
      </trkpt>
      <trkpt lat="51.594139" lon="7.126426">
        <ele>60.263905</ele>
        <time>2025-08-12T13:15:30.785Z</time>
      </trkpt>
      <trkpt lat="51.594240" lon="7.127216">
        <ele>60.205955</ele>
        <time>2025-08-12T13:15:37.208Z</time>
      </trkpt>
      <trkpt lat="51.594392" lon="7.128465">
        <ele>60.410906</ele>
        <time>2025-08-12T13:15:47.209Z</time>
      </trkpt>
      <trkpt lat="51.594438" lon="7.128840">
        <ele>60.472459</ele>
        <time>2025-08-12T13:15:50.196Z</time>
      </trkpt>
      <trkpt lat="51.594590" lon="7.130087">
        <ele>60.687027</ele>
        <time>2025-08-12T13:16:00.482Z</time>
      </trkpt>
      <trkpt lat="51.594648" lon="7.130503">
        <ele>60.805964</ele>
        <time>2025-08-12T13:16:03.841Z</time>
      </trkpt>
      <trkpt lat="51.594751" lon="7.131398">
        <ele>61.059886</ele>
        <time>2025-08-12T13:16:11.014Z</time>
      </trkpt>
      <trkpt lat="51.594845" lon="7.132184">
        <ele>61.283180</ele>
        <time>2025-08-12T13:16:17.668Z</time>
      </trkpt>
      <trkpt lat="51.594781" lon="7.132205">
        <ele>61.312511</ele>
        <time>2025-08-12T13:16:18.569Z</time>
      </trkpt>
      <trkpt lat="51.594744" lon="7.132277">
        <ele>61.338578</ele>
        <time>2025-08-12T13:16:19.386Z</time>
      </trkpt>
      <trkpt lat="51.594795" lon="7.132426">
        <ele>61.386035</ele>
        <time>2025-08-12T13:16:20.878Z</time>
      </trkpt>
      <trkpt lat="51.594807" lon="7.132602">
        <ele>61.435428</ele>
        <time>2025-08-12T13:16:22.432Z</time>
      </trkpt>
      <trkpt lat="51.594794" lon="7.132940">
        <ele>61.533232</ele>
        <time>2025-08-12T13:16:25.417Z</time>
      </trkpt>
      <trkpt lat="51.594735" lon="7.133417">
        <ele>61.676620</ele>
        <time>2025-08-12T13:16:29.908Z</time>
      </trkpt>
      <trkpt lat="51.594648" lon="7.133914">
        <ele>61.828850</ele>
        <time>2025-08-12T13:16:34.243Z</time>
      </trkpt>
      <trkpt lat="51.594518" lon="7.134442">
        <ele>61.996294</ele>
        <time>2025-08-12T13:16:39.121Z</time>
      </trkpt>
      <trkpt lat="51.594313" lon="7.134926">
        <ele>62.168996</ele>
        <time>2025-08-12T13:16:44.119Z</time>
      </trkpt>
      <trkpt lat="51.594206" lon="7.135144">
        <ele>62.250906</ele>
        <time>2025-08-12T13:16:47.020Z</time>
      </trkpt>
      <trkpt lat="51.594121" lon="7.135291">
        <ele>62.310113</ele>
        <time>2025-08-12T13:16:49.060Z</time>
      </trkpt>
      <trkpt lat="51.593745" lon="7.135740">
        <ele>62.068225</ele>
        <time>2025-08-12T13:16:56.328Z</time>
      </trkpt>
      <trkpt lat="51.593248" lon="7.136266">
        <ele>61.719102</ele>
        <time>2025-08-12T13:17:04.788Z</time>
      </trkpt>
      <trkpt lat="51.592928" lon="7.136603">
        <ele>61.494648</ele>
        <time>2025-08-12T13:17:10.248Z</time>
      </trkpt>
      <trkpt lat="51.592526" lon="7.137225">
        <ele>61.124862</ele>
        <time>2025-08-12T13:17:18.119Z</time>
      </trkpt>
      <trkpt lat="51.591724" lon="7.138666">
        <ele>60.124698</ele>
        <time>2025-08-12T13:17:35.368Z</time>
      </trkpt>
      <trkpt lat="51.591603" lon="7.138833">
        <ele>59.992065</ele>
        <time>2025-08-12T13:17:37.630Z</time>
      </trkpt>
      <trkpt lat="51.591456" lon="7.139158">
        <ele>59.784237</ele>
        <time>2025-08-12T13:17:41.130Z</time>
      </trkpt>
      <trkpt lat="51.591358" lon="7.139529">
        <ele>59.408092</ele>
        <time>2025-08-12T13:17:44.587Z</time>
      </trkpt>
      <trkpt lat="51.591264" lon="7.140071">
        <ele>58.868939</ele>
        <time>2025-08-12T13:17:49.310Z</time>
      </trkpt>
      <trkpt lat="51.591256" lon="7.140150">
        <ele>58.792249</ele>
        <time>2025-08-12T13:17:49.968Z</time>
      </trkpt>
      <trkpt lat="51.591251" lon="7.140225">
        <ele>58.719978</ele>
        <time>2025-08-12T13:17:50.579Z</time>
      </trkpt>
      <trkpt lat="51.591208" lon="7.141240">
        <ele>57.745232</ele>
        <time>2025-08-12T13:17:58.828Z</time>
      </trkpt>
      <trkpt lat="51.591184" lon="7.141300">
        <ele>57.676861</ele>
        <time>2025-08-12T13:17:59.398Z</time>
      </trkpt>
      <trkpt lat="51.591204" lon="7.141377">
        <ele>57.596897</ele>
        <time>2025-08-12T13:17:59.865Z</time>
      </trkpt>
      <trkpt lat="51.590795" lon="7.141709">
        <ele>56.850301</ele>
        <time>2025-08-12T13:18:05.635Z</time>
      </trkpt>
      <trkpt lat="51.590678" lon="7.141877">
        <ele>56.518620</ele>
        <time>2025-08-12T13:18:07.582Z</time>
      </trkpt>
      <trkpt lat="51.590493" lon="7.142004">
        <ele>56.093153</ele>
        <time>2025-08-12T13:18:09.322Z</time>
      </trkpt>
      <trkpt lat="51.590306" lon="7.142079">
        <ele>55.685467</ele>
        <time>2025-08-12T13:18:10.981Z</time>
      </trkpt>
      <trkpt lat="51.589077" lon="7.142183">
        <ele>53.080748</ele>
        <time>2025-08-12T13:18:21.673Z</time>
      </trkpt>
      <trkpt lat="51.588966" lon="7.142194">
        <ele>52.842889</ele>
        <time>2025-08-12T13:18:22.636Z</time>
      </trkpt>
      <trkpt lat="51.588882" lon="7.142214">
        <ele>52.661272</ele>
        <time>2025-08-12T13:18:23.371Z</time>
      </trkpt>
      <trkpt lat="51.588538" lon="7.142327">
        <ele>51.910349</ele>
        <time>2025-08-12T13:18:26.421Z</time>
      </trkpt>
      <trkpt lat="51.588212" lon="7.142528">
        <ele>51.163681</ele>
        <time>2025-08-12T13:18:29.431Z</time>
      </trkpt>
      <trkpt lat="51.587901" lon="7.142739">
        <ele>50.441824</ele>
        <time>2025-08-12T13:18:32.329Z</time>
      </trkpt>
      <trkpt lat="51.587678" lon="7.142891">
        <ele>49.923857</ele>
        <time>2025-08-12T13:18:34.403Z</time>
      </trkpt>
      <trkpt lat="51.587430" lon="7.143072">
        <ele>49.343881</ele>
        <time>2025-08-12T13:18:36.769Z</time>
      </trkpt>
      <trkpt lat="51.587243" lon="7.143209">
        <ele>49.112544</ele>
        <time>2025-08-12T13:18:38.588Z</time>
      </trkpt>
      <trkpt lat="51.587015" lon="7.143402">
        <ele>48.822490</ele>
        <time>2025-08-12T13:18:40.914Z</time>
      </trkpt>
      <trkpt lat="51.586601" lon="7.143843">
        <ele>48.263505</ele>
        <time>2025-08-12T13:18:45.629Z</time>
      </trkpt>
      <trkpt lat="51.586223" lon="7.144278">
        <ele>47.740296</ele>
        <time>2025-08-12T13:18:50.220Z</time>
      </trkpt>
      <trkpt lat="51.586089" lon="7.144440">
        <ele>47.551596</ele>
        <time>2025-08-12T13:18:52.061Z</time>
      </trkpt>
      <trkpt lat="51.585957" lon="7.144643">
        <ele>47.346030</ele>
        <time>2025-08-12T13:18:54.126Z</time>
      </trkpt>
      <trkpt lat="51.585621" lon="7.145147">
        <ele>47.112529</ele>
        <time>2025-08-12T13:18:59.366Z</time>
      </trkpt>
      <trkpt lat="51.585425" lon="7.145446">
        <ele>46.983564</ele>
        <time>2025-08-12T13:19:02.304Z</time>
      </trkpt>
      <trkpt lat="51.585282" lon="7.145658">
        <ele>46.890719</ele>
        <time>2025-08-12T13:19:04.358Z</time>
      </trkpt>
      <trkpt lat="51.585076" lon="7.145969">
        <ele>46.755837</ele>
        <time>2025-08-12T13:19:07.272Z</time>
      </trkpt>
      <trkpt lat="51.584907" lon="7.146236">
        <ele>46.642744</ele>
        <time>2025-08-12T13:19:09.748Z</time>
      </trkpt>
      <trkpt lat="51.584716" lon="7.146523">
        <ele>46.517958</ele>
        <time>2025-08-12T13:19:12.564Z</time>
      </trkpt>
      <trkpt lat="51.584457" lon="7.146913">
        <ele>46.413672</ele>
        <time>2025-08-12T13:19:16.179Z</time>
      </trkpt>
      <trkpt lat="51.584387" lon="7.146943">
        <ele>46.398844</ele>
        <time>2025-08-12T13:19:16.920Z</time>
      </trkpt>
      <trkpt lat="51.584025" lon="7.147495">
        <ele>46.296765</ele>
        <time>2025-08-12T13:19:22.310Z</time>
      </trkpt>
      <trkpt lat="51.583998" lon="7.147540">
        <ele>46.288809</ele>
        <time>2025-08-12T13:19:22.763Z</time>
      </trkpt>
      <trkpt lat="51.583901" lon="7.147715">
        <ele>46.258981</ele>
        <time>2025-08-12T13:19:24.505Z</time>
      </trkpt>
      <trkpt lat="51.583824" lon="7.147585">
        <ele>46.236137</ele>
        <time>2025-08-12T13:19:26.363Z</time>
      </trkpt>
      <trkpt lat="51.583504" lon="7.147358">
        <ele>46.164553</ele>
        <time>2025-08-12T13:19:32.016Z</time>
      </trkpt>
      <trkpt lat="51.583276" lon="7.147240">
        <ele>46.115529</ele>
        <time>2025-08-12T13:19:35.873Z</time>
      </trkpt>
      <trkpt lat="51.582981" lon="7.147076">
        <ele>46.074022</ele>
        <time>2025-08-12T13:19:40.925Z</time>
      </trkpt>
      <trkpt lat="51.582799" lon="7.146968">
        <ele>46.055132</ele>
        <time>2025-08-12T13:19:44.102Z</time>
      </trkpt>
      <trkpt lat="51.582469" lon="7.146775">
        <ele>46.020939</ele>
        <time>2025-08-12T13:19:49.994Z</time>
      </trkpt>
      <trkpt lat="51.582267" lon="7.146646">
        <ele>45.999775</ele>
        <time>2025-08-12T13:19:53.615Z</time>
      </trkpt>
      <trkpt lat="51.581681" lon="7.146290">
        <ele>45.938777</ele>
        <time>2025-08-12T13:20:03.199Z</time>
      </trkpt>
      <trkpt lat="51.581539" lon="7.146202">
        <ele>45.923958</ele>
        <time>2025-08-12T13:20:05.468Z</time>
      </trkpt>
      <trkpt lat="51.581425" lon="7.146134">
        <ele>45.922320</ele>
        <time>2025-08-12T13:20:07.306Z</time>
      </trkpt>
      <trkpt lat="51.580990" lon="7.145862">
        <ele>45.942597</ele>
        <time>2025-08-12T13:20:14.508Z</time>
      </trkpt>
      <trkpt lat="51.580720" lon="7.145720">
        <ele>45.954940</ele>
        <time>2025-08-12T13:20:19.001Z</time>
      </trkpt>
      <trkpt lat="51.580535" lon="7.145608">
        <ele>45.963528</ele>
        <time>2025-08-12T13:20:22.247Z</time>
      </trkpt>
      <trkpt lat="51.579940" lon="7.145334">
        <ele>45.990419</ele>
        <time>2025-08-12T13:20:32.662Z</time>
      </trkpt>
      <trkpt lat="51.579111" lon="7.144944">
        <ele>46.336801</ele>
        <time>2025-08-12T13:20:48.165Z</time>
      </trkpt>
      <trkpt lat="51.578600" lon="7.144709">
        <ele>46.592796</ele>
        <time>2025-08-12T13:20:57.501Z</time>
      </trkpt>
      <trkpt lat="51.578323" lon="7.144644">
        <ele>46.727634</ele>
        <time>2025-08-12T13:21:02.231Z</time>
      </trkpt>
      <trkpt lat="51.577989" lon="7.144630">
        <ele>46.963748</ele>
        <time>2025-08-12T13:21:08.022Z</time>
      </trkpt>
      <trkpt lat="51.577742" lon="7.144602">
        <ele>47.443567</ele>
        <time>2025-08-12T13:21:12.590Z</time>
      </trkpt>
      <trkpt lat="51.577451" lon="7.144590">
        <ele>48.007646</ele>
        <time>2025-08-12T13:21:18.480Z</time>
      </trkpt>
      <trkpt lat="51.577202" lon="7.144581">
        <ele>48.490275</ele>
        <time>2025-08-12T13:21:23.959Z</time>
      </trkpt>
      <trkpt lat="51.576843" lon="7.144556">
        <ele>49.186590</ele>
        <time>2025-08-12T13:21:32.544Z</time>
      </trkpt>
      <trkpt lat="51.576625" lon="7.144537">
        <ele>49.609646</ele>
        <time>2025-08-12T13:21:38.129Z</time>
      </trkpt>
      <trkpt lat="51.576481" lon="7.144424">
        <ele>49.920100</ele>
        <time>2025-08-12T13:21:41.730Z</time>
      </trkpt>
      <trkpt lat="51.576359" lon="7.144411">
        <ele>50.157027</ele>
        <time>2025-08-12T13:21:44.587Z</time>
      </trkpt>
      <trkpt lat="51.575137" lon="7.144265">
        <ele>52.366964</ele>
        <time>2025-08-12T13:22:08.850Z</time>
      </trkpt>
      <trkpt lat="51.574759" lon="7.144230">
        <ele>53.045338</ele>
        <time>2025-08-12T13:22:14.282Z</time>
      </trkpt>
      <trkpt lat="51.574593" lon="7.144219">
        <ele>53.343009</ele>
        <time>2025-08-12T13:22:16.483Z</time>
      </trkpt>
      <trkpt lat="51.574543" lon="7.144215">
        <ele>53.432703</ele>
        <time>2025-08-12T13:22:17.144Z</time>
      </trkpt>
      <trkpt lat="51.573957" lon="7.144170">
        <ele>53.843065</ele>
        <time>2025-08-12T13:22:24.309Z</time>
      </trkpt>
      <trkpt lat="51.573823" lon="7.144160">
        <ele>53.914576</ele>
        <time>2025-08-12T13:22:26.017Z</time>
      </trkpt>
      <trkpt lat="51.573670" lon="7.144147">
        <ele>53.996252</ele>
        <time>2025-08-12T13:22:28.141Z</time>
      </trkpt>
      <trkpt lat="51.573428" lon="7.144128">
        <ele>54.125413</ele>
        <time>2025-08-12T13:22:31.689Z</time>
      </trkpt>
      <trkpt lat="51.573220" lon="7.144155">
        <ele>54.236655</ele>
        <time>2025-08-12T13:22:34.772Z</time>
      </trkpt>
      <trkpt lat="51.572729" lon="7.144303">
        <ele>54.502955</ele>
        <time>2025-08-12T13:22:42.096Z</time>
      </trkpt>
      <trkpt lat="51.572630" lon="7.144334">
        <ele>54.506080</ele>
        <time>2025-08-12T13:22:43.578Z</time>
      </trkpt>
      <trkpt lat="51.571439" lon="7.144706">
        <ele>53.903665</ele>
        <time>2025-08-12T13:22:57.322Z</time>
      </trkpt>
      <trkpt lat="51.571072" lon="7.144826">
        <ele>53.717711</ele>
        <time>2025-08-12T13:23:00.821Z</time>
      </trkpt>
      <trkpt lat="51.570958" lon="7.144859">
        <ele>53.660197</ele>
        <time>2025-08-12T13:23:01.890Z</time>
      </trkpt>
      <trkpt lat="51.570830" lon="7.144901">
        <ele>53.462535</ele>
        <time>2025-08-12T13:23:03.082Z</time>
      </trkpt>
      <trkpt lat="51.569057" lon="7.145443">
        <ele>49.758003</ele>
        <time>2025-08-12T13:23:18.736Z</time>
      </trkpt>
      <trkpt lat="51.567825" lon="7.145831">
        <ele>47.439229</ele>
        <time>2025-08-12T13:23:29.317Z</time>
      </trkpt>
      <trkpt lat="51.567149" lon="7.146056">
        <ele>46.913336</ele>
        <time>2025-08-12T13:23:36.432Z</time>
      </trkpt>
      <trkpt lat="51.567027" lon="7.146096">
        <ele>47.075482</ele>
        <time>2025-08-12T13:23:38.114Z</time>
      </trkpt>
      <trkpt lat="51.567037" lon="7.146204">
        <ele>47.163873</ele>
        <time>2025-08-12T13:23:39.140Z</time>
      </trkpt>
      <trkpt lat="51.567234" lon="7.147339">
        <ele>48.117805</ele>
        <time>2025-08-12T13:23:51.820Z</time>
      </trkpt>
      <trkpt lat="51.567377" lon="7.148194">
        <ele>48.834543</ele>
        <time>2025-08-12T13:24:02.629Z</time>
      </trkpt>
      <trkpt lat="51.567519" lon="7.149008">
        <ele>49.585464</ele>
        <time>2025-08-12T13:24:12.574Z</time>
      </trkpt>
      <trkpt lat="51.567526" lon="7.149047">
        <ele>49.622140</ele>
        <time>2025-08-12T13:24:13.145Z</time>
      </trkpt>
      <trkpt lat="51.567536" lon="7.149098">
        <ele>49.670456</ele>
        <time>2025-08-12T13:24:13.896Z</time>
      </trkpt>
      <trkpt lat="51.567540" lon="7.149125">
        <ele>49.695533</ele>
        <time>2025-08-12T13:24:14.210Z</time>
      </trkpt>
      <trkpt lat="51.567710" lon="7.150108">
        <ele>50.617391</ele>
        <time>2025-08-12T13:24:24.748Z</time>
      </trkpt>
      <trkpt lat="51.567732" lon="7.150236">
        <ele>50.737377</ele>
        <time>2025-08-12T13:24:26.012Z</time>
      </trkpt>
      <trkpt lat="51.569000" lon="7.149669">
        <ele>51.560246</ele>
        <time>2025-08-12T13:24:44.433Z</time>
      </trkpt>
      <trkpt lat="51.569080" lon="7.149633">
        <ele>51.560246</ele>
        <time>2025-08-12T13:24:45.499Z</time>
      </trkpt>
      <trkpt lat="51.569174" lon="7.149591">
        <ele>51.560246</ele>
        <time>2025-08-12T13:24:46.774Z</time>
      </trkpt>
      <trkpt lat="51.569744" lon="7.149336">
        <ele>51.560246</ele>
        <time>2025-08-12T13:24:54.379Z</time>
      </trkpt>
    </trkseg>
  </trk>
</gpx>